[[{"header":{"parameterUnit":"m.s-1","parameterCategory":1,"la1":30.6,"la2":28.766,"lo1":-90.7593,"lo2":-88.6598,"dy":0.0162,"dx":0.0183,"nx":116,"ny":114,"refTime":"2023-09-22T18:00:00:Z","depth":0,"parameterNumber":2,"parameterNumberName":"U-component_of_WINDS"},"data":[0.0,0.0,0.0,0.0,0.0,0.0,0.0,0.0,0.0,0.0,0.0,0.0,0.0,0.0,0.0,0.0,0.0,0.0,0.0,0.0,0.0,0.0,0.0,0.0,0.0,0.0,0.0,0.0,0.0,0.0,0.0,0.0,0.0,0.0,0.0,0.0,0.0,0.0,0.0,0.0,0.0,0.0,0.0,0.0,0.0,0.0,0.0,0.0,0.0,0.0,0.0,0.0,0.0,0.0,0.0,0.0,0.0,0.0,0.0,0.0,0.0,0.0,0.0,0.0,0.0,0.0,0.0,0.0,0.0,0.0,0.0,0.0,0.0,0.0,0.0,0.0,0.0,0.0,0.0,0.0,0.0,0.0,0.0,0.0,0.0,0.0,0.0,0.0,0.0,0.0,0.0,0.0,0.0,0.0,0.0,0.0,0.0,0.0,0.0,0.0,0.0,0.0,0.0,0.0,0.0,0.0,0.0,0.0,0.0,0.0,0.0,0.0,0.0,0.0,0.0,0.0,0.0,0.0,0.0,0.0,0.0,0.0,0.0,0.0,0.0,0.0,0.0,0.0,0.0,0.0,0.0,0.0,0.0,0.0,0.0,0.0,0.0,0.0,0.0,0.0,0.0,0.0,0.0,0.0,0.0,0.0,0.0,0.0,0.0,0.0,0.0,0.0,0.0,0.0,0.0,0.0,0.0,0.0,0.0,0.0,0.0,0.0,0.0,0.0,0.0,0.0,0.0,0.0,0.0,0.0,0.0,0.0,0.0,0.0,0.0,0.0,0.0,0.0,0.0,0.0,0.0,0.0,0.0,0.0,0.0,0.0,0.0,0.0,0.0,0.0,0.0,0.0,0.0,0.0,0.0,0.0,0.0,0.0,0.0,0.0,0.0,0.0,0.0,0.0,0.0,0.0,0.0,0.0,0.0,0.0,0.0,0.0,0.0,0.0,0.0,0.0,0.0,0.0,0.0,0.0,0.0,0.0,0.0,0.0,0.0,0.0,0.0,0.0,0.0,0.0,0.0,0.0,0.0,0.0,0.0,0.0,0.0,0.0,0.0,0.0,0.0,0.0,0.0,0.0,0.0,0.0,0.0,0.0,0.0,0.0,0.0,0.0,0.0,0.0,0.0,0.0,0.0,0.0,0.0,0.0,0.0,0.0,0.0,0.0,0.0,0.0,0.0,0.0,0.0,0.0,0.0,0.0,0.0,0.0,0.0,0.0,0.0,0.0,0.0,0.0,0.0,0.0,0.0,0.0,0.0,0.0,0.0,0.0,0.0,0.0,0.0,0.0,0.0,0.0,0.0,0.0,0.0,0.0,0.0,0.0,0.0,0.0,0.0,0.0,0.0,0.0,0.0,0.0,0.0,0.0,0.0,0.0,0.0,0.0,0.0,0.0,0.0,0.0,0.0,0.0,0.0,0.0,0.0,0.0,0.0,0.0,0.0,0.0,0.0,0.0,0.0,0.0,0.0,0.0,0.0,0.0,0.0,0.0,0.0,0.0,0.0,0.0,0.0,0.0,0.0,0.0,0.0,0.0,0.0,0.0,0.0,0.0,0.0,0.0,0.0,0.0,0.0,0.0,0.0,0.0,0.0,0.0,0.0,0.0,0.0,0.0,0.0,0.0,0.0,0.0,0.0,0.0,0.0,0.0,0.0,0.0,0.0,0.0,0.0,0.0,0.0,0.0,0.0,0.0,0.0,0.0,0.0,0.0,0.0,0.0,0.0,0.0,0.0,0.0,0.0,0.0,0.0,0.0,0.0,0.0,0.0,0.0,0.0,0.0,0.0,0.0,0.0,0.0,0.0,0.0,0.0,0.0,0.0,0.0,0.0,0.0,0.0,0.0,0.0,0.0,0.0,0.0,0.0,0.0,0.0,0.0,0.0,0.0,0.0,0.0,0.0,0.0,0.0,0.0,0.0,0.0,0.0,0.0,0.0,0.0,0.0,0.0,0.0,0.0,0.0,0.0,0.0,0.0,0.0,0.0,0.0,0.0,0.0,0.0,0.0,0.0,0.0,0.0,0.0,0.0,0.0,0.0,0.0,0.0,0.0,0.0,0.0,0.0,0.0,0.0,0.0,0.0,0.0,0.0,0.0,0.0,0.0,0.0,0.0,0.0,0.0,0.0,0.0,0.0,0.0,0.0,0.0,0.0,0.0,0.0,0.0,0.0,0.0,0.0,0.0,0.0,0.0,0.0,0.0,0.0,0.0,0.0,0.0,0.0,0.0,0.0,0.0,0.0,0.0,0.0,0.0,0.0,0.0,0.0,0.0,0.0,0.0,0.0,0.0,0.0,0.0,0.0,0.0,0.0,0.0,0.0,0.0,0.0,0.0,0.0,0.0,0.0,0.0,0.0,0.0,0.0,0.0,0.0,0.0,0.0,0.0,0.0,0.0,0.0,0.0,0.0,0.0,0.0,0.0,0.0,0.0,0.0,0.0,0.0,0.0,0.0,0.0,0.0,0.0,0.0,0.0,0.0,0.0,0.0,0.0,0.0,0.0,0.0,0.0,0.0,0.0,0.0,0.0,0.0,0.0,0.0,0.0,0.0,0.0,0.0,0.0,0.0,0.0,0.0,0.0,0.0,0.0,0.0,0.0,0.0,0.0,0.0,0.0,0.0,0.0,0.0,0.0,0.0,0.0,0.0,0.0,0.0,0.0,0.0,0.0,0.0,0.0,0.0,0.0,0.0,0.0,0.0,0.0,0.0,0.0,0.0,0.0,0.0,0.0,0.0,0.0,0.0,0.0,0.0,0.0,0.0,0.0,0.0,0.0,0.0,0.0,0.0,0.0,0.0,0.0,0.0,0.0,0.0,0.0,0.0,0.0,0.0,0.0,0.0,0.0,0.0,0.0,0.0,0.0,0.0,0.0,0.0,0.0,0.0,0.0,0.0,0.0,0.0,0.0,0.0,0.0,0.0,0.0,0.0,0.0,0.0,0.0,0.0,0.0,0.0,0.0,0.0,0.0,0.0,0.0,0.0,0.0,0.0,0.0,0.0,0.0,0.0,0.0,0.0,0.0,0.0,0.0,0.0,0.0,0.0,0.0,0.0,0.0,0.0,0.0,0.0,0.0,0.0,0.0,0.0,0.0,0.0,0.0,0.0,0.0,0.0,0.0,0.0,0.0,0.0,0.0,0.0,0.0,0.0,0.0,0.0,0.0,0.0,0.0,0.0,0.0,0.0,0.0,0.0,0.0,0.0,0.0,0.0,0.0,0.0,0.0,0.0,0.0,0.0,0.0,0.0,0.0,0.0,0.0,0.0,0.0,0.0,0.0,0.0,0.0,0.0,0.0,0.0,0.0,0.0,0.0,0.0,0.0,0.0,0.0,0.0,0.0,0.0,0.0,0.0,0.0,0.0,0.0,0.0,0.0,0.0,0.0,0.0,0.0,0.0,0.0,0.0,0.0,0.0,0.0,0.0,0.0,0.0,0.0,0.0,0.0,0.0,0.0,0.0,0.0,0.0,0.0,0.0,0.0,0.0,0.0,0.0,0.0,0.0,0.0,0.0,0.0,0.0,0.0,0.0,0.0,0.0,0.0,0.0,0.0,0.0,0.0,0.0,0.0,0.0,0.0,0.0,0.0,0.0,0.0,0.0,0.0,0.0,0.0,0.0,0.0,0.0,0.0,0.0,0.0,0.0,0.0,0.0,0.0,0.0,0.0,0.0,0.0,0.0,0.0,0.0,0.0,0.0,0.0,0.0,0.0,0.0,0.0,0.0,0.0,0.0,0.0,0.0,0.0,0.0,0.0,0.0,0.0,0.0,0.0,0.0,0.0,0.0,0.0,0.0,0.0,0.0,0.0,0.0,0.0,0.0,0.0,0.0,0.0,0.0,0.0,0.0,0.0,0.0,0.0,0.0,0.0,0.0,0.0,0.0,0.0,0.0,0.0,0.0,0.0,0.0,0.0,0.0,0.0,0.0,0.0,0.0,0.0,0.0,0.0,0.0,0.0,0.0,0.0,0.0,0.0,0.0,0.0,0.0,0.0,0.0,0.0,0.0,0.0,0.0,0.0,0.0,0.0,0.0,0.0,0.0,0.0,0.0,0.0,0.0,0.0,0.0,0.0,0.0,0.0,0.0,0.0,0.0,0.0,0.0,0.0,0.0,0.0,0.0,0.0,0.0,0.0,0.0,0.0,0.0,0.0,0.0,0.0,0.0,0.0,0.0,0.0,0.0,0.0,0.0,0.0,0.0,0.0,0.0,0.0,0.0,0.0,0.0,0.0,0.0,0.0,0.0,0.0,0.0,0.0,0.0,0.0,0.0,0.0,0.0,0.0,0.0,0.0,0.0,0.0,0.0,0.0,0.0,0.0,0.0,0.0,0.0,0.0,0.0,0.0,0.0,0.0,0.0,0.0,0.0,0.0,0.0,0.0,0.0,0.0,0.0,0.0,0.0,0.0,0.0,0.0,0.0,0.0,0.0,0.0,0.0,0.0,0.0,0.0,0.0,0.0,0.0,0.0,0.0,0.0,0.0,0.0,0.0,0.0,0.0,0.0,0.0,0.0,0.0,0.0,0.0,0.0,0.0,0.0,0.0,0.0,0.0,0.0,0.0,0.0,0.0,0.0,0.0,0.0,0.0,0.0,0.0,0.0,0.0,0.0,0.0,0.0,0.0,0.0,0.0,0.0,0.0,0.0,0.0,0.0,0.0,0.0,0.0,0.0,0.0,0.0,0.0,0.0,0.0,0.0,0.0,0.0,0.0,0.0,0.0,0.0,0.0,0.0,0.0,0.0,0.0,0.0,0.0,0.0,0.0,0.0,0.0,0.0,0.0,0.0,0.0,0.0,0.0,0.0,0.0,0.0,0.0,0.0,0.0,0.0,0.0,0.0,0.0,0.0,0.0,0.0,0.0,0.0,0.0,0.0,0.0,0.0,0.0,0.0,0.0,0.0,0.0,0.0,0.0,0.0,0.0,0.0,0.0,0.0,0.0,0.0,0.0,0.0,0.0,0.0,0.0,0.0,0.0,0.0,0.0,0.0,0.0,0.0,0.0,0.0,0.0,0.0,0.0,0.0,0.0,0.0,0.0,0.0,0.0,0.0,0.0,0.0,0.0,0.0,0.0,0.0,0.0,0.0,0.0,0.0,0.0,0.0,0.0,0.0,0.0,0.0,0.0,0.0,0.0,0.0,0.0,0.0,0.0,0.0,0.0,0.0,0.0,0.0,0.0,0.0,0.0,0.0,0.0,0.0,0.0,0.0,0.0,0.0,0.0,0.0,0.0,0.0,0.0,0.0,0.0,0.0,0.0,0.0,0.0,0.0,0.0,0.0,0.0,0.0,0.0,0.0,0.0,0.0,0.0,0.0,0.0,0.0,0.0,0.0,0.0,0.0,0.0,0.0,0.0,0.0,0.0,0.0,0.0,0.0,0.0,0.0,0.0,0.0,0.0,0.0,0.0,0.0,0.0,0.0,0.0,0.0,0.0,0.0,0.0,0.0,0.0,0.0,0.0,0.0,0.0,0.0,0.0,0.0,0.0,0.0,0.0,0.0,0.0,0.0,0.0,0.0,0.0,0.0,0.0,0.0,0.0,0.0,0.0,0.0,0.0,0.0,0.0,0.0,0.0,0.0,0.0,0.0,0.0,0.0,0.0,0.0,0.0,0.0,0.0,0.0,0.0,0.0,0.0,0.0,0.0,0.0,0.0,0.0,0.0,0.0,0.0,0.0,0.0,0.0,0.0,0.0,0.0,0.0,0.0,0.0,0.0,0.0,0.0,0.0,0.0,0.0,0.0,0.0,0.0,0.0,0.0,0.0,0.0,0.0,0.0,0.0,0.0,0.0,0.0,0.0,0.0,0.0,0.0,0.0,0.0,0.0,0.0,0.0,0.0,0.0,0.0,0.0,0.0,0.0,0.0,0.0,0.0,0.0,0.0,0.0,0.0,0.0,0.0,0.0,0.0,0.0,0.0,0.0,0.0,0.0,0.0,0.0,0.0,0.0,0.0,0.0,0.0,0.0,0.0,0.0,0.0,0.0,0.0,0.0,0.0,0.0,0.0,0.0,0.0,0.0,0.0,0.0,0.0,0.0,0.0,0.0,0.0,0.0,0.0,0.0,0.0,0.0,0.0,0.0,0.0,-3.2069,0.0,0.0,0.0,0.0,0.0,0.0,0.0,0.0,0.0,0.0,0.0,0.0,0.0,0.0,0.0,0.0,0.0,0.0,0.0,0.0,0.0,0.0,0.0,0.0,0.0,0.0,0.0,0.0,0.0,0.0,0.0,0.0,0.0,0.0,0.0,0.0,0.0,0.0,0.0,-1.7506,-1.733,-1.7195,-1.7624,-1.484,-0.9591,0.0,0.0,0.0,0.0,0.0,0.0,0.0,0.0,0.0,0.0,0.0,0.0,0.0,0.0,0.0,0.0,0.0,0.0,0.0,0.0,0.0,0.0,0.0,0.0,0.0,0.0,0.0,0.0,0.0,0.0,0.0,0.0,0.0,0.0,0.0,0.0,0.0,0.0,0.0,0.0,0.0,0.0,0.0,0.0,0.0,0.0,0.0,0.0,0.0,0.0,0.0,0.0,0.0,0.0,0.0,0.0,0.0,0.0,0.0,0.0,0.0,0.0,0.0,0.0,0.0,0.0,0.0,0.0,0.0,0.0,0.0,-3.3323,0.0,0.0,0.0,0.0,0.0,0.0,0.0,0.0,0.0,0.0,0.0,0.0,0.0,0.0,0.0,0.0,0.0,0.0,0.0,0.0,0.0,0.0,0.0,0.0,2.0858,1.2516,0.9433,0.0,0.0,0.0,0.0,0.0,0.0,0.0,0.0,-2.5333,-2.8042,-2.7479,-2.697,-2.7246,-2.8217,-2.8908,-2.4495,-1.6229,-2.0941,0.0,0.0,0.0,0.0,0.0,0.0,0.0,0.0,0.0,0.0,0.0,0.0,0.0,0.0,0.0,0.0,0.0,0.0,0.0,0.0,0.0,0.0,0.0,0.0,0.0,0.0,0.0,0.0,0.0,0.0,0.0,0.0,0.0,0.0,0.0,0.0,0.0,0.0,0.0,0.0,0.0,0.0,0.0,0.0,0.0,0.0,0.0,0.0,0.0,0.0,0.0,0.0,0.0,0.0,0.0,0.0,0.0,0.0,0.0,0.0,0.0,0.0,0.0,-3.754,-3.7503,-3.7379,-3.7379,-3.6781,-3.5668,-3.5101,-3.4446,-3.3772,-3.3702,0.0,0.0,0.0,0.0,0.0,0.0,0.0,0.0,0.0,0.0,0.0,0.0,0.0,0.0,0.0,0.0,0.0,0.0,0.0,0.0,0.0,2.0377,1.4963,1.2681,0.3905,-0.4923,0.0,0.0,0.0,0.0,0.0,0.0,-2.8661,-2.9589,-2.9588,-2.8592,-2.7659,-2.7566,-2.8322,-3.0087,-2.9888,-2.807,-2.6894,-2.5188,-2.3003,0.0,0.0,0.0,0.0,0.0,0.0,0.0,0.0,0.0,0.0,0.0,0.0,0.0,0.0,0.0,0.0,0.0,0.0,0.0,0.0,0.0,0.0,0.0,0.0,0.0,0.0,0.0,0.0,0.0,0.0,0.0,0.0,0.0,0.0,0.0,0.0,0.0,0.0,0.0,0.0,0.0,-2.7291,-2.841,0.0,0.0,0.0,0.0,0.0,0.0,0.0,0.0,0.0,0.0,0.0,0.0,0.0,-3.6699,-3.7358,-3.7598,-3.7684,-3.7702,-3.7782,-3.7519,-3.6915,-3.6915,-3.6406,-3.5599,-3.5501,0.0,-3.4449,-3.319,0.0,0.0,0.0,0.0,0.0,0.0,0.0,0.0,0.0,0.0,0.0,0.0,0.0,0.0,0.0,0.0,0.0,0.0,0.0,0.0,0.0,2.0225,1.4801,0.6841,0.0938,-0.7032,-1.8098,0.0,0.0,0.0,0.0,-3.0186,-3.0288,-2.9758,-2.8836,-2.7447,-2.8075,-2.8494,-2.8805,-3.0844,-3.1679,-3.1461,-3.1365,-3.0064,-2.7757,-2.5213,0.0,0.0,0.0,0.0,0.0,0.0,0.0,0.0,0.0,0.0,0.0,0.0,0.0,0.0,0.0,0.0,0.0,0.0,0.0,0.0,0.0,0.0,0.0,0.0,0.0,0.0,0.0,0.0,0.0,0.0,0.0,0.0,0.0,0.0,0.0,0.0,0.0,0.0,0.0,-2.8835,-2.94,-2.9432,-3.0734,-3.197,0.0,0.0,0.0,0.0,0.0,0.0,0.0,0.0,0.0,-3.7122,-3.7544,-3.7928,-3.833,-3.8791,-3.8814,-3.842,-3.8503,-3.8125,-3.7398,-3.6975,-3.6586,-3.6231,-3.5368,-3.4839,-3.4582,-3.4349,-3.5011,-3.6157,0.0,0.0,0.0,0.0,-3.56,-3.5438,0.0,0.0,0.0,0.0,0.0,0.0,0.0,0.0,0.0,0.0,0.0,0.0,2.0377,1.7599,1.1791,0.1398,-0.3207,-1.0086,-2.0714,-2.2684,0.0,0.0,-2.8868,-2.933,-2.9383,-2.8402,-2.7399,-2.6302,-2.7753,-2.863,-2.9004,-3.0974,-3.1953,-3.217,-3.3576,-3.3024,-3.0901,-2.8898,-2.5933,-2.2316,0.0,0.0,0.0,0.0,0.0,0.0,0.0,0.0,0.0,0.0,0.0,0.0,0.0,0.0,0.0,0.0,0.0,0.0,0.0,0.0,0.0,0.0,0.0,0.0,0.0,0.0,0.0,0.0,0.0,0.0,0.0,0.0,0.0,0.0,0.0,0.0,0.0,-2.9906,-3.0282,-2.9737,-3.0902,-3.1982,0.0,0.0,0.0,0.0,0.0,0.0,-3.6128,-3.6165,-3.659,-3.7446,-3.7992,-3.8408,-3.8717,-3.9056,-3.8954,-3.843,-3.8227,-3.7736,-3.7009,-3.6451,-3.6096,-3.5859,-3.4709,-3.4218,-3.4287,-3.48,-3.5509,-3.6208,-3.6149,-3.6635,-3.7257,-3.6844,-3.6825,-3.6857,0.0,0.0,0.0,0.0,0.0,0.0,0.0,0.0,0.0,0.0,0.0,1.9973,1.8577,0.9004,0.1639,-0.0947,-1.0449,-1.7379,-1.9912,-2.1529,-2.3122,-2.4747,-2.6511,-2.7356,-2.7166,-2.6036,-2.569,-2.6118,-2.6318,-2.7191,-2.8662,-3.0057,-3.0987,-3.1573,-3.2493,-3.2642,-3.2118,-3.0663,-2.8358,-2.5411,-2.22,0.0,0.0,0.0,0.0,0.0,0.0,0.0,0.0,0.0,0.0,0.0,0.0,0.0,0.0,0.0,0.0,0.0,0.0,0.0,0.0,0.0,0.0,0.0,0.0,0.0,0.0,0.0,0.0,0.0,0.0,0.0,0.0,0.0,0.0,0.0,0.0,0.0,0.0,-2.8745,-2.989,0.0,0.0,0.0,0.0,-3.427,-3.4906,-3.5323,-3.551,-3.5563,-3.5937,-3.6814,-3.6881,-3.7242,-3.7956,-3.7297,-3.6924,-3.6874,-3.6146,-3.5385,-3.4658,-3.4624,-3.4235,-3.3575,-3.3491,-3.3457,-3.3457,-3.3482,-3.4284,-3.5457,-3.545,-3.6213,-3.7122,-3.5581,-3.5467,-3.5758,0.0,0.0,0.0,0.0,0.0,0.0,0.0,0.0,0.0,1.9864,1.8868,1.6691,1.2292,0.7367,0.2889,-0.098,-0.6355,-1.1033,-1.4604,-1.6261,-1.9091,-2.3565,-2.4564,-2.5251,-2.5832,-2.5053,-2.4978,-2.5645,-2.6078,-2.7219,-2.9059,-3.0101,-3.0791,-3.1148,-3.2307,-3.2528,-3.203,-3.1678,-3.0413,-2.8386,-2.6015,-2.3155,0.0,0.0,0.0,0.0,0.0,0.0,0.0,0.0,0.0,0.0,0.0,0.0,0.0,0.0,0.0,0.0,0.0,0.0,0.0,0.0,0.0,0.0,0.0,0.0,0.0,0.0,0.0,0.0,0.0,0.0,0.0,0.0,0.0,0.0,0.0,0.0,0.0,-2.9297,-3.056,0.0,-3.1967,-3.269,-3.3388,-3.398,-3.4507,-3.5019,-3.5531,-3.5566,-3.5727,-3.6011,-3.6028,-3.6163,-3.6434,-3.6163,-3.5791,-3.5301,-3.503,-3.4506,-3.3778,-3.3288,-3.2933,-3.2662,-3.2188,-3.1985,-3.2019,-3.2493,-3.346,-3.4658,-3.4922,-3.5325,-3.572,-3.546,-3.5327,-3.5169,0.0,0.0,0.0,0.0,0.0,0.0,0.0,0.0,1.9633,1.6657,1.5626,1.3028,0.7558,0.5424,0.2684,-0.139,-0.3919,-0.688,-1.0646,-1.2882,-1.621,-2.0926,-2.2124,-2.2994,-2.3778,-2.3524,-2.3743,-2.4411,-2.5248,-2.6596,-2.8372,-2.91,-2.9733,-3.034,-3.1347,-3.1824,-3.1904,-3.1971,-3.1299,-3.0027,-2.8418,-2.611,-2.3447,0.0,0.0,0.0,0.0,0.0,0.0,0.0,0.0,0.0,0.0,0.0,0.0,0.0,0.0,0.0,0.0,0.0,0.0,0.0,0.0,0.0,0.0,0.0,0.0,0.0,0.0,0.0,0.0,0.0,0.0,0.0,0.0,0.0,0.0,-2.8925,-2.9342,-2.9579,-3.0541,-3.1177,-3.138,-3.1838,-3.2275,-3.2765,-3.3416,-3.404,-3.4544,-3.4728,-3.4878,-3.4878,-3.4878,-3.4878,-3.4878,-3.4624,-3.4235,-3.3744,-3.3304,-3.2934,-3.2645,-3.1958,-3.1739,-3.1884,-3.114,-3.0835,-3.0835,-3.0881,-3.1506,-3.2572,-3.4032,-3.4712,-3.485,-3.4661,-3.4387,-3.4041,0.0,0.0,0.0,0.0,0.0,0.0,0.0,1.9891,1.7682,1.3972,1.1865,0.9188,0.495,0.2588,0.02,-0.2407,-0.4265,-0.6282,-0.8571,-1.1889,-1.4731,-1.6762,-1.9171,-2.0571,-2.0923,-2.1266,-2.1806,-2.2478,-2.3716,-2.507,-2.6421,-2.6877,-2.7754,-2.9038,-2.9531,-3.0498,-3.1785,-3.1521,-3.0976,-3.0198,-2.935,-2.8272,-2.7046,0.0,0.0,0.0,0.0,0.0,0.0,0.0,0.0,0.0,0.0,0.0,0.0,0.0,0.0,0.0,0.0,0.0,0.0,0.0,0.0,0.0,0.0,0.0,0.0,0.0,0.0,0.0,0.0,0.0,0.0,0.0,0.0,0.0,-2.7457,-2.8503,-2.9185,-2.9387,-2.9541,-2.9674,-2.9862,-3.0326,-3.0612,-3.0612,-3.1772,-3.2434,-3.2418,-3.2998,-3.3313,-3.3296,-3.328,-3.328,-3.3296,-3.2611,-3.2239,-3.2239,-3.0933,-3.0617,-3.1151,-3.0543,-3.0584,-3.1067,-3.034,-3.0036,-2.993,-2.8666,-2.8489,-2.9299,-3.2695,-3.4303,-3.4557,-3.3062,-3.2484,-3.2201,0.0,0.0,0.0,0.0,0.0,0.0,0.0,1.8019,1.6133,1.2965,1.076,0.8398,0.5373,0.2792,0.0465,-0.1526,-0.3919,-0.627,-0.8559,-1.0692,-1.3112,-1.586,-1.6635,-1.7641,-1.8995,-1.8721,-1.9585,-2.1727,-2.254,-2.3493,-2.4563,-2.566,-2.6557,-2.726,-2.8157,-2.8952,-2.9677,-3.0984,-3.0947,-3.0094,-3.1057,-3.0693,-2.9453,0.0,0.0,0.0,0.0,0.0,0.0,0.0,0.0,0.0,0.0,0.0,0.0,0.0,0.0,0.0,0.0,0.0,0.0,0.0,0.0,0.0,0.0,0.0,0.0,0.0,0.0,0.0,0.0,0.0,0.0,0.0,-2.6754,-2.6377,-2.6282,-2.7129,-2.7655,-2.7291,-2.8626,-2.9651,-2.9674,-3.0264,-3.0612,-3.0612,-3.139,-3.1593,-3.1075,-3.16,-3.15,-3.0538,-3.0929,-3.0929,-3.0477,-3.0731,-3.0858,-3.0858,-3.0476,-3.0393,-3.0502,-2.9832,-2.9362,-2.913,-2.8864,-2.851,-2.8103,-2.777,-2.7713,-2.7997,-2.9703,-3.0482,-3.0612,-3.0488,-3.0265,-2.9813,0.0,0.0,0.0,0.0,0.0,0.0,0.0,1.6721,1.4907,1.2202,1.051,0.8436,0.5585,0.3581,0.1722,-0.0066,-0.2521,-0.468,-0.6383,-0.9047,-1.1569,-1.3782,-1.3856,-1.4571,-1.5998,-1.5908,-1.6916,-1.9183,-1.9742,-2.0519,-2.1547,-2.258,-2.3317,-2.3877,-2.5205,-2.5795,-2.594,-2.7854,-2.7545,-2.5876,-2.7293,-2.9351,-3.1464,-3.0861,-3.0963,-3.1335,-3.024,-3.0597,-3.1529,-3.1258,0.0,0.0,0.0,0.0,0.0,0.0,0.0,0.0,0.0,0.0,0.0,0.0,0.0,0.0,0.0,0.0,0.0,0.0,0.0,0.0,0.0,0.0,0.0,0.0,-2.4976,-2.4561,-2.3978,-2.5485,-2.6484,-2.5914,-2.7311,-2.8302,-2.8302,-2.8943,-2.9337,-2.9337,-2.9953,-3.0117,-2.9706,-3.0226,-3.0226,-2.9422,-2.9717,-2.9761,-2.9406,-2.9761,-2.9935,-2.9935,-2.9366,-2.9248,-2.9447,-2.8521,-2.8056,-2.7965,-2.7559,-2.721,-2.6896,-2.6347,-2.6293,0.0,0.0,0.0,0.0,0.0,-2.823,-2.7693,0.0,0.0,0.0,0.0,0.0,0.0,0.0,1.615,1.4387,1.2104,1.1023,0.9261,0.6229,0.4872,0.3542,0.1845,-0.0395,-0.2213,-0.3409,-0.6974,-0.9586,-1.0737,-1.0697,-1.1146,-1.2221,-1.2772,-1.3877,-1.5558,-1.5987,-1.6635,-1.7589,-1.8201,-1.8722,-1.9204,-2.0813,-2.1114,-2.0543,-2.2307,-2.1273,-1.8467,-1.9608,-2.4535,-3.1207,-3.1531,-3.1827,-3.2031,-3.137,-3.1297,-3.1384,-3.0651,0.0,0.0,0.0,0.0,0.0,0.0,0.0,0.0,0.0,0.0,0.0,0.0,0.0,0.0,0.0,0.0,0.0,0.0,0.0,0.0,0.0,0.0,0.0,0.0,-2.2581,-2.1935,-2.1464,-2.3695,-2.5283,-2.493,-2.5771,-2.6404,-2.6404,-2.6982,-2.7408,-2.7458,-2.7978,-2.8255,-2.8255,0.0,0.0,0.0,0.0,-2.9271,-2.918,-2.9191,-2.9204,-2.9188,-2.7873,-2.759,-2.8029,-2.6826,-2.6498,-2.682,-2.6236,-2.595,-2.5821,-2.4606,-2.4399,-2.495,-2.6526,-2.7169,-2.7112,-2.6951,-2.6484,-2.5911,0.0,0.0,0.0,0.0,0.0,0.0,0.0,1.7339,1.6296,1.4604,1.253,1.0753,0.9636,0.7283,0.538,0.4276,0.2039,-0.0495,-0.3235,-0.4207,-0.5162,-0.6366,-0.5807,-0.6484,-0.8713,-0.888,-1.0032,-1.2258,-1.2788,-1.283,-1.245,-1.3581,-1.3828,-1.332,-1.4508,-1.3878,-1.1939,-1.3211,-1.1663,-0.8508,-0.9967,-1.4357,-2.037,-2.375,-2.4693,-2.4609,-2.771,-2.9186,-2.9565,-2.9326,-2.9364,-2.9641,-3.0356,-3.0004,0.0,0.0,0.0,0.0,0.0,0.0,0.0,0.0,0.0,0.0,0.0,0.0,0.0,0.0,0.0,0.0,0.0,0.0,0.0,-2.3382,-2.296,-2.2419,-2.152,-2.1916,-2.2543,-2.3299,-2.4681,-2.5618,-2.5618,-2.5728,-2.6054,-2.6669,-2.6811,-2.6916,-2.6916,-2.7997,-2.8192,-2.7093,-2.8094,-2.8463,-2.7944,-2.7891,-2.7873,-2.7857,0.0,0.0,-2.6123,-2.5288,-2.443,-2.3655,-2.391,-2.3786,-2.3334,-2.2529,-2.2275,-2.2593,-2.477,-2.5637,-2.5637,-2.5593,-2.5502,-2.5352,0.0,0.0,0.0,0.0,0.0,0.0,0.0,1.7297,1.6146,1.5216,1.3356,1.166,1.0643,0.8948,0.7492,0.6327,0.3864,0.1364,-0.119,-0.1552,-0.197,-0.2546,-0.2242,-0.2768,-0.4499,-0.4564,-0.536,-0.7036,-0.7231,-0.7287,-0.7278,-0.7481,-0.709,-0.6263,-0.6933,-0.6055,-0.4271,-0.5909,-0.3823,0.036,-0.1656,-0.2791,-0.4275,-1.429,-1.7969,-1.816,-2.1358,-2.3353,-2.4381,-2.3631,-2.453,-2.6102,-2.6533,-2.6423,-2.671,0.0,0.0,0.0,0.0,0.0,0.0,0.0,0.0,0.0,0.0,0.0,0.0,0.0,0.0,-2.4937,-2.3786,0.0,-2.2903,-2.1494,-2.1186,-2.0776,-1.9839,-2.0036,-2.0718,-2.1705,-2.2842,-2.3554,-2.3554,-2.4262,-2.4912,-2.5246,-2.5686,-2.596,-2.596,-2.6611,-2.6663,-2.596,-2.6611,-2.6805,-2.6481,-2.6148,-2.5997,-2.5982,-2.4738,-2.4129,-2.41,-2.3065,-2.2247,-2.1645,-2.1913,-2.1666,-2.111,-2.1137,-2.093,-2.0744,-2.2286,-2.3342,-2.4028,-2.4576,-2.4601,-2.4362,0.0,0.0,0.0,0.0,0.0,0.0,0.0,0.0,1.6053,1.5525,1.4177,1.2715,1.1204,1.0359,0.9241,0.7576,0.543,0.3549,0.1946,0.1492,0.1256,0.1256,0.1124,0.0593,-0.0262,-0.0261,-0.0771,-0.1737,-0.1515,-0.1525,-0.1856,-0.0973,0.0,0.0965,0.0939,0.1963,0.3554,0.1849,0.4277,0.9032,0.7009,0.8658,1.0944,-0.2342,-0.8665,-1.0798,-1.3651,-1.5959,-1.7523,-1.6567,-1.8457,-2.1268,-2.1655,-2.2226,-2.3409,-2.6976,-2.6592,0.0,0.0,0.0,0.0,0.0,0.0,0.0,0.0,-2.5782,-2.5493,-2.4566,-2.406,-2.3498,-2.2433,-2.1713,-2.075,-1.9056,-1.872,-1.8417,-1.766,-1.8066,-1.8736,-1.9444,-2.0681,-2.1487,-2.1487,-2.2685,-2.3456,-2.3619,-2.4262,-2.4657,-2.4657,-2.4827,-2.4827,-2.4714,-2.4827,-2.4883,-2.4883,-2.4259,-2.4001,-2.3933,-2.265,-2.2032,-2.1968,-2.0751,-2.0039,-1.9775,-1.9724,-1.9345,-1.8714,-1.9636,-1.9535,-1.8958,-1.9699,-2.0758,-2.2058,-2.3229,-2.346,-2.3128,0.0,0.0,0.0,0.0,0.0,0.0,0.0,0.0,0.0,1.6797,1.5593,1.4415,1.3217,1.1686,0.9778,0.7253,0.6834,0.646,0.5959,0.5899,0.5875,0.5875,0.514,0.427,0.3331,0.3331,0.2957,0.2172,0.2228,0.297,0.4387,0.5174,0.628,0.7755,0.8351,1.0068,1.2397,1.2685,1.4945,1.8231,1.793,1.8383,1.8686,1.4214,0.7542,-0.0066,-0.5339,-0.8265,-0.9712,-1.0466,-1.2198,-1.4447,-1.6067,-1.7213,-1.8669,-2.2623,-2.4191,-2.5233,-2.7778,-2.6594,-2.4561,-2.4128,-2.2433,-2.1032,0.0,-2.1699,-2.1678,-2.0816,-2.0632,-2.0489,-1.9604,-1.8559,-1.7678,-1.7086,-1.675,-1.6388,-1.5911,-1.572,-1.5711,-1.5773,-1.8742,-2.0707,-2.0707,-2.0887,-2.1283,-2.1896,-2.2067,-2.214,-2.214,-2.2742,-2.2802,-2.2128,-2.2742,-2.3073,-2.3073,-2.2432,-2.2097,-2.2084,-2.0391,-1.96,-1.9576,-1.9088,-1.8135,-1.6838,-1.6666,-1.6258,-1.5792,-1.7158,-1.7366,-1.6783,-1.7517,-1.8278,-1.9251,-2.0535,-2.1424,-2.1899,0.0,0.0,0.0,0.0,0.0,0.0,0.0,0.0,0.0,0.0,1.5746,1.4731,1.4086,1.2353,1.0686,0.9361,0.8732,0.8212,0.7825,0.757,0.7598,0.8084,0.7747,0.7585,0.7663,0.7663,0.7481,0.7113,0.7545,0.8072,0.8727,1.0073,1.1471,1.2922,1.3839,1.5315,1.714,1.7699,1.9381,2.162,2.0888,2.0954,2.1166,1.8861,1.525,1.0698,0.5571,0.16,0.0,-0.1941,-0.4343,-0.7455,-0.9493,-1.1024,-1.2936,-1.7184,-1.8163,-1.8383,-2.0344,-2.0687,-2.0491,-2.0632,-2.0166,-1.9729,-2.0355,-2.0576,-2.0458,-1.967,-1.9333,-1.9015,-1.8499,-1.7809,-1.7138,-1.6752,-1.6382,-1.602,-1.5667,-1.5386,-1.5234,-1.5234,-1.6522,-1.7474,-1.7474,-1.7909,-1.8272,-1.8609,-1.9057,-1.9663,-2.022,-2.0004,-1.9929,-2.0231,-2.0004,-1.9821,-1.9821,-1.9076,-1.8704,-1.8693,-1.7438,-1.6839,-1.6839,-1.6254,-1.5625,-1.5032,-1.4529,-1.4412,-1.4587,-1.4658,-1.4589,-1.4418,-1.4619,-1.5241,-1.6206,-1.7903,-1.8824,-1.9101,0.0,0.0,0.0,0.0,0.0,0.0,0.0,0.0,0.0,0.0,1.6477,1.5475,1.4747,1.302,1.182,1.1473,1.0675,1.0114,0.992,0.9575,0.9654,1.0197,1.026,1.0504,1.1119,1.1345,1.1343,1.1286,1.2025,1.2444,1.2607,1.4234,1.5668,1.6904,1.8083,1.9152,2.0163,2.0873,2.1962,2.3122,2.2283,2.2184,2.2422,2.0978,1.9655,1.7991,1.3647,0.9819,0.668,0.5737,0.2993,-0.0422,-0.2775,-0.5041,-0.7616,-1.1594,-1.2815,-1.3216,-1.4483,-1.537,-1.6209,-1.735,-1.7327,-1.7183,-1.8151,-1.8384,-1.8201,-1.7466,-1.709,-1.6814,-1.6477,-1.5884,-1.5323,-1.508,-1.469,-1.4337,-1.4109,-1.38,-1.3548,-1.3548,-1.3548,-1.3548,-1.3548,-1.5081,-1.6061,-1.6061,-1.6638,-1.7311,-1.8081,-1.7378,-1.7369,-1.8081,-1.7043,-1.6477,-1.6477,-1.5864,-1.5514,-1.5514,-1.5023,-1.4619,-1.4355,-1.3254,-1.2748,-1.2687,-1.1958,-1.1897,-1.2385,-1.1966,-1.1882,-1.1966,-1.1867,-1.2337,-1.3203,-1.4192,-1.5523,-1.6709,0.0,0.0,0.0,0.0,0.0,0.0,0.0,0.0,0.0,0.0,0.0,0.0,0.0,1.3908,1.2923,1.2951,1.2689,1.2639,1.2837,1.2854,1.2879,1.2879,1.2879,1.2879,1.294,1.3596,1.3978,1.3969,1.4724,1.5472,1.6259,1.7699,1.8803,1.9622,2.0984,2.1588,2.173,2.2892,2.3432,2.3475,2.3462,2.3447,2.3376,2.276,2.1668,2.0078,1.6747,1.4948,1.3732,1.1395,0.9052,0.668,0.365,0.0217,-0.335,-0.6182,-0.9628,-1.2565,-1.2876,-1.254,-1.2548,-1.4698,-1.3228,-1.1693,-1.3153,-1.3477,-1.3404,-1.2985,-1.3012,-1.2916,-1.2462,-1.1514,-1.0778,-1.0768,-1.0388,-1.0095,-1.0085,-0.9715,-0.9442,-0.9442,-0.9442,-0.9442,-0.9442,-1.2961,-1.5226,-1.5226,-1.5226,-1.5296,-1.5296,-1.5296,-1.5296,-1.5296,-1.4134,-1.3523,-1.3523,-1.323,-1.3111,-1.3111,-1.3461,-1.3226,-1.2322,-1.0301,-0.9364,-0.9301,-0.8516,-0.8151,-0.8275,-0.9,-0.9301,-0.9301,-0.9301,-0.9794,-1.0345,-0.882,-1.1232,-1.5243,0.0,0.0,0.0,0.0,0.0,0.0,0.0,0.0,0.0,0.0,0.0,0.0,0.0,0.0,0.0,0.0,1.4098,1.3803,1.3911,1.401,1.4309,1.4838,1.5119,1.5533,1.6069,1.6285,1.6398,1.6398,1.7596,1.8295,1.8608,2.0371,2.1356,2.1744,2.2878,2.343,2.3576,2.4673,2.5461,2.5799,2.4921,2.4998,2.541,2.3393,2.2728,2.2673,0.0,1.8578,1.6564,1.5547,1.3523,1.105,0.8654,0.5853,0.28,-0.1019,-0.3829,-0.5841,-0.5999,-0.6083,-0.6597,-0.8435,-0.8204,-0.7897,-0.9357,-0.9683,-0.9631,-0.9353,-0.9687,-0.9953,-0.9521,-0.9776,-1.012,-1.0059,-1.009,-1.0033,-0.9958,-0.9607,-0.9376,-0.9311,-0.9296,-0.9296,-0.9296,-1.0473,-1.1279,-1.1279,-1.1279,-1.1563,-1.2198,-1.163,-1.1547,-1.2053,-1.1047,-1.0497,-1.0387,-1.0048,-0.9624,-0.912,-0.9012,-0.9104,-0.9397,-0.806,-0.7505,-0.744,-0.6595,-0.6205,-0.6205,-0.5875,-0.6063,-0.6573,-0.6002,-0.625,-0.7012,-0.7057,-0.7718,-0.8834,0.0,0.0,0.0,0.0,0.0,0.0,0.0,0.0,0.0,0.0,0.0,0.0,0.0,0.0,0.0,0.0,0.0,1.5458,1.5678,1.58,1.6064,1.6546,1.6937,1.7434,1.8066,1.8347,1.859,1.8819,2.0144,2.0819,2.0957,2.2757,2.367,2.3789,2.4841,2.5397,2.5516,2.6477,2.7164,2.754,2.6735,2.6775,2.7118,2.5048,2.4547,0.0,2.3873,2.182,1.9445,1.8429,1.6914,1.4948,1.2721,1.0206,0.7479,0.3878,0.2031,0.0913,0.0158,-0.0484,-0.132,-0.2781,-0.3457,-0.3944,-0.4824,-0.5115,-0.5179,-0.5442,-0.5871,-0.6259,-0.6395,-0.7076,-0.7673,-0.7565,-0.7635,-0.7685,-0.7571,-0.7362,-0.7183,-0.708,-0.7092,-0.7076,-0.7061,-0.7064,-0.7662,-0.9226,-0.9367,-0.959,-1.0157,-0.9658,-0.9355,-0.952,-0.8515,-0.774,-0.7249,-0.6997,-0.6726,-0.6435,-0.5935,-0.5959,-0.6563,-0.5632,-0.5032,-0.4692,-0.4096,-0.3697,-0.3361,-0.2781,-0.2911,-0.3364,-0.2781,-0.2911,-0.3493,-0.402,-0.3888,-0.3823,0.0,0.0,0.0,0.0,0.0,0.0,0.0,0.0,0.0,0.0,0.0,0.0,0.0,0.0,0.0,0.0,0.0,0.0,1.8093,1.8101,1.8066,1.812,1.8389,1.8737,1.9108,1.9813,2.0502,2.1083,2.2228,2.2965,2.324,2.4951,2.5727,2.5773,2.6978,2.751,2.751,2.8241,2.8557,2.859,2.871,2.8669,2.8489,2.7501,2.6887,2.6497,2.6108,2.4622,2.2432,2.0322,1.9203,1.8224,1.5675,1.3195,1.0642,0.8351,0.7605,0.7099,0.5196,0.4118,0.3146,0.1943,0.1038,0.0441,0.0353,0.0352,0.0,-0.1205,-0.1459,-0.1879,-0.3107,-0.3326,-0.3376,-0.3376,-0.3293,-0.3206,-0.3203,-0.3168,-0.3079,-0.3076,-0.3091,-0.3072,-0.3062,-0.3073,-0.4708,-0.8689,-0.9097,-0.9131,-0.9013,-0.8993,-0.8505,-0.7475,-0.6423,-0.5334,-0.4321,-0.4039,-0.432,-0.5157,-0.4246,-0.3789,-0.3857,-0.2937,-0.2003,-0.1132,-0.1132,-0.0598,0.0133,0.0133,0.0133,0.0133,0.0133,0.0133,0.0133,0.0066,0.0066,-0.0464,0.0,0.0,0.0,0.0,0.0,0.0,0.0,0.0,0.0,0.0,0.0,0.0,0.0,0.0,0.0,0.0,0.0,0.0,1.8762,1.9069,1.9254,1.9503,2.0143,2.0617,2.0837,2.1335,2.1749,2.2048,2.3596,2.4447,2.4697,2.6789,2.7607,2.7437,2.8494,2.8749,2.849,2.9,2.9518,2.983,2.8682,2.8817,2.9543,2.7383,2.6851,2.7041,2.5952,2.4897,2.3766,2.2387,2.036,1.8091,1.574,1.4082,1.2629,1.1206,1.0082,0.915,0.8723,0.8436,0.7881,0.6853,0.6408,0.6008,0.5152,0.4751,0.4277,0.3181,0.259,0.1919,0.1001,0.0085,-0.0516,-0.0344,-0.1397,-0.2107,-0.2072,-0.2783,-0.3301,-0.3081,-0.3091,-0.313,-0.3072,-0.3204,-0.3683,-0.4598,-0.4691,-0.4741,-0.4713,-0.4714,-0.4476,-0.4171,-0.3823,-0.3544,-0.3114,-0.2384,-0.2479,-0.3368,-0.1749,-0.1332,-0.1929,-0.0399,0.04,0.0666,0.1401,0.1802,0.2003,0.2003,0.2003,0.2003,0.2003,0.2003,0.1935,0.1198,0.1399,0.1734,0.0,0.0,0.0,0.0,0.0,0.0,0.0,0.0,0.0,0.0,0.0,0.0,0.0,0.0,0.0,0.0,0.0,0.0,0.0,1.9965,2.0271,2.0409,2.114,2.1704,2.21,2.2801,2.3198,2.3375,2.4933,2.5715,2.5721,2.7574,2.8339,2.8306,2.9124,2.9351,2.9158,2.9834,3.0266,0.0,0.0,2.9972,3.0369,2.8515,2.7781,2.7641,2.6606,2.514,2.3459,2.2137,2.0075,1.7787,1.5909,1.4932,1.4253,1.2823,1.1932,1.135,1.1158,1.0886,1.0577,0.9921,0.9497,0.8972,0.8367,0.7978,0.7423,0.6299,0.5549,0.4816,0.393,0.2862,0.2151,0.2324,0.1414,0.0626,0.07,0.0086,-0.0253,-0.0167,-0.0242,-0.0318,-0.0241,-0.0403,-0.0484,-0.0402,-0.2097,-0.3142,-0.3109,-0.3067,-0.2874,-0.238,-0.2353,-0.1853,-0.0927,0.007,0.0277,-0.0342,0.0673,0.0934,0.0466,0.1467,0.2135,0.2534,0.0,0.348,0.3882,0.3882,0.4143,0.4466,0.4466,0.4662,0.4985,0.4441,0.4575,0.492,0.0,0.0,0.0,0.0,0.0,0.0,0.0,0.0,0.0,0.0,0.0,0.0,0.0,0.0,0.0,0.0,0.0,0.0,0.0,0.0,2.1033,2.1033,2.1664,2.2263,2.2889,2.3911,2.4457,2.4589,2.6104,2.6681,2.6484,2.7838,2.8582,2.8837,2.9333,2.9575,2.9627,3.0421,3.0681,3.059,3.1079,3.1099,3.0666,0.0,2.8856,2.8,2.7268,2.5177,2.2443,2.0822,1.9241,1.7629,1.6206,1.5756,1.5463,1.3805,1.3429,1.3518,1.2987,1.2739,1.2449,1.2067,1.1421,1.0813,1.0736,1.0366,0.9712,0.8631,0.7807,0.7104,0.6083,0.5149,0.4628,0.4658,0.4279,0.3906,0.3846,0.3685,0.3639,0.3639,0.3423,0.3357,0.3414,0.3193,0.3097,0.3066,-0.0325,-0.2395,-0.2275,-0.2266,-0.1871,-0.1013,-0.0993,-0.0221,0.1475,0.2378,0.2826,0.2691,0.2948,0.3076,0.3076,0.3274,0.3806,0.4541,0.4541,0.0,0.5756,0.5756,0.6207,0.685,0.685,0.7307,0.8027,0.8027,0.8027,0.8032,0.0,0.0,0.0,0.0,0.0,0.0,0.0,0.0,0.0,0.0,2.0563,2.0835,0.0,0.0,0.0,0.0,0.0,0.0,0.0,0.0,0.0,2.1326,2.1746,2.2263,2.2889,2.3584,2.4158,2.4589,2.6197,2.7087,2.7331,2.866,2.9489,2.9843,2.9959,3.0009,3.0009,2.9998,3.0058,3.0139,2.9839,2.9666,2.9499,2.8685,0.0,0.0,2.6026,2.4359,2.2614,2.1315,1.9738,1.816,1.684,1.6462,1.6272,1.551,1.5357,1.538,1.5597,1.5846,1.5794,1.4889,1.4316,1.3852,1.3319,1.2524,1.1671,1.0923,1.0084,0.9005,0.7845,0.7057,0.6542,0.6452,0.557,0.492,0.508,0.4212,0.3639,0.3639,0.3556,0.3478,0.3343,0.3325,0.3216,0.3087,0.2439,0.1975,0.2006,0.205,0.2088,0.2126,0.2116,0.223,0.2452,0.2611,0.2714,0.2701,0.418,0.4863,0.4926,0.6375,0.7167,0.7302,0.7302,0.0,0.7572,0.7572,0.7637,0.7762,0.7762,0.7897,0.8027,0.8027,0.8027,0.8052,0.0,0.0,0.0,0.0,0.0,0.0,0.0,2.226,2.2379,2.138,2.178,2.1763,2.0725,2.0472,0.0,0.0,0.0,0.0,0.0,0.0,0.0,0.0,0.0,0.0,2.3054,2.42,2.4782,2.4806,0.0,2.6754,2.6781,2.7674,2.8316,2.8753,2.8753,2.8963,2.9315,2.9384,2.9621,2.9909,2.9707,2.9513,2.9198,0.0,0.0,0.0,2.5175,2.3878,2.2433,2.1868,2.044,1.8654,1.706,1.6576,1.65,1.5948,1.5897,1.608,1.6321,1.671,1.6891,1.5968,1.5676,1.5425,1.4881,1.3866,1.2945,1.2638,1.1607,1.0425,0.9574,0.8613,0.7861,0.7533,0.6754,0.6153,0.6153,0.5717,0.5452,0.5452,0.5352,0.5236,0.5117,0.4968,0.4888,0.4774,0.4766,0.424,0.3176,0.3064,0.3014,0.2869,0.3467,0.3624,0.3413,0.3932,0.4425,0.4824,0.5627,0.6248,0.6706,0.7627,0.8027,0.8027,0.8027,0.0,0.8027,0.8027,0.8285,0.8678,0.8678,0.8935,0.9326,0.9326,0.9326,0.9338,0.0,0.0,0.0,0.0,0.0,0.0,0.0,2.2626,2.3166,2.2492,2.2899,2.2613,2.1075,2.1011,2.1077,0.0,0.0,0.0,0.0,0.0,0.0,0.0,0.0,0.0,0.0,0.0,0.0,2.5147,2.5902,0.0,0.0,0.0,0.0,0.0,2.7938,2.8219,2.8693,2.8867,2.9181,0.0,0.0,2.9307,0.0,0.0,0.0,0.0,0.0,2.3667,2.2543,2.2283,2.1106,1.9354,1.7658,1.7185,1.7125,1.6793,1.6876,1.7113,1.7275,1.7674,1.7817,1.6894,1.659,1.6363,1.5708,1.4629,1.3818,1.368,1.2512,1.1396,1.0912,0.9701,0.8635,0.811,0.7547,0.7114,0.698,0.7068,0.7153,0.7187,0.7061,0.6902,0.6719,0.6593,0.6527,0.6578,0.6795,0.6083,0.4208,0.413,0.4076,0.4105,0.4919,0.5234,0.4828,0.5662,0.6412,0.6981,0.7177,0.7632,0.8285,0.8479,0.8544,0.8549,0.8598,0.0,0.0,0.8933,0.945,1.0232,1.011,1.0534,1.1122,1.1185,1.1171,1.1136,0.0,0.0,0.0,0.0,0.0,0.0,0.0,2.3022,2.3263,2.2888,2.3053,2.2827,2.1898,2.2298,2.2618,0.0,0.0,0.0,0.0,0.0,0.0,0.0,0.0,0.0,0.0,0.0,0.0,2.5623,2.5528,0.0,0.0,0.0,0.0,0.0,0.0,2.9179,2.8948,2.88,0.0,0.0,0.0,0.0,0.0,0.0,0.0,0.0,0.0,2.3991,2.3321,2.2261,2.1479,2.0677,1.9309,1.8937,1.9084,1.937,1.9723,2.0137,2.0168,2.0256,1.9965,1.8493,1.7961,1.7296,1.5725,1.4775,1.4099,1.363,1.2673,1.1706,1.0968,0.9792,0.8735,0.8124,0.7605,0.7253,0.7085,0.7132,0.719,0.7333,0.7214,0.701,0.6729,0.6688,0.6965,0.7581,0.8542,0.8537,0.7391,0.7391,0.7605,0.8094,0.8155,0.8024,0.7666,0.7731,0.7787,0.7897,0.8678,0.9075,0.9204,0.9977,1.0364,1.0378,1.064,1.1197,0.0,1.1883,1.239,1.3194,1.2816,1.2696,1.2797,1.3184,1.3094,1.2854,0.0,0.0,0.0,0.0,0.0,0.0,2.2536,2.3006,2.339,2.3417,2.3601,2.3757,2.3757,2.3986,2.3635,0.0,0.0,0.0,0.0,0.0,0.0,0.0,0.0,0.0,0.0,0.0,2.4808,2.5884,2.5377,0.0,0.0,0.0,0.0,0.0,0.0,2.8682,2.9132,2.8333,0.0,0.0,0.0,0.0,0.0,0.0,0.0,0.0,0.0,0.0,2.2334,2.1839,2.1273,2.0624,2.0313,2.0058,1.9869,1.9565,1.9705,2.0062,2.0134,2.0361,2.0323,1.9174,1.8805,1.8429,1.7186,1.584,1.4807,1.4537,1.3237,1.2003,1.1323,1.0271,0.9291,0.8492,0.7732,0.7195,0.6983,0.7085,0.7163,0.7224,0.7177,0.7024,0.6729,0.727,0.7938,0.8646,0.9069,0.9372,0.9583,0.9064,0.8649,0.8569,0.8624,0.8477,0.8225,0.8225,0.8491,0.903,0.9365,0.9993,1.0836,1.1156,1.16,1.2042,1.2172,1.2414,0.0,1.2718,1.2905,1.3207,1.3058,1.3141,1.341,1.3551,1.365,1.3822,0.0,0.0,0.0,0.0,0.0,2.2776,2.2443,2.3134,2.3716,2.3794,2.4121,2.4476,2.472,2.4896,2.4366,2.2709,0.0,0.0,0.0,0.0,0.0,0.0,0.0,0.0,0.0,0.0,2.5269,2.6225,2.5614,2.6252,0.0,0.0,2.7931,2.8471,0.0,0.0,0.0,0.0,0.0,0.0,0.0,0.0,0.0,0.0,0.0,0.0,0.0,0.0,0.0,0.0,0.0,2.056,2.0646,2.0435,2.0033,1.9823,1.9931,2.0232,2.0301,2.0409,2.0361,1.9502,1.9287,1.9062,1.7996,1.6515,1.5234,1.5021,1.3593,1.2305,1.1781,1.0801,0.9824,0.8959,0.8052,0.7351,0.7049,0.7115,0.7224,0.7272,0.7538,0.7661,0.7213,0.826,0.9154,0.9695,1.0045,1.0496,1.1236,1.0571,1.0007,0.9585,0.9574,0.9452,0.9276,0.9198,0.9673,1.0635,1.0552,1.1221,1.2562,1.2398,1.2718,1.3385,1.3322,1.3576,0.0,1.3856,1.4053,1.4293,1.3996,1.4066,1.4372,1.4486,1.4635,1.4866,0.0,0.0,0.0,0.0,0.0,0.0,2.2443,2.3493,2.4176,2.3849,2.4491,2.4774,2.4191,2.4652,2.4761,2.415,0.0,0.0,0.0,0.0,0.0,0.0,0.0,0.0,0.0,0.0,2.5772,2.6673,2.6199,2.7206,2.954,2.8893,2.8751,2.9116,0.0,0.0,0.0,0.0,0.0,0.0,0.0,0.0,0.0,0.0,0.0,0.0,0.0,0.0,0.0,0.0,0.0,0.0,0.0,1.9878,1.9807,2.0673,2.1051,2.1133,2.1151,2.0886,2.0361,1.9502,1.9287,1.8909,1.7562,1.6455,1.5455,1.4522,1.3528,1.2746,1.2378,1.1335,1.0284,0.9579,0.8608,0.7716,0.7183,0.7272,0.7424,0.7577,0.8691,0.9207,0.8491,0.9833,1.0789,1.0783,1.1694,0.0,1.2298,1.2305,1.2164,1.187,1.1864,1.1724,1.1354,1.1136,1.1602,1.2833,1.2503,1.3032,1.4254,1.3758,1.3855,1.4271,1.4139,1.487,0.0,1.5945,1.6448,1.7275,1.6396,1.6064,1.6113,1.65,1.6445,1.6191,0.0,0.0,0.0,0.0,0.0,0.0,0.0,2.3159,2.3448,2.3742,2.4121,2.4489,2.4706,2.4896,2.4924,2.4747,0.0,0.0,0.0,0.0,0.0,0.0,0.0,0.0,0.0,0.0,2.6153,2.7103,2.6512,2.7172,2.8982,2.8065,2.8076,2.8817,2.835,2.8091,0.0,0.0,0.0,0.0,0.0,0.0,2.4073,0.0,0.0,0.0,0.0,0.0,0.0,0.0,0.0,0.0,0.0,0.0,0.0,2.0006,2.0009,1.9737,1.9508,1.9536,1.9477,1.8543,1.8256,1.7962,1.6851,1.5666,1.4665,1.4378,1.331,1.2452,1.2298,1.1865,1.1367,1.1145,1.0674,1.0043,0.9393,0.9857,0.9962,0.9266,0.9519,0.9942,1.0484,1.0672,1.1087,1.1768,1.215,1.2305,1.2305,1.2305,1.2171,1.1877,1.2494,1.2796,1.2694,1.3256,1.3731,1.4114,1.3993,1.4405,1.5118,1.4994,1.5277,1.5936,1.5872,0.0,0.0,1.6455,1.6658,1.6885,1.6299,1.6426,1.6943,1.6787,1.7012,1.7432,0.0,0.0,0.0,0.0,0.0,0.0,0.0,2.3079,2.3303,2.3396,2.3893,2.4404,2.4781,2.4708,2.4708,2.4821,0.0,0.0,0.0,0.0,0.0,0.0,0.0,0.0,0.0,2.5863,2.6594,2.7194,2.6826,2.7319,2.859,2.7966,2.7826,2.8124,2.7641,2.7349,0.0,0.0,0.0,0.0,0.0,0.0,2.3305,0.0,0.0,0.0,0.0,0.0,0.0,0.0,0.0,0.0,0.0,0.0,0.0,0.0,1.8597,1.8247,1.8921,1.9072,1.8807,1.7794,1.7405,1.7009,1.6105,1.495,1.4091,1.4091,1.3164,1.2305,1.2305,1.1778,1.1373,1.1311,1.0847,1.0391,1.0194,1.0745,1.1164,1.1217,1.095,1.1155,1.2215,1.1698,1.162,1.2224,1.2305,1.2305,1.2305,1.2666,1.2722,1.2606,1.3162,1.3651,1.3995,1.4478,1.4959,1.5437,1.5291,1.565,1.644,1.629,1.6579,1.7207,1.7051,0.0,0.0,1.7217,1.7217,1.7168,1.6728,1.6894,1.7344,1.708,1.7314,1.7793,0.0,0.0,0.0,0.0,0.0,0.0,0.0,2.3147,2.3447,2.2871,2.3721,2.4412,2.4381,2.4234,2.4176,2.4394,0.0,0.0,0.0,0.0,0.0,0.0,0.0,0.0,2.5336,2.6322,2.6874,2.6937,2.7113,2.7592,2.8299,2.8253,2.7852,2.7286,2.7467,2.721,0.0,0.0,0.0,0.0,0.0,0.0,0.0,0.0,0.0,0.0,0.0,0.0,0.0,0.0,0.0,0.0,0.0,0.0,0.0,0.0,0.0,0.0,0.0,1.8952,1.8128,1.7234,1.663,1.6029,1.5246,1.4314,0.0,1.3673,1.2952,1.2318,1.2358,1.1465,1.0659,1.0589,0.9883,0.957,1.0131,1.0598,1.1487,1.3275,1.2674,1.2536,1.347,1.2819,1.2305,1.2305,1.2305,1.2305,1.2372,1.3237,1.3745,1.3882,1.3882,1.4378,1.5305,1.5032,1.5515,1.6706,1.6391,1.6833,1.7998,1.7607,1.7637,0.0,0.0,0.0,0.0,1.8008,1.8008,1.8027,1.7671,1.7524,1.7609,1.7579,1.7589,1.7678,0.0,0.0,0.0,0.0,0.0,0.0,0.0,0.0,0.0,0.0,2.3237,2.3589,2.3572,2.3872,2.3943,0.0,0.0,0.0,0.0,0.0,0.0,0.0,0.0,0.0,2.5614,2.6175,2.6437,2.6489,2.6526,2.6755,2.7108,2.6491,2.6446,2.6806,2.6301,2.5868,0.0,0.0,0.0,0.0,0.0,0.0,0.0,0.0,0.0,0.0,2.0431,1.9715,0.0,0.0,0.0,0.0,0.0,0.0,0.0,0.0,1.5807,1.5559,1.6147,0.0,1.6199,1.5614,1.5088,1.4632,0.0,1.3477,1.3112,1.3112,1.2666,1.2445,1.2913,1.2759,1.2529,1.2242,1.2937,1.3141,1.2069,1.2601,1.3483,1.4501,1.3652,1.3059,1.324,1.2699,1.2305,1.2305,1.2305,1.2592,1.331,1.36,1.4378,1.586,1.593,1.6009,1.6245,1.6917,1.7338,1.7647,1.7619,1.7697,1.8008,1.791,1.792,1.8008,0.0,0.0,1.8008,1.8008,1.8395,1.8936,1.8482,1.8955,1.9802,1.9432,1.953,1.9868,0.0,0.0,0.0,0.0,0.0,0.0,0.0,0.0,0.0,0.0,0.0,0.0,0.0,0.0,0.0,0.0,0.0,0.0,0.0,0.0,0.0,0.0,0.0,2.5258,2.5258,2.5687,2.5892,2.5892,2.5892,2.5946,2.6079,2.5845,2.5859,2.6079,2.5472,2.4915,0.0,0.0,0.0,0.0,2.2494,0.0,0.0,0.0,0.0,0.0,1.9584,1.9065,0.0,1.8066,1.7638,1.7285,0.0,0.0,0.0,0.0,1.4752,1.4402,1.4402,1.4752,1.495,1.4466,1.4034,1.3528,1.3039,1.2746,1.2599,1.2599,1.2452,1.2445,1.2913,1.287,1.2787,1.2875,1.3502,1.3908,1.3543,1.4118,1.4644,1.4977,1.4048,1.336,1.3227,1.2659,1.2305,1.2305,1.2739,1.3164,1.3673,1.4522,1.55,1.6567,1.7001,1.7217,1.7235,1.7735,1.8008,1.8008,1.8008,1.8008,1.8008,1.8008,1.8008,0.0,0.0,0.0,1.8008,1.8008,1.8269,1.87,1.8446,1.9013,1.9976,1.9715,2.0037,2.059,0.0,0.0,0.0,0.0,0.0,0.0,0.0,0.0,0.0,0.0,0.0,0.0,0.0,0.0,0.0,0.0,0.0,0.0,0.0,0.0,0.0,0.0,0.0,2.4624,2.4624,2.5007,2.5175,2.5175,2.5175,2.5175,2.5231,2.5425,2.5425,2.5175,2.4738,2.4176,0.0,0.0,0.0,0.0,2.1628,0.0,0.0,0.0,0.0,0.0,0.0,0.0,0.0,1.7226,1.6724,1.628,1.5666,0.0,0.0,0.0,0.0,0.0,1.3346,1.3717,1.4015,1.368,1.3178,1.2746,1.2378,1.2305,1.2305,1.2305,1.2338,1.2492,1.2956,1.2752,1.2707,1.3047,1.3082,1.3448,1.4709,1.5165,1.5237,1.499,1.4142,1.348,1.3233,1.2659,1.2372,1.2519,1.3237,1.3818,1.4099,1.572,1.6636,1.6784,1.7579,1.8008,1.8008,1.8008,1.8008,1.8008,1.8008,1.8008,1.8008,1.8008,1.8008,1.8008,0.0,0.0,1.8008,1.8134,1.8269,1.8395,1.8519,1.911,1.9879,1.9879,2.0322,2.0974,0.0,0.0,0.0,0.0,0.0,0.0,0.0,0.0,0.0,0.0,0.0,0.0,0.0,0.0,0.0,0.0,0.0,0.0,0.0,0.0,0.0,2.199,2.3386,2.4176,2.4176,2.4234,2.4292,2.4292,2.4292,2.4292,2.4292,2.4337,2.4337,2.4292,2.3956,2.3484,2.2992,0.0,0.0,0.0,2.0805,0.0,0.0,0.0,0.0,0.0,0.0,0.0,0.0,1.6158,1.5666,1.5305,1.4736,0.0,0.0,0.0,0.0,0.0,1.2452,1.2784,1.3064,1.3029,1.2673,1.2378,1.2305,1.2305,1.2305,1.2305,1.2505,1.2926,1.3734,1.3831,1.3788,1.3586,1.3588,1.4029,1.5399,1.5279,1.5017,1.497,1.3968,1.326,1.3213,1.2659,1.2666,1.3455,1.36,1.445,1.607,1.6428,1.6991,1.7794,1.794,1.8008,1.8008,1.8008,1.8008,1.8008,1.8008,1.8008,1.8008,1.8008,1.8008,1.8008,0.0,1.8008,1.8076,1.8787,1.9562,2.0268,2.1037,2.1803,2.2494,2.2494,2.2628,2.2689,0.0,0.0,0.0,0.0,0.0,0.0,0.0,0.0,0.0,0.0,0.0,0.0,0.0,0.0,0.0,0.0,0.0,0.0,0.0,0.0,2.1376,2.1302,2.2051,2.2725,2.3185,2.3424,2.3543,2.3543,2.3305,2.3305,2.3543,2.3543,2.3412,2.3135,2.2798,2.231,2.1604,2.1175,2.0741,0.0,0.0,0.0,0.0,0.0,0.0,0.0,0.0,0.0,0.0,0.0,1.4673,1.4314,1.3745,0.0,0.0,0.0,0.0,0.0,1.0651,1.0813,1.0907,1.1065,1.1961,1.2752,1.2579,1.2672,1.2746,1.2579,1.2786,1.322,1.3955,1.4215,1.4427,1.482,1.4867,1.51,1.5717,1.5331,1.4963,1.4963,1.3928,1.3213,1.3213,1.3106,1.3244,1.3673,1.4657,1.5649,1.6558,1.707,1.7569,1.8008,1.8008,1.8008,1.8008,1.8008,1.8008,1.8008,1.8008,1.8008,1.8008,1.8008,1.8008,1.8008,0.0,1.8008,1.8008,1.8462,1.911,1.9944,2.0333,2.129,2.2506,2.2944,2.3339,2.3602,0.0,0.0,0.0,0.0,0.0,0.0,0.0,0.0,0.0,0.0,0.0,0.0,0.0,0.0,0.0,0.0,0.0,0.0,0.0,0.0,2.0473,2.0613,2.0869,2.1376,2.2211,2.258,2.2688,2.2577,2.2335,2.2334,2.2628,2.2628,2.2359,2.1892,2.1678,2.1175,2.0409,1.9966,1.9639,0.0,0.0,0.0,0.0,0.0,0.0,0.0,0.0,0.0,0.0,0.0,0.0,0.0,0.0,0.0,0.0,1.0415,0.9895,0.9296,0.9296,0.9337,0.9412,0.9496,1.0897,1.2277,1.2167,1.228,1.2362,1.2189,1.259,1.3153,1.3659,1.4302,1.4943,1.5618,1.5785,1.5805,1.5738,1.5291,1.491,1.4776,1.3841,1.318,1.3113,1.3508,1.381,1.4027,1.5649,1.6706,1.6922,1.7579,1.8008,1.8008,1.8008,1.8008,1.8008,1.8008,1.8008,1.8008,1.8008,1.8008,1.8008,1.8008,1.8008,1.8008,1.8202,1.8269,1.8337,1.8721,1.9309,1.9944,2.0139,2.1106,2.2454,2.3083,2.3703,2.4192,0.0,0.0,0.0,0.0,0.0,0.0,0.0,0.0,0.0,0.0,0.0,0.0,0.0,0.0,0.0,0.0,0.0,0.0,0.0,0.0,1.9649,1.9264,2.015,2.0974,2.1616,2.1678,2.1516,2.1055,2.1454,2.1502,2.125,2.125,2.1049,2.0719,2.0719,2.0409,1.9835,1.9846,1.9044,1.7842,1.7394,0.0,0.0,0.0,0.0,0.0,0.0,0.0,0.0,0.0,0.0,0.0,0.0,0.0,0.9372,0.9372,0.9372,0.9296,0.9296,0.9448,0.9683,0.9698,0.9638,0.9658,1.0105,1.009,1.006,1.0369,1.1321,1.2283,1.2651,1.4122,1.5351,1.5418,1.5651,1.5732,1.5464,1.5157,1.4763,1.4215,1.3594,1.3093,1.2882,1.3372,1.4099,1.5021,1.6,1.7001,1.7862,1.794,1.8008,1.8008,1.8008,1.8008,1.8008,1.8008,1.8008,1.8008,1.8008,1.8008,1.8008,1.8008,1.8008,1.8076,1.8854,1.9233,1.9299,2.0974,2.169,2.1815,2.2494,2.3268,2.3879,2.3929,2.4293,2.4757,0.0,0.0,0.0,0.0,0.0,0.0,0.0,0.0,0.0,0.0,0.0,0.0,0.0,0.0,0.0,0.0,0.0,0.0,0.0,1.8607,1.8664,1.8741,1.9054,1.9507,2.0031,2.0351,2.0476,2.0293,2.0476,2.0488,2.0291,2.0602,2.0409,1.9759,1.9465,1.888,1.8162,1.7531,1.6913,1.6437,1.607,0.0,0.0,0.0,0.0,0.0,0.0,0.0,0.0,0.0,1.1013,1.019,0.9965,0.914,0.8389,0.8389,0.7936,0.7403,0.7403,0.7602,0.7764,0.7797,0.7777,0.8099,0.9611,1.0164,1.0408,1.0351,1.1537,1.2939,1.3951,1.4845,1.5398,1.5398,1.5491,1.5458,1.517,1.4716,1.4269,1.3861,1.3836,1.378,1.3658,1.4792,1.5649,1.607,1.6932,1.7647,1.8008,1.8008,1.8008,1.8008,1.8008,1.8008,1.8008,1.8008,1.8008,1.8008,1.8008,1.8008,1.8008,1.8008,1.8008,1.8008,1.8337,1.8462,1.8519,1.9177,2.0139,2.1262,2.3009,2.3803,2.4042,2.4381,2.4845,2.531,0.0,0.0,0.0,0.0,0.0,0.0,0.0,0.0,0.0,0.0,0.0,0.0,0.0,0.0,0.0,0.0,0.0,0.0,1.7157,1.7157,1.7295,1.7569,1.7638,1.7765,1.8027,1.8287,1.8754,1.9438,1.9438,1.9425,1.9386,1.9617,1.9212,1.8412,1.7852,1.7257,1.6524,1.5807,1.5455,1.5242,1.4879,1.4593,0.0,0.0,0.0,0.0,0.0,0.0,0.0,0.0,0.9965,0.9216,0.8917,0.8161,0.7326,0.7326,0.6872,0.6338,0.6338,0.6366,0.6498,0.6603,0.6702,0.7184,0.8661,0.9266,0.9687,1.0037,1.1547,1.3237,1.452,1.4923,1.5117,1.5117,1.5117,1.5017,1.473,1.4262,1.3801,1.3407,1.3607,1.3826,1.4022,1.5303,1.628,1.6567,1.7501,1.8008,1.8008,1.8008,1.8008,1.8008,1.8008,1.8008,1.8008,1.8008,1.8134,1.8395,1.8395,1.8269,1.8008,1.8269,1.8395,1.8462,1.8977,1.9243,1.9233,1.9486,2.0322,2.1537,2.3318,2.4104,2.4318,2.4858,2.541,2.5875,0.0,0.0,0.0,0.0,0.0,0.0,0.0,0.0,0.0,0.0,0.0,0.0,0.0,0.0,0.0,0.0,0.0,0.0,1.5234,1.5234,1.5376,1.5675,1.5675,1.5675,1.5675,1.5317,1.6142,1.8359,1.8359,1.8389,1.8482,1.792,1.7276,1.6567,1.5948,1.5525,1.5163,1.5163,1.4807,1.4235,1.381,1.3317,1.282,0.0,0.0,0.0,0.0,0.0,0.0,0.0,0.8912,0.7783,0.7783,0.7099,0.6342,0.6338,0.6264,0.6342,0.6338,0.6366,0.6474,0.6474,0.6705,0.6929,0.6932,0.7041,0.7492,0.8995,1.1096,1.2913,1.3881,1.4322,1.4522,1.4516,1.4516,1.4409,1.4122,1.3821,1.3414,1.2889,1.2815,1.3071,1.3702,1.4665,1.5579,1.6567,1.7501,1.8008,1.8008,1.8008,1.8008,1.8008,1.8008,1.8008,1.8008,1.8008,1.8462,1.9299,1.9299,1.8854,1.8076,1.8911,1.9299,1.9431,2.1175,2.1877,2.1939,2.2763,2.3078,2.314,2.3778,2.4343,2.4883,2.541,2.5963,2.6533,0.0,0.0,0.0,0.0,0.0,0.0,0.0,0.0,0.0,0.0,0.0,0.0,0.0,0.0,0.0,0.0,0.0,0.0,1.5234,1.5234,1.5234,1.5305,1.5376,1.5376,1.5376,1.5205,1.536,1.5636,1.5636,1.583,1.6149,1.6009,1.5799,1.5579,1.4942,1.4665,1.4522,1.389,1.3237,1.2652,1.197,1.131,1.072,0.0,0.0,0.0,0.0,0.0,0.0,0.0,0.0,0.0,0.6868,0.6638,0.639,0.6291,0.6332,0.6386,0.6288,0.6441,0.663,0.663,0.6858,0.725,0.8119,0.7812,0.7985,1.0214,1.1732,1.2973,1.4143,1.4462,1.4449,1.4249,1.4215,1.4041,1.354,1.3206,1.3174,1.3431,1.4026,1.4848,1.5658,1.6576,1.7295,1.7579,1.7862,1.8008,1.8008,1.8008,1.8008,1.8008,1.8008,1.8008,1.8008,1.8008,1.8144,1.8395,1.8395,1.8911,1.9824,2.0074,2.0204,2.0268,2.0782,2.0974,2.1037,2.1865,2.2261,2.2407,2.394,2.4669,2.4933,2.5862,2.6382,2.6533,0.0,0.0,0.0,0.0,0.0,0.0,0.0,0.0,0.0,0.0,1.2927,0.0,0.0,0.0,0.0,0.0,0.0,0.0,0.0,1.3049,1.3049,1.2985,1.3028,1.31,1.31,1.2961,1.2725,1.24,1.4042,1.4948,1.5163,1.495,1.4657,1.4219,1.3498,1.291,1.2471,1.1755,1.1248,1.0875,1.0421,0.9965,0.9669,0.0,0.0,0.0,0.0,0.0,0.0,0.0,0.0,0.0,0.6412,0.6359,0.6444,0.6302,0.6403,0.6532,0.6383,0.6563,0.6793,0.6793,0.6966,0.7316,0.8017,0.8794,0.97,1.0806,1.2153,1.346,1.417,1.4249,1.4115,1.3941,1.3707,1.3434,1.3073,1.3141,1.3312,1.3622,1.4601,1.5587,1.6498,1.7139,1.7579,1.794,1.8008,1.8008,1.8008,1.8008,1.8008,1.8008,1.8008,1.8008,1.8008,1.8008,1.8337,1.9044,1.9044,1.9944,2.1542,2.0526,2.0268,2.0655,2.129,2.1604,2.1604,2.2187,2.2384,2.2555,2.419,2.482,2.4958,2.605,2.6533,2.6533,0.0,0.0,0.0,0.0,0.0,0.0,0.0,0.0,0.0,0.0,1.2091,1.181,0.0,0.0,0.0,0.0,0.0,0.0,0.0,0.0,0.9787,0.9545,0.975,0.9868,0.9868,0.9513,0.9296,0.9296,1.2889,1.4649,1.4649,1.4076,1.3353,1.2405,1.1601,1.0708,0.982,0.9448,0.9296,0.9221,0.9145,0.9145,0.9069,0.9069,0.0,0.0,0.0,0.0,0.0,0.0,0.0,0.0,0.6295,0.6396,0.6485,0.6342,0.6502,0.6688,0.6536,0.6705,0.6929,0.6929,0.7121,0.7228,0.7228,0.9913,1.1986,1.0869,1.2431,1.4088,1.4088,1.3841,1.3552,1.3607,1.312,1.2808,1.2788,1.3276,1.3745,1.3818,1.4736,1.572,1.6636,1.6706,1.707,1.794,1.8008,1.8008,1.8008,1.8008,1.8008,1.8008,1.8008,1.8008,1.8008,1.8008,1.8787,2.0333,2.0333,2.1164,2.2567,2.0579,2.0074,2.091,2.2433,2.3078,2.3078,2.3078,2.3078,2.3178,2.4381,2.482,2.4958,2.605,2.6533,2.6533,0.0,0.0,0.0,0.0,0.0,0.0,0.0,0.0,0.0,0.0,0.0,0.0,0.0,0.0,0.0,0.0,0.0,0.0,0.0,0.0,0.9422,0.9365,0.9417,0.9442,0.9442,0.9372,0.9296,0.9296,1.0179,1.0548,1.0548,1.0404,1.026,1.004,0.982,0.9593,0.9448,0.9372,0.8993,0.8533,0.8237,0.7855,0.7395,0.7099,0.6949,0.0,0.0,0.0,0.0,0.0,0.0,0.0,0.6569,0.6709,0.68,0.6651,0.6736,0.6848,0.6695,0.6787,0.6929,0.6929,0.7726,0.854,0.854,1.0519,1.1986,1.0869,1.2431,1.4088,1.4088,1.3841,1.3567,1.334,1.2986,1.2741,1.2432,1.3134,1.3954,1.4807,1.572,1.6645,1.7579,1.7716,1.7794,1.8008,1.8008,1.8008,1.8008,1.8008,1.8008,1.8008,1.8008,1.8008,1.8008,1.8008,1.8202,0.0,1.8596,1.8721,1.9166,2.1279,2.2372,2.2555,2.2944,2.3078,2.3078,2.3078,2.3078,2.3178,2.4381,2.482,2.4958,2.605,2.6533,2.6533,0.0,0.0,0.0,0.0,0.0,0.0,0.0,0.0,0.0,0.0,0.0,0.0,0.0,0.0,0.0,0.0,0.0,0.0,0.0,0.0,0.7306,0.7387,0.7702,0.7859,0.7859,0.7859,0.7859,0.7859,0.7859,0.8389,0.9296,0.9296,0.9145,0.8841,0.8689,0.8389,0.8156,0.7936,0.7706,0.7399,0.7173,0.6868,0.6563,0.6412,0.6338,0.6338,0.6338,0.0,0.0,0.0,0.0,0.0,0.0,0.0,0.6898,0.6746,0.6858,0.6997,0.6851,0.6919,0.7114,0.7722,0.8814,0.9753,0.9753,1.1042,1.2151,1.1552,1.2863,1.4041,1.3901,1.3634,1.334,1.3033,1.2732,1.2478,1.2325,1.352,1.4593,1.5163,1.6437,1.7432,1.794,1.8008,1.8008,1.8008,1.8008,1.8008,1.8008,1.8008,1.8008,1.8008,1.8008,1.8008,1.8008,1.8008,1.8202,1.8654,1.8761,1.8976,1.9208,2.0432,2.0981,2.097,2.1412,2.1689,2.1928,2.1928,2.1928,2.1999,2.281,2.3197,2.3394,2.4859,2.518,2.4845,0.0,0.0,0.0,0.0,0.0,0.0,0.0,0.0,0.0,0.0,0.0,0.0,0.0,0.0,0.0,0.0,0.0,0.0,0.0,0.0,0.0,0.5165,0.5712,0.6025,0.6103,0.6025,0.6103,0.6338,0.618,0.7019,0.877,0.877,0.8537,0.8003,0.7706,0.7249,0.6788,0.6335,0.6103,0.6103,0.6025,0.6025,0.6103,0.6103,0.6183,0.6338,0.6338,0.6338,0.6345,0.6318,0.0,0.0,0.0,0.0,0.6943,0.6814,0.6949,0.7112,0.6997,0.7138,0.7665,0.8886,0.9923,1.0611,1.0869,1.1638,1.2328,1.2589,1.3379,1.3995,1.3701,1.3407,1.3106,1.2876,1.2641,1.2519,1.2519,1.4235,1.5446,1.5446,1.6941,1.8008,1.8008,1.8008,1.8008,1.8008,1.8008,1.8008,1.8008,1.8008,1.8008,1.8008,1.8144,1.8202,1.8202,1.8395,1.8787,1.9552,1.972,1.9852,2.0005,1.8978,1.8638,1.885,1.9603,2.0194,2.059,2.0782,2.0846,2.0892,2.1598,2.1858,2.2027,2.3764,2.3963,2.3491,0.0,0.0,0.0,0.0,0.0,0.0,0.0,0.0,0.0,0.0,0.4726,0.4657,0.0,0.0,0.0,0.0,0.0,0.0,0.3343,0.0,0.0,0.454,0.4618,0.4929,0.5398,0.4929,0.5165,0.6338,0.5712,0.5864,0.6718,0.6718,0.6641,0.6567,0.649,0.649,0.6335,0.5709,0.5398,0.5398,0.4851,0.4929,0.5398,0.5398,0.5789,0.6338,0.6338,0.6338,0.6298,0.6556,0.6654,0.0,0.0,0.0,0.7109,0.7088,0.7109,0.7136,0.7115,0.7826,0.8973,1.0096,1.0524,1.0864,1.1809,1.2151,1.2589,1.3646,1.3997,1.3995,1.3701,1.3407,1.3106,1.2876,1.323,1.3528,1.3528,1.5226,1.6419,1.6419,1.7354,1.8008,1.8008,1.8008,1.8008,1.8008,1.8008,1.8008,1.8008,1.8008,1.8008,1.8008,1.8721,1.911,1.911,1.9879,2.0333,2.0386,2.0035,1.9369,1.8588,1.8425,1.8855,1.9716,1.984,2.0194,2.0655,2.1428,2.1753,2.1862,2.3118,2.3666,2.374,2.4489,2.495,2.5145,0.0,0.0,0.0,0.0,0.0,0.0,0.0,0.0,0.0,0.0,0.0,0.3138,0.0,0.0,0.0,0.2313,0.2336,0.235,0.2116,0.2584,0.2976,0.3134,0.3756,0.4224,0.4457,0.4222,0.4302,0.4924,0.4375,0.4219,0.453,0.453,0.5157,0.6261,0.587,0.5712,0.5712,0.5087,0.4774,0.4774,0.454,0.4774,0.5321,0.5321,0.5712,0.6338,0.6338,0.6338,0.6291,0.6502,0.663,0.6722,0.6854,0.0,0.0,0.0,0.7078,0.7228,0.7929,0.9401,1.095,1.1466,1.2077,1.2693,1.3209,1.3294,1.347,1.3997,1.4088,1.3948,1.3487,1.3677,1.3804,1.3383,1.398,1.4522,1.4522,1.572,1.6636,1.6636,1.7432,1.8008,1.8008,1.8008,1.8008,1.8008,1.8008,1.8008,1.8008,1.8008,1.8008,1.8008,1.8395,1.8787,1.9299,1.9694,2.0056,2.0361,1.9853,1.8999,1.7902,1.7902,1.8293,1.9033,1.9313,1.9717,2.0124,2.0859,2.1164,2.1262,2.1875,2.1829,2.1491,2.2545,2.2712,2.2411,0.0,0.0,0.0,0.0,0.0,0.0,0.0,0.0,0.0,0.0,0.0,0.0,0.0,0.0,0.0,0.0,0.0706,0.0628,0.0628,0.1097,0.1411,0.1724,0.2503,0.3049,0.3365,0.3209,0.3285,0.3595,0.3125,0.2969,0.3124,0.3124,0.3982,0.5473,0.5002,0.4768,0.4691,0.407,0.3915,0.3992,0.3992,0.446,0.509,0.5274,0.5761,0.6318,0.6359,0.6373,0.6393,0.6539,0.6664,0.6759,0.6759,0.6936,0.0,0.0,0.0,0.813,0.9392,1.0995,1.233,1.2656,1.347,1.4088,1.4088,1.4088,1.4088,1.4088,1.4328,1.4331,1.3801,1.4173,1.4537,1.4248,1.5007,1.5587,1.5587,1.6358,1.6922,1.6922,1.7569,1.8008,1.8008,1.8008,1.8008,1.8008,1.8008,1.8008,1.8008,1.8008,1.8008,1.8008,1.8202,1.8664,1.9299,1.9369,1.9596,1.9738,1.9352,1.8619,1.7578,1.7578,1.7779,1.8159,1.8298,1.8603,1.9187,1.9799,2.0158,2.0268,2.0526,2.0204,1.9736,2.0808,2.0817,2.0403,0.0,0.0,0.0,0.0,0.0,0.0,0.0,0.0,0.0,0.0,0.0,0.0,0.1335,0.0705,0.0156,-0.0157,-0.0784,-0.1176,-0.1176,-0.1097,-0.0627,0.0392,0.047,0.0,0.2273,0.1727,0.1959,0.3124,0.2506,0.2506,0.3124,0.3124,0.3124,0.3279,0.3202,0.3202,0.3202,0.2584,0.2507,0.2895,0.2895,0.3521,0.455,0.5206,0.5894,0.6481,0.6624,0.6678,0.6702,0.6854,0.6909,0.6915,0.6915,0.7021,0.7285,0.0,0.0,0.0,1.1747,1.1977,1.2278,1.3665,1.4082,1.4088,1.4088,1.4088,1.4088,1.4088,1.4894,1.5517,1.5255,1.4862,1.4835,1.5577,1.6165,1.6498,1.6498,1.7364,1.794,1.794,1.794,1.8008,1.8008,1.8008,1.8008,1.8008,1.8008,1.8008,1.8008,1.8008,1.8008,1.8008,1.8787,1.9233,1.9299,1.9679,1.9452,1.8612,1.8578,1.8182,1.7578,1.7578,1.7589,1.7579,1.6652,1.677,1.757,1.8392,1.8965,1.9431,2.0268,2.059,2.0526,2.0613,2.0941,2.1266,0.0,0.0,0.0,0.0,0.0,0.0,0.0,0.0,0.0,0.0,0.0,0.0,0.0,-0.0549,-0.1175,-0.1332,-0.1568,-0.1646,-0.1646,-0.1646,-0.1333,-0.0471,-0.0235,0.0313,0.1177,0.0942,0.1099,0.1488,0.102,0.0863,0.1096,0.1096,0.1096,0.1175,0.2115,0.2506,0.2506,0.1883,0.1727,0.1885,0.2629,0.3443,0.4252,0.533,0.6122,0.6627,0.6681,0.6702,0.6722,0.6878,0.6929,0.6929,0.6929,0.7541,0.8436,0.9574,1.066,1.1578,1.1931,1.2527,1.3117,1.3459,1.3667,1.3801,1.3801,1.3948,1.4334,1.4977,1.5455,1.607,1.7401,1.7046,1.6589,1.6727,1.7128,1.7501,1.7501,1.7794,1.8008,1.8008,1.8008,1.8008,1.8008,1.8008,1.8008,1.8008,1.8008,1.8008,1.8008,1.8008,1.8008,1.8008,1.8269,1.8578,1.8858,1.9434,1.9321,1.8509,1.8617,1.8034,1.6866,1.6866,1.6641,1.614,1.5801,1.6718,1.8558,1.916,1.9701,2.0139,2.0462,2.0268,1.9748,1.9749,1.9921,1.9983,0.0,0.0,0.0,0.0,0.0,0.0,0.0,0.0,0.0,0.0785,0.0,0.0,0.0,0.0,-0.2273,-0.2508,-0.2508,-0.2508,-0.2508,-0.2508,-0.2117,-0.1256,-0.0941,-0.047,0.0393,0.0393,0.0393,0.0393,0.0157,0.0,0.0,0.0,0.0,0.0078,0.1016,0.149,0.1412,0.1021,0.0943,0.118,0.2572,0.3324,0.3822,0.5529,0.627,0.6444,0.6746,0.6848,0.6865,0.6966,0.7,0.6983,0.7218,0.8392,0.9798,1.0621,1.1678,1.2447,1.2453,1.2907,1.3347,1.3353,1.3501,1.3729,1.3884,1.4281,1.4903,1.5858,1.6432,1.7245,1.8709,1.8656,1.8295,1.7961,1.8066,1.8164,1.8027,1.8135,1.8223,1.8223,1.835,1.8379,1.8232,1.8223,1.8164,1.8018,1.8008,0.0,1.8008,1.8008,1.8008,1.8008,1.7871,1.7843,1.7953,1.8256,1.8123,1.7453,1.7556,1.7079,1.6151,1.6151,1.5864,1.541,1.541,1.6453,1.8126,1.8609,1.9093,1.9544,1.9695,1.9365,1.8844,1.8849,1.8849,1.8849,0.0,0.0,0.0,0.0,0.0,0.0,0.0,0.0,-0.0313,-0.0313,0.0,0.0,0.0,0.0,0.0,-0.3763,-0.3763,-0.3763,-0.3763,-0.3763,-0.3214,-0.196,-0.1882,-0.1333,-0.0079,0.0,0.0,0.0,0.0,0.0,0.0,0.0,0.0,0.0,0.0,0.0,0.0,0.0,0.0236,0.0786,0.265,0.3245,0.3182,0.5881,0.6503,0.5996,0.6825,0.7139,0.7139,0.7139,0.7139,0.726,0.8038,0.9662,1.1271,1.15,1.2198,1.2983,0.0,0.0,0.0,1.3467,1.3714,1.3967,1.4484,1.5207,1.5992,1.6607,1.7926,1.9,1.9,1.9476,1.9756,1.9336,1.8916,1.8486,1.8066,1.8359,1.8623,1.8562,1.9014,1.9102,1.8691,1.8643,1.8467,1.8057,1.8018,1.8008,1.8008,1.8008,1.8008,1.8008,1.7588,1.7158,1.6675,1.6341,1.589,1.541,1.541,1.541,1.541,1.541,1.541,1.541,1.541,1.5654,1.6135,1.6543,1.6982,1.7402,1.7842,1.7998,1.7988,1.8008,1.8008,1.8105,0.0,0.0,0.0,0.0,0.0,0.0,-0.047,-0.1097,-0.1489,0.0,0.0,0.0,-0.2589,-0.3137,-0.3606,-0.3763,-0.3763,-0.3763,-0.3763,-0.3763,-0.345,-0.2589,-0.2117,-0.149,-0.0707,-0.0236,0.0,0.0,0.0,0.0,0.0,0.0,0.0,0.0,0.0,0.0,0.0,0.0,0.0078,0.0384,0.2598,0.3487,0.3671,0.6097,0.6906,0.6819,0.7037,0.7139,0.7139,0.7139,0.7139,0.7365,0.9105,1.0757,1.2123,1.2561,1.3198,1.3614,1.3126,0.0,0.0,0.0,0.0,0.0,1.5158,1.5675,1.6239,1.7249,1.7801,1.8336,1.9098,1.9383,1.9316,1.8887,1.8711,1.8486,1.8066,1.8115,1.8291,1.8603,1.874,1.8896,1.9092,1.8818,1.8523,0.0,1.8184,1.8008,1.8008,1.8008,1.8008,1.8008,1.7295,1.6855,1.6665,1.6507,1.6052,1.541,1.5921,1.5921,1.541,1.541,1.541,1.541,1.541,1.5478,1.5654,1.6416,1.6807,1.6982,1.7725,1.7841,1.7612,1.7861,1.8008,1.8095,0.0,0.0,0.0,0.0,0.0,-0.094,-0.1489,-0.196,-0.2275,0.0,0.0,0.0,-0.3215,-0.3528,-0.3763,-0.3763,-0.3763,-0.3763,-0.3763,-0.3763,-0.3528,-0.2826,-0.2196,-0.1568,-0.0943,-0.0314,0.0,0.0,0.0,0.0,0.0,0.0,0.0,0.0,0.0,0.0,0.0,0.0,0.0,0.0228,0.261,0.3437,0.3453,0.606,0.6962,0.67,0.6962,0.7139,0.7139,0.7139,0.7705,0.8562,0.9628,1.1227,1.2669,1.2765,1.316,1.344,1.3046,1.31,1.3437,1.4212,0.0,0.0,1.6043,1.653,1.6981,1.7898,1.8257,1.8535,1.9214,1.9287,1.915,1.8711,1.8562,1.8486,1.8066,1.832,1.8633,1.8877,1.9219,1.9463,1.9541,1.916,1.8828,1.8582,1.8252,1.8008,1.8008,1.8008,1.8008,1.8008,1.7178,1.6665,1.6665,1.6267,1.5806,1.541,1.5864,1.5816,1.541,1.541,1.541,1.541,1.541,1.541,1.5459,1.6162,1.6562,1.6743,1.748,1.7733,1.7654,1.7891,1.8008,1.8105,0.0,0.0,-0.0304,-0.1327,-0.1489,-0.1646,-0.2038,-0.2588,-0.2904,0.0,-0.345,-0.3763,-0.3763,-0.3763,-0.3763,-0.3763,-0.3763,-0.3763,-0.3763,-0.3763,-0.3528,-0.2904,-0.2275,-0.1647,-0.1021,-0.0314,0.0,0.0,0.0,0.0,0.0,0.0,0.0,0.0,0.0,0.0,0.0,0.0,0.0077,0.0382,0.2606,0.3178,0.3031,0.5869,0.6684,0.626,0.6874,0.7139,0.7139,0.7228,0.8599,1.0198,0.9973,1.1456,1.3146,1.2572,1.2612,1.2893,1.3106,1.3104,1.3452,1.4986,1.5227,0.0,1.7036,1.7583,1.7991,1.8424,1.8877,1.915,1.915,1.915,1.9014,1.8623,1.8494,1.8437,1.8057,1.8711,1.9238,1.9277,1.9961,2.0293,1.9951,1.9492,1.9053,1.8592,1.8252,1.8008,1.8008,1.8008,1.8008,1.8008,1.7178,1.6665,1.6665,1.5859,1.541,1.541,1.541,1.541,1.541,1.541,1.541,1.541,1.541,1.541,1.5439,1.583,1.6221,1.6641,1.7158,1.7568,1.7881,1.7978,1.8008,1.8105,0.0,-0.0978,-0.1294,-0.2343,-0.2511,-0.2744,-0.337,-0.3528,-0.3606,-0.3606,-0.3684,-0.3763,-0.3763,-0.3763,-0.3763,-0.3763,-0.3763,-0.3763,-0.3763,-0.3763,-0.3763,-0.3606,-0.2508,-0.1803,-0.1725,-0.0549,0.0,0.0,0.0,0.0,0.0,0.0,0.0,0.0,0.0,0.0,0.0,0.0,0.0538,0.1484,0.2336,0.3133,0.403,0.5606,0.6514,0.6966,0.7051,0.7139,0.7228,0.8189,0.9465,1.0595,1.1283,1.238,1.3487,1.314,1.324,1.3373,1.2953,1.4008,1.5255,1.5643,1.6404,0.0,1.8133,1.816,1.7988,1.8066,1.8203,1.8262,1.8262,1.8262,1.8232,1.8144,1.8135,1.8105,1.8018,1.8447,1.8896,1.9248,1.9434,1.9639,1.9893,1.9219,1.873,1.8643,1.8252,1.8008,1.8008,1.8008,1.8008,1.8008,1.7178,1.6665,1.6665,1.5859,1.541,1.541,1.541,1.541,1.541,1.541,1.541,1.541,1.541,1.541,1.542,1.5508,1.5586,1.5771,1.6963,1.7203,1.7061,1.7754,1.8008,1.8095,-0.1845,-0.2043,-0.2318,-0.313,-0.3294,-0.345,-0.3763,-0.3763,-0.3763,-0.3763,-0.3763,-0.3763,-0.3763,-0.3763,-0.3763,-0.3763,-0.3763,-0.3763,-0.3763,-0.3763,-0.3763,-0.3763,-0.2586,-0.1882,-0.1882,-0.0628,0.0,0.0,0.0,0.0,0.0,0.0,0.0308,0.077,0.0457,0.0454,0.0757,0.069,0.1009,0.1653,0.2604,0.3756,0.4947,0.6103,0.6812,0.7139,0.7139,0.7139,0.7316,0.8452,0.9597,1.0598,1.1566,1.2706,1.3554,1.3113,1.3293,1.3514,1.3138,1.4102,1.5329,1.6104,1.6798,0.0,0.0,1.8311,1.8008,1.8008,1.8008,1.8008,1.8008,1.8008,1.8008,1.8008,1.8008,1.8076,1.8212,1.8438,1.8721,1.8936,1.916,1.9375,1.958,1.9014,1.8555,1.834,1.8125,1.8008,1.8008,1.8008,1.8008,1.8008,1.7178,1.6665,1.6665,1.5859,1.541,1.541,1.541,1.541,1.541,1.541,1.541,1.541,1.541,1.541,1.541,1.541,1.541,1.5508,1.6621,1.7066,1.7156,1.7765,1.8008,1.8095,-0.2783,-0.288,-0.312,-0.3682,-0.3763,-0.3763,-0.3763,-0.3763,-0.3763,-0.3763,-0.3698,-0.363,-0.363,-0.3488,-0.3418,-0.3418,-0.3418,-0.3489,-0.363,-0.3473,-0.3473,-0.363,-0.2358,-0.1729,-0.1736,-0.0551,0.0,0.0,0.0,0.0079,0.0079,0.0,0.0549,0.149,0.1025,0.1103,0.1568,0.1498,0.1664,0.1994,0.3222,0.4223,0.5225,0.6213,0.6721,0.6926,0.7041,0.7139,0.7309,0.8586,0.9501,1.0444,1.164,1.2713,1.3467,1.2979,1.318,1.3521,1.3355,1.4096,1.5234,0.0,0.0,1.7548,0.0,0.0,0.0,1.8008,1.8008,1.8008,1.8008,1.8008,1.8008,1.8008,1.8076,1.8174,1.8357,1.8508,1.8633,1.8773,1.9017,1.9232,1.9232,1.8769,1.8379,1.8037,1.8008,1.8008,1.8008,1.8008,1.8008,1.8008,1.7266,1.6816,1.6665,1.5937,1.5498,1.541,1.541,1.541,1.541,1.541,1.541,1.541,1.541,1.541,1.541,1.541,1.541,1.5469,1.6257,1.687,1.7341,1.7697,1.792,1.8095,-0.3446,-0.3477,-0.3591,-0.3748,-0.3763,-0.3763,-0.3763,-0.3763,-0.3763,-0.3763,-0.3271,-0.2908,-0.2908,-0.247,-0.2085,-0.2085,-0.2085,-0.2314,-0.2913,-0.2426,-0.2345,-0.2908,-0.1666,-0.103,-0.1051,-0.0317,0.0,0.0,0.0,0.0157,0.055,0.0157,0.0471,0.1337,0.1602,0.1518,0.1337,0.2003,0.2858,0.3906,0.4093,0.4064,0.4018,0.4772,0.5469,0.6186,0.6832,0.7139,0.7295,0.0,0.9639,1.0418,1.1849,1.2683,1.3247,1.318,1.3206,1.3265,1.33,1.4615,0.0,0.0,1.7432,0.0,1.8562,0.0,1.8008,1.8008,0.0,1.8008,1.8008,0.0,0.0,1.8008,1.832,1.8437,1.8125,1.8369,1.8844,1.953,1.9023,1.8852,1.9153,1.8547,1.8057,1.8018,1.8008,1.8008,1.8008,1.8008,1.8008,1.8008,1.7549,1.7119,1.6675,1.624,1.5791,1.541,1.541,1.541,1.541,1.541,1.541,1.541,1.541,1.541,1.541,1.541,1.541,1.543,1.5968,1.6406,1.6815,1.7293,1.7658,1.8095,-0.3546,-0.3636,-0.3718,-0.3756,-0.3763,-0.3763,-0.3763,-0.3808,-0.3842,-0.3842,-0.3632,-0.3426,-0.3474,-0.322,-0.2899,-0.26,-0.2519,-0.2676,-0.2898,-0.2319,-0.2236,-0.2896,-0.162,-0.0884,-0.0893,-0.0318,0.0,0.0,0.0236,0.0471,0.0628,0.0707,0.1256,0.2196,0.2408,0.2662,0.2882,0.352,0.371,0.3538,0.4248,0.4218,0.3918,0.5554,0.6381,0.6695,0.6937,0.7068,0.7379,0.0,0.9868,0.0,0.0,1.2923,1.2946,1.2946,1.3066,1.3335,1.3724,0.0,0.0,0.0,0.0,0.0,1.8123,0.0,1.8008,0.0,0.0,0.0,0.0,0.0,0.0,0.0,1.8154,1.8282,1.8309,1.8301,1.834,1.8674,1.8478,0.0,1.8488,1.8409,1.8271,1.8027,1.8242,1.8271,1.8018,1.8008,1.8008,1.8008,1.7598,1.7178,1.6675,1.6289,1.584,1.541,1.541,1.541,1.541,1.541,1.541,1.541,1.541,1.541,1.541,1.541,1.541,1.542,1.5644,1.6118,1.6789,1.751,1.7842,1.8018,-0.3534,-0.3638,-0.3734,-0.3759,-0.3763,-0.3771,-0.3797,-0.3857,-0.391,-0.3934,-0.3792,-0.3663,-0.3725,-0.3362,-0.2941,-0.2476,-0.2309,-0.2218,-0.2373,-0.1781,-0.1696,-0.2373,-0.1327,-0.0656,-0.0656,-0.0241,0.0,0.0,0.0393,0.0629,0.0786,0.1178,0.1804,0.2743,0.289,0.3325,0.3978,0.4566,0.4417,0.3888,0.4789,0.4962,0.4775,0.6279,0.6929,0.7122,0.698,0.6997,0.7313,0.9117,0.975,0.0,1.2029,1.2782,1.2808,1.2728,1.2846,1.327,1.4106,0.0,0.0,0.0,0.0,0.0,0.0,0.0,0.0,0.0,0.0,0.0,0.0,0.0,1.8008,1.8008,0.0,1.8213,1.8357,1.8242,1.8203,1.8289,1.832,0.0,0.0,1.8633,1.8643,1.8213,1.8467,1.8457,1.8037,1.8008,1.8008,1.8008,1.7715,1.7295,1.6738,1.6406,1.5967,1.541,1.541,1.541,1.541,1.541,1.541,1.541,1.541,1.541,1.541,1.541,1.541,1.541,1.5566,1.6045,1.6763,1.7383,1.7823,1.8018,-0.3622,-0.3626,-0.3658,-0.3746,-0.3763,-0.3793,-0.3881,-0.3897,-0.393,-0.402,-0.3505,-0.3118,-0.3122,-0.1943,-0.1163,-0.1164,-0.0538,-0.0355,-0.0956,-0.0434,-0.0348,-0.0954,-0.034,0.0,0.0,0.0,0.0,0.0,0.0393,0.0864,0.1257,0.1257,0.1727,0.2512,0.2892,0.3246,0.3741,0.4486,0.5257,0.5878,0.5969,0.6387,0.6929,0.0,0.6496,0.7122,0.698,0.0,0.0,0.8277,0.9006,0.0,0.0,0.0,0.0,0.0,0.0,0.0,0.0,0.0,0.0,1.6881,0.0,0.0,0.0,0.0,1.8008,0.0,0.0,0.0,0.0,1.8008,1.8008,1.8008,1.835,0.0,0.0,1.8359,1.8666,1.906,1.9127,1.9223,0.0,1.9258,1.9082,1.8652,1.8562,1.8457,1.8037,1.8008,1.8008,1.8008,1.7998,1.7588,1.6738,1.6719,1.6269,1.541,1.541,1.541,1.541,1.541,1.541,1.541,1.541,1.541,1.541,1.541,1.541,1.542,1.5888,1.6348,1.6683,1.6759,1.729,1.8095,-0.3716,-0.3716,-0.3726,-0.3759,-0.3763,-0.3814,-0.3967,-0.404,-0.3941,-0.35,-0.3227,-0.2966,-0.2566,-0.2028,-0.1502,-0.1165,-0.0897,-0.0805,-0.0976,-0.0355,-0.0267,-0.0976,-0.0348,0.0,0.0,0.0,0.0166,0.0494,0.0891,0.1286,0.1766,0.1976,0.2276,0.2514,0.3214,0.3844,0.4483,0.5262,0.5763,0.5978,0.5978,0.635,0.6907,0.0,0.6784,0.7066,0.7579,0.7355,0.0,0.9404,0.9849,0.9808,1.1484,1.2223,1.2432,1.2331,1.2371,0.0,0.0,0.0,1.4593,1.6367,0.0,0.0,0.0,0.0,0.0,0.0,0.0,0.0,0.0,1.8008,1.8008,1.8008,1.8125,1.8174,0.0,1.8135,1.834,1.8745,1.8765,1.8734,1.8457,0.0,1.8682,1.8252,1.8223,1.8154,1.8018,1.8008,1.8008,1.8008,1.8008,1.7734,1.7168,1.6875,1.6436,1.584,1.5547,1.541,1.541,1.541,1.541,1.541,1.541,1.541,1.541,1.541,1.541,1.542,1.5898,1.6359,1.6752,1.7033,1.7552,1.8018,-0.3763,-0.3789,-0.3801,-0.3769,-0.3816,-0.392,-0.4102,-0.4179,-0.3984,-0.3345,-0.3203,-0.2912,-0.2235,-0.186,-0.1503,-0.1165,-0.0897,-0.0808,-0.1076,-0.0449,-0.0359,-0.1076,-0.0355,0.0,0.0,0.0,0.0254,0.0666,0.1066,0.1539,0.2005,0.237,0.2511,0.2512,0.3028,0.3832,0.4863,0.536,0.5872,0.639,0.639,0.6653,0.7,0.0,0.6895,0.6912,0.0,0.7748,0.7558,1.0113,1.0494,1.0237,1.1832,1.2305,1.2305,1.2305,1.2305,1.2519,1.3455,1.3954,0.0,1.621,1.6853,0.0,1.7862,0.0,1.8008,0.0,0.0,0.0,0.0,1.8008,1.8008,1.8008,1.8008,1.8008,0.0,1.8008,1.8115,1.8379,1.8545,1.8594,1.8477,1.8711,1.8691,1.8271,1.8232,1.8164,1.8018,0.0,1.8008,1.8008,1.8008,1.7812,1.7393,1.6953,1.6514,1.6115,1.5615,1.541,1.541,1.541,1.541,1.541,1.541,1.541,1.541,1.541,1.541,1.542,1.5898,1.6335,1.6789,1.7224,1.7648,1.8008,-0.3841,-0.3846,-0.3893,-0.381,-0.3932,-0.4104,-0.4285,-0.4306,-0.4064,-0.3417,-0.3181,-0.2868,-0.215,-0.1434,-0.1076,-0.1076,-0.0449,-0.0269,-0.0987,-0.0359,-0.0269,-0.0987,-0.0359,0.0,0.0,0.0,0.0171,0.0654,0.1061,0.1531,0.1967,0.2356,0.2511,0.2511,0.2511,0.3378,0.4775,0.4775,0.5667,0.7139,0.7139,0.7136,0.7112,0.697,0.682,0.6833,0.7713,0.804,0.8317,1.0187,1.0858,1.1013,1.1996,1.2305,1.2305,1.2305,1.2305,1.2519,1.3382,1.4378,1.5376,1.621,0.0,0.0,0.0,0.0,1.8008,0.0,0.0,0.0,0.0,0.0,1.8008,1.8008,1.8008,1.8008,1.8008,1.8008,1.8008,1.8008,1.835,1.874,1.918,1.9209,1.9033,1.8562,1.8494,1.8389,1.8027,0.0,1.8008,1.8008,1.8008,1.7822,1.7422,1.6982,1.6543,1.6154,1.5654,1.543,1.541,1.541,1.541,1.541,1.541,1.541,1.541,1.541,1.541,1.542,1.5956,1.6387,1.6821,1.7274,1.7658,1.8008,-0.3843,-0.3997,-0.4122,-0.4255,-0.4193,-0.422,-0.4465,-0.393,-0.3269,-0.2729,-0.2108,-0.1345,-0.0628,-0.0359,-0.0269,-0.0269,-0.009,-0.009,-0.0269,-0.009,-0.009,-0.0269,-0.009,0.0,0.0,0.0,0.0355,0.1226,0.1271,0.1745,0.2478,0.2474,0.2511,0.2511,0.2511,0.3378,0.4775,0.4775,0.5667,0.7139,0.7139,0.7078,0.6966,0.0,0.6664,0.6764,0.8532,0.8581,0.83,1.0962,1.1391,1.1013,1.1996,1.2305,1.2305,1.2305,1.2305,1.2378,1.2586,1.3382,1.4171,1.4378,1.572,1.6922,0.0,0.0,0.0,0.0,0.0,0.0,0.0,0.0,0.0,1.8008,1.8008,1.8008,1.8008,1.8008,1.8008,1.8008,1.7832,1.7871,1.8291,1.8057,1.7959,1.8154,1.7578,1.7451,1.7978,0.0,0.0,1.8008,1.8008,1.7959,1.7852,1.7432,1.6992,1.6553,1.6103,1.5723,1.541,1.541,1.541,1.541,1.541,1.541,1.541,1.541,1.541,1.5488,1.627,1.701,1.7705,1.7833,1.792,1.8008,-0.4012,-0.418,-0.4322,-0.4534,-0.4164,-0.3941,-0.4073,-0.3953,-0.3469,-0.2566,-0.1946,-0.1364,-0.0637,-0.0181,0.0,0.0,0.0,-0.018,-0.0449,-0.018,-0.018,-0.0449,-0.018,0.0,0.0,0.0539,0.0982,0.1327,0.1794,0.2257,0.265,0.2794,0.2901,0.2901,0.3214,0.3993,0.5123,0.5563,0.6205,0.7054,0.7115,0.7054,0.0,0.6759,0.693,0.7327,0.8888,0.9014,0.8841,1.1397,1.1922,1.1545,1.215,1.2305,1.2305,1.2305,1.2305,1.2305,1.2305,1.3025,1.3673,1.3673,1.4871,1.607,1.6498,1.6991,1.7501,0.0,0.0,0.0,0.0,0.0,0.0,1.8008,1.8008,1.8008,1.8008,1.8008,1.8008,1.8008,1.7969,1.7949,1.8008,1.7461,1.7353,1.7959,1.7568,1.75,0.0,0.0,0.0,1.8018,1.8008,1.8008,1.8008,1.7598,1.7256,1.7012,1.6367,1.5928,1.5693,1.5498,1.541,1.541,1.541,1.541,1.541,1.541,1.541,1.5469,1.6337,1.7159,1.7745,1.793,1.8008,1.8008,-0.425,-0.4328,-0.4472,-0.4702,-0.3973,-0.3439,-0.3331,-0.3856,-0.3773,-0.2376,-0.2143,-0.1749,-0.1106,-0.0454,0.0,0.0,0.0,-0.0269,-0.0897,-0.0359,-0.0269,-0.0893,-0.0358,0.0089,0.0178,0.1244,0.1675,0.1563,0.2539,0.2902,0.2773,0.3175,0.3446,0.3524,0.4151,0.4841,0.5624,0.6551,0.6939,0.6966,0.7068,0.7037,0.6909,0.6902,0.7307,0.8098,0.9143,0.9523,0.975,1.17,1.2305,1.2305,1.2305,1.2305,1.2305,1.2305,1.2305,1.2305,1.2305,1.2879,1.3528,1.3528,1.4243,1.5234,1.6,1.6349,1.6636,1.7442,1.7647,1.7647,0.0,0.0,0.0,1.7794,1.7794,1.7794,0.0,1.794,1.8008,1.8008,1.833,0.0,1.8047,1.7334,1.7207,1.7949,1.7959,1.7949,0.0,0.0,0.0,1.8018,1.8008,1.8008,1.8008,0.0,1.7441,1.7373,1.6602,1.6262,1.6133,1.5693,1.5498,1.5498,1.5439,1.541,1.541,1.541,1.5488,1.5645,1.6441,1.7074,1.7552,1.7842,1.8008,1.8008,-0.4526,-0.4616,-0.468,-0.4808,-0.4146,-0.3297,-0.2672,-0.2073,-0.168,-0.1396,-0.0823,-0.0361,-0.0181,-0.009,0.0,0.0,0.0,0.0,-0.018,-0.009,0.0,-0.0175,-0.0088,0.0434,0.1274,0.1527,0.1966,0.0,0.0,0.3043,0.3421,0.3438,0.368,0.4229,0.4384,0.4888,0.5838,0.6593,0.0,0.7095,0.7004,0.6953,0.698,0.7585,0.7836,0.8256,0.9889,1.0565,1.0714,1.1922,1.2305,1.2305,1.2305,1.2305,1.2305,1.2305,1.2305,1.2305,1.2305,1.2445,1.2519,1.2519,1.3237,1.4027,1.4163,1.4879,1.5517,1.5658,1.5658,1.5658,1.5658,0.0,0.0,0.0,0.0,0.0,0.0,1.7501,1.8008,1.8008,1.8076,1.8086,1.8018,1.7871,1.7852,1.7998,1.7686,0.0,0.0,0.0,0.0,0.0,1.8008,0.0,0.0,0.0,1.7725,1.7383,1.7227,1.6963,1.6602,1.6152,1.5947,1.5988,1.5566,1.541,1.541,1.541,1.581,1.6537,1.7051,1.7541,1.792,1.7998,1.8008,1.8008,-0.3516,-0.3527,-0.3527,-0.3527,-0.2879,-0.224,0.0,-0.1031,-0.0648,-0.111,-0.0826,-0.0636,-0.0629,-0.0267,0.0,0.0,0.0,0.0,0.0,0.0,0.0,0.0,0.0513,0.1103,0.1593,0.2763,0.322,0.3036,0.0,0.3735,0.361,0.3893,0.4279,0.4854,0.5308,0.5722,0.6185,0.0,0.0,0.7024,0.6956,0.7133,0.7609,0.7914,0.8608,0.9576,1.0449,1.1162,1.162,1.215,1.2305,1.2305,1.2305,1.2305,1.2305,1.2305,1.2305,1.2305,1.2305,1.2305,1.2305,1.2305,1.2659,1.3098,1.36,1.4099,1.4593,1.5092,1.5234,1.5234,1.5234,1.5305,0.0,0.0,0.0,0.0,0.0,0.0,1.707,1.6585,1.7344,1.7748,1.7304,1.7432,1.7533,1.7648,1.7695,0.0,0.0,0.0,0.0,0.0,0.0,0.0,0.0,0.0,0.0,1.7705,1.749,1.7275,1.7051,1.6611,1.6406,1.6396,1.6191,1.6094,1.6094,1.6094,1.6184,1.6435,1.7164,1.75,1.7736,1.792,1.8115,1.8281,-0.2522,-0.2422,-0.2418,-0.2408,-0.1778,-0.1164,-0.1236,-0.0559,-0.0184,-0.0828,-0.0916,-0.0908,-0.0982,-0.035,0.0,0.0,0.0,0.0,0.0,0.0,0.0084,0.0334,0.1167,0.1827,0.2229,0.3963,0.4428,0.0,0.0,0.0,0.0,0.4531,0.5079,0.5602,0.0,0.0,0.0,0.0,0.6946,0.697,0.7073,0.7552,0.8221,0.8467,0.9504,1.0858,1.1013,1.162,1.2305,1.2305,1.2305,1.2305,1.2305,1.2305,1.2305,1.2305,1.2305,1.2305,1.2305,1.2305,1.2305,1.2305,1.2305,1.2519,1.3237,1.3382,1.3593,1.445,1.4593,1.4665,1.4807,1.495,0.0,0.0,0.0,0.0,0.0,0.0,1.6009,1.5305,1.6714,1.7438,1.6564,1.7053,1.737,1.6977,1.7514,0.0,1.7539,0.0,0.0,0.0,0.0,1.8008,1.8008,0.0,1.8008,1.8008,1.7676,1.7519,1.75,1.707,1.6865,1.6865,1.6714,1.6665,1.6738,1.6836,1.6679,1.6431,1.7224,1.7517,1.7571,1.8008,1.83,1.8604,-0.2422,-0.2422,-0.2408,-0.2366,-0.1743,-0.1235,-0.121,-0.0548,0.0,-0.009,-0.0089,-0.0087,-0.0087,-0.0086,0.0,0.0,0.0,0.0,0.0,0.0,0.0417,0.1387,0.1548,0.2497,0.4406,0.4641,0.4857,0.0,0.0,0.5415,0.0,0.0,0.0,0.0,0.0,0.0,0.0,0.6858,0.7004,0.7183,0.7827,0.8102,0.8371,0.993,1.0651,1.0938,1.1842,1.2224,1.2305,1.2305,1.2305,1.2305,1.2305,1.2305,1.2305,1.2305,1.2305,1.2305,1.2305,1.2305,1.2305,1.2305,1.2305,1.2298,1.2445,1.2445,1.2445,1.2519,1.2592,1.2806,1.3665,1.3164,1.2879,0.0,0.0,0.0,0.0,0.0,1.5305,1.5234,1.6817,1.7352,1.6066,1.7854,1.8104,1.5696,1.6575,0.0,0.0,0.0,0.0,1.8008,0.0,1.8008,1.8008,1.8008,1.8008,1.8008,1.7969,1.7949,1.7939,1.751,1.7324,1.7305,1.6904,1.6665,1.6758,1.7158,1.7321,1.7337,1.7782,1.7939,1.8008,1.8388,1.8564,1.8685,-0.1091,0.0,0.0,0.0,0.0,0.0,0.0,0.0899,0.1319,0.1933,0.0874,0.0,0.0,0.0,0.0,0.0,0.0,0.0,0.0,0.0565,0.1125,0.1591,0.2777,0.3868,0.4688,0.5315,0.5541,0.0,0.0,0.0,0.0,0.0,0.0,0.0,0.0,0.7253,0.7926,0.8018,0.8558,0.9191,0.9216,0.9619,1.022,1.0678,1.1162,1.1768,1.215,1.2305,1.2305,1.2305,1.2305,1.2305,1.2305,1.2305,1.2271,1.2091,1.2044,1.2004,1.1824,1.1904,1.2044,1.2044,1.2171,1.2305,1.2305,1.2305,1.2305,1.2305,1.2305,1.2445,1.2806,1.2739,1.2673,0.0,0.0,0.0,0.0,0.0,1.4022,1.3327,1.4601,1.5163,1.416,1.5168,1.5564,0.0,0.0,0.0,0.0,0.0,0.0,1.8769,0.0,1.8135,1.8389,1.8135,1.8008,1.8008,1.8008,1.8008,1.8008,1.7832,1.7764,1.7744,1.7578,1.7353,1.7158,1.7588,1.7603,1.7422,1.7821,1.8008,1.8018,1.8193,1.8562,1.9049,0.0387,0.0,0.1041,0.0,0.177,0.2301,0.2288,0.2306,0.2512,0.3291,0.1973,0.0932,0.0917,0.0897,0.0878,0.0942,0.094,0.094,0.094,0.1644,0.2192,0.2504,0.3908,0.0,0.5207,0.6002,0.6156,0.5813,0.5942,0.0,0.0,0.0,0.0,0.0,0.7215,0.7901,0.8704,0.9238,0.9836,1.057,1.0449,1.0831,1.1511,1.1292,1.1694,1.2305,1.2305,1.2305,1.2305,1.2305,1.2305,1.2305,1.2305,1.2305,1.2245,1.1957,1.187,1.1824,1.1617,1.171,1.1891,1.1977,1.2151,1.2305,1.2305,1.2305,1.2305,1.2305,1.2305,1.2305,1.2305,1.2526,1.2599,1.2378,0.0,0.0,0.0,1.2879,0.0,1.2089,1.3199,1.373,1.3029,1.3734,1.4299,0.0,0.0,0.0,0.0,0.0,0.0,0.0,0.0,0.0,0.0,1.8154,1.8008,1.8008,1.8008,1.8008,1.8008,1.8008,1.8008,1.8008,1.8008,1.7842,1.7588,1.7891,1.7839,1.7611,1.787,1.8008,1.8008,1.8115,1.8669,1.9287,0.1782,0.2707,0.3539,0.3598,0.3592,0.3565,0.3583,0.3423,0.3378,0.3291,0.3165,0.3076,0.3076,0.3091,0.3047,0.3046,0.3046,0.3046,0.3046,0.3046,0.3591,0.0,0.0,0.5291,0.6464,0.6471,0.6542,0.6698,0.0,0.0,0.6929,0.0,0.697,0.6929,0.8285,0.8784,0.8789,1.0005,1.0611,1.0656,1.128,1.1484,1.1591,1.2061,1.2298,1.2305,1.2305,1.2305,1.2305,1.2305,1.2305,1.2305,1.2305,1.2305,1.2245,1.1957,1.187,1.187,1.1864,1.1864,1.1937,1.2225,1.2298,1.2305,1.2305,1.2305,1.2305,1.2305,1.2305,1.2305,1.2305,1.2305,1.2305,1.2305,0.0,0.0,0.0,1.2305,0.0,1.2298,1.351,1.4043,1.3186,1.4697,1.5386,0.0,0.0,0.0,0.0,0.0,0.0,1.8037,1.8018,0.0,1.8018,1.8008,1.8008,1.8008,1.8008,1.8008,1.8008,1.8008,1.8008,1.8008,1.8008,1.8008,1.8008,1.8008,1.8008,1.7998,1.8008,1.8008,1.8027,1.8466,1.8859,1.939,0.3056,0.329,0.3619,0.3609,0.4238,0.4858,0.4825,0.4823,0.4991,0.551,0.4866,0.4586,0.5227,0.4001,0.3124,0.0,0.3124,0.3124,0.0,0.3748,0.4373,0.4686,0.5395,0.5964,0.6329,0.6424,0.6498,0.6546,0.0,0.0,0.0,0.7075,0.7494,0.811,0.8636,0.9712,1.1176,1.1433,1.1908,1.2628,1.2482,1.2408,1.237,1.2296,1.2305,1.2305,1.2305,1.2305,1.2305,1.2305,1.2305,1.2305,1.2305,1.2305,1.2245,1.1957,1.187,1.1824,1.1623,1.1717,1.1891,1.1984,1.2151,1.2305,1.2305,1.2305,1.2305,1.2305,1.2305,1.2305,1.2305,1.2305,1.2305,1.2305,1.2305,0.0,1.2305,0.0,1.2231,1.2031,1.2446,1.2485,1.2013,1.2799,0.0,0.0,0.0,0.0,0.0,0.0,0.0,0.0,1.8311,0.0,1.8437,1.8154,1.8008,1.8008,1.8008,1.8008,1.8008,1.8008,1.8008,1.8008,1.8008,1.8008,1.8008,1.8008,1.8008,1.8008,1.8008,1.8193,1.8378,1.8203,1.8839,1.9668,0.4272,0.4589,0.4905,0.4905,0.5534,0.6071,0.6071,0.5964,0.6181,0.6636,0.5994,0.5698,0.6278,0.5079,0.0,0.4295,0.4295,0.4295,0.4295,0.4924,0.5315,0.5315,0.5993,0.6339,0.6339,0.6539,0.0,0.6644,0.6888,0.7007,0.701,0.7534,0.813,0.8803,0.9614,1.0825,1.2169,1.2334,1.2806,1.344,1.2946,1.2822,1.2788,1.2418,1.2305,1.2305,1.2305,1.2305,1.2305,1.2305,1.2305,1.2305,1.2305,1.2305,1.2245,1.1957,1.187,1.183,1.1643,1.173,1.1897,1.2004,1.2171,1.2305,1.2305,1.2305,1.2305,1.2305,1.2305,1.2305,1.2305,1.2305,1.2305,1.2305,1.2305,1.2305,1.2305,0.0,1.2231,0.0,0.0,0.0,0.0,1.2084,1.2371,0.0,0.0,0.0,0.0,0.0,0.0,1.8809,1.8437,0.0,1.8398,1.8144,1.8008,1.8008,1.8008,1.8008,1.8008,1.8008,1.8008,1.8008,1.8008,1.8008,1.8008,1.8008,1.8008,1.8018,1.8193,1.8378,1.8556,1.854,1.9114,1.9858,0.5515,0.6413,0.7139,0.0,0.7139,0.0,0.7139,0.7027,0.6888,0.6736,0.6583,0.6437,0.6305,0.6274,0.6342,0.6274,0.0,0.0,0.0,0.6338,0.6338,0.6338,0.6396,0.6468,0.6458,0.6766,0.6932,0.6943,0.7075,0.7139,0.7139,0.8277,0.889,0.9144,1.0984,1.1881,1.2099,1.2833,1.32,1.3153,1.2839,1.2795,1.2761,1.2412,1.2305,1.2305,1.2305,1.2305,1.2305,1.2305,1.2305,1.2305,1.2305,1.2305,1.2245,1.1977,1.1897,1.1897,1.1897,1.1897,1.1964,1.2231,1.2305,1.2305,1.2305,1.2305,1.2305,1.2305,1.2305,1.2305,1.2305,1.2305,1.2305,1.2305,1.2305,1.2305,1.2305,0.0,1.2305,0.0,0.0,0.0,0.0,1.2305,1.2659,0.0,0.0,0.0,0.0,0.0,1.787,1.8008,1.8428,1.8437,1.8018,1.8008,1.8008,1.8008,1.8008,1.8008,1.8008,1.8008,1.8008,1.8008,1.8008,1.8008,1.8008,1.8008,1.8008,1.8018,1.8466,1.8604,1.8676,1.9146,1.9561,1.9934,0.0,0.0,0.7139,0.7139,0.7139,0.7139,0.7139,0.7112,0.7037,0.6895,0.6742,0.6634,0.66,0.6396,0.6305,0.6413,0.6322,0.6338,0.6338,0.6338,0.6338,0.6338,0.6396,0.642,0.6315,0.6715,0.6983,0.7092,0.7126,0.7139,0.7139,0.7404,0.8448,1.0178,1.0727,1.1798,1.3199,1.3167,1.3073,1.2909,1.2525,1.2405,1.2398,1.2325,1.2305,1.2305,1.2305,1.2305,1.2305,1.2305,1.2305,1.2305,1.2305,1.2305,1.2285,1.2218,1.2204,1.2204,1.2204,1.2204,1.2218,1.2285,1.2305,1.2305,1.2305,1.2305,1.2305,1.2305,1.2305,1.2305,1.2305,1.2305,1.2305,1.2305,1.2305,1.2305,1.2305,1.2305,0.0,0.0,1.2305,1.2305,1.2305,1.2305,1.2372,0.0,0.0,0.0,0.0,1.6561,1.7302,1.8426,1.8584,1.8437,1.8018,1.8008,1.8008,1.8008,1.8008,1.8008,1.8008,1.8008,1.8008,1.8008,1.8008,1.8008,1.8008,1.8008,1.8008,1.8018,1.8466,1.8795,1.9121,1.9259,1.9793,2.0411,0.7139,0.7139,0.7139,0.7139,0.7139,0.7139,0.7139,0.7139,0.7088,0.6949,0.6858,0.6753,0.661,0.6515,0.6464,0.6471,0.6342,0.6338,0.6338,0.6338,0.6288,0.6356,0.643,0.6437,0.6359,0.6664,0.6895,0.7044,0.7109,0.7278,0.7729,0.8408,0.9607,1.1223,1.1736,1.2533,1.3427,1.3126,1.2819,1.2525,1.2365,1.2305,1.2305,1.2305,1.2305,1.2305,1.2305,1.2305,1.2305,1.2305,1.2305,1.2305,1.2305,1.2305,1.2305,1.2305,1.2305,1.2305,1.2305,1.2305,1.2305,1.2305,1.2305,1.2305,1.2305,1.2305,1.2305,1.2305,1.2305,1.2305,1.2305,1.2305,1.2305,1.2305,1.2305,1.2305,1.2305,1.2305,0.0,1.2305,1.2305,1.2305,1.2305,1.2305,1.2305,1.2305,1.2864,0.0,1.5989,1.6893,1.7757,1.8582,1.8828,1.8633,1.8018,1.8008,1.8008,1.8008,1.8008,1.8008,1.8008,1.8008,1.8008,1.8008,1.8008,1.8008,1.8008,1.8008,1.8008,1.8047,1.8676,1.9061,1.9375,1.9736,2.0149,2.0557,0.7139,0.7139,0.7139,0.7139,0.7139,0.7139,0.7139,0.7139,0.7095,0.6976,0.6943,0.6837,0.66,0.6651,0.6658,0.6552,0.641,0.6329,0.6329,0.6305,0.6356,0.6502,0.6485,0.6471,0.6471,0.6781,0.7035,0.7218,0.7512,0.8028,0.8738,1.001,1.1107,1.2005,1.2902,1.3312,1.3186,1.2879,1.2579,1.2305,1.2305,1.2305,1.2305,1.2305,1.2305,1.2305,1.2305,1.2305,1.2305,1.2305,1.2305,1.2305,1.2305,1.2305,1.2305,1.2305,1.2305,1.2305,1.2305,1.2305,1.2305,1.2305,1.2305,1.2305,1.2305,1.2305,1.2305,1.2305,1.2305,1.2305,1.2305,1.2305,1.2305,1.2305,1.2305,1.2305,1.2305,0.0,1.2305,1.2305,1.2305,1.2305,1.2305,1.2305,1.2305,1.2305,1.3563,1.4914,1.6346,1.7693,1.8527,1.8776,1.9121,1.8877,1.8018,1.8008,1.8008,1.8008,1.8008,1.8008,1.8008,1.8008,1.8008,1.8008,1.8008,1.8008,1.8008,1.8008,1.8008,1.8066,1.8844,1.9249,1.9394,2.0234,2.0547,2.0566,0.7139,0.7139,0.7139,0.7139,0.7139,0.7139,0.7139,0.7139,0.7132,0.7109,0.7004,0.6956,0.7031,0.6837,0.6742,0.6848,0.6719,0.663,0.663,0.6512,0.6508,0.6658,0.6539,0.6471,0.6471,0.7585,0.8246,0.8591,0.9561,1.0159,1.0302,1.0509,1.1193,1.2257,1.2212,1.2563,1.3186,1.2879,1.2579,1.2305,1.2305,1.2305,1.2305,1.2305,1.2305,1.2305,1.2305,1.2305,1.2305,1.2305,1.2305,1.2305,1.2305,1.2305,1.2305,1.2305,1.2305,1.2305,1.2305,1.2305,1.2305,1.2305,1.2305,1.2305,1.2305,1.2305,1.2305,1.2305,1.2305,1.2305,1.2305,1.2305,1.2305,1.2305,1.2305,1.2305,1.2305,0.0,1.2305,1.2305,1.2305,1.2305,1.2305,1.2305,1.2305,1.2305,1.3214,1.4591,1.6338,1.7437,1.8499,1.9632,1.9443,1.8877,1.8018,1.8008,1.8008,1.8008,1.8008,1.8008,1.8008,1.8008,1.8008,1.8008,1.8008,1.8008,1.8008,1.8008,1.8008,1.8027,1.8487,1.8983,1.9385,1.9832,2.0246,2.0566,0.7139,0.7139,0.7139,0.7139,0.7139,0.7139,0.7139,0.7139,0.7139,0.7139,0.7085,0.7037,0.7027,0.6973,0.6936,0.6929,0.6936,0.7193,0.7874,0.7051,0.6664,0.6817,0.6678,0.6916,0.7473,0.8781,0.9554,0.9667,1.0297,1.0807,1.1275,1.1275,1.1801,1.2757,1.2632,1.2743,1.2953,1.2882,1.2579,1.2305,1.2305,1.2305,1.2305,1.2305,1.2305,1.2305,1.2305,1.2305,1.2305,1.2305,1.2305,1.2305,1.2305,1.2305,1.2305,1.2305,1.2305,1.2305,1.2305,1.2305,1.2305,1.2305,1.2305,1.2305,1.2305,1.2305,1.2305,1.2305,1.2305,1.2305,1.2305,1.2305,1.2305,1.2305,1.2305,0.0,0.0,1.2305,1.2305,1.2305,1.2305,1.2305,1.2305,1.2305,1.2305,1.2305,1.3171,1.4387,1.598,1.7002,1.8165,1.9561,1.916,1.8643,1.8018,1.8008,1.8008,1.8008,1.8008,1.8008,1.8008,1.8008,1.8008,1.8008,1.8008,1.8008,1.8008,1.8008,1.8008,1.8037,1.8449,1.8914,1.9333,1.9763,2.0236,2.0566,0.7139,0.7139,0.7139,0.7139,0.7139,0.7139,0.7139,0.7139,0.7228,0.7492,0.7489,0.7618,0.7756,0.785,0.7872,0.7752,0.7596,0.8013,0.9235,0.7947,0.7359,0.7737,0.7663,0.7978,0.8873,1.0103,1.0805,1.0852,1.1209,1.1725,1.2379,1.2379,1.2745,1.3313,1.3313,1.314,1.2852,1.2852,1.2679,1.2405,1.2405,1.2365,1.2305,1.2305,1.2305,1.2305,1.2305,1.2305,1.2305,1.2305,1.2305,1.2305,1.2305,1.2305,1.2305,1.2305,1.2305,1.2305,1.2305,1.2305,1.2305,1.2305,1.2305,1.2305,1.2305,1.2305,1.2305,1.2305,1.2305,1.2305,1.2305,1.2305,1.2305,1.2305,0.0,0.0,0.0,1.2305,1.2305,1.2305,1.2305,1.2305,1.2305,1.2305,1.2305,1.2305,1.3171,1.4317,1.5748,1.6657,1.784,1.9121,1.8818,1.8437,1.8018,1.8008,1.8008,1.8008,1.8008,1.8008,1.8008,1.8008,1.8008,1.8008,1.8008,1.8008,1.8008,1.8008,1.8008,1.8047,1.8458,1.8864,1.9339,1.9732,2.0236,2.0566,0.7139,0.7139,0.7139,0.7139,0.7139,0.7139,0.7139,0.7139,0.7489,0.8627,0.8803,0.9144,1.0245,1.0341,1.0341,1.0326,0.9396,0.9235,1.0438,0.9378,0.92,1.024,1.0199,1.0163,1.0247,1.136,1.2069,1.2128,1.3288,1.3899,1.3964,1.3964,1.3811,1.3614,1.3614,1.3447,1.3173,1.3173,1.2993,1.2788,1.2788,1.2552,1.2305,1.2305,1.2305,1.2305,1.2305,1.2305,1.2305,1.2305,1.2305,1.2305,1.2305,1.2305,1.2305,1.2305,1.2305,1.2305,1.2305,1.2305,1.2305,1.2305,1.2305,1.2305,1.2305,1.2305,1.2305,1.2305,1.2305,1.2305,1.2305,1.2305,1.2305,1.2305,0.0,0.0,1.2305,1.2305,1.2305,1.2305,1.2305,1.2305,1.2305,1.2305,1.2305,1.2305,1.3171,1.4317,1.5748,1.6657,1.7639,1.8611,1.8652,1.8437,1.8018,1.8008,1.8008,1.8008,1.8008,1.8008,1.8008,1.8008,1.8008,1.8008,1.8008,1.8008,1.8008,1.8008,1.8008,1.8027,1.8418,1.8879,1.9339,1.9732,2.0236,2.0566,0.8189,0.8794,0.9309,0.9309,0.9309,0.9309,0.9309,0.9309,0.9401,0.9923,0.9923,1.0096,1.0524,1.0611,1.0611,1.0611,1.0183,1.0438,1.1552,1.1209,1.0869,1.0611,1.1209,1.1584,1.1584,1.271,1.3368,1.3379,1.3906,1.4088,1.4082,1.3901,1.3748,1.3627,1.3253,1.3133,1.32,1.3006,1.2966,1.3019,1.2903,1.2755,1.2559,1.2371,1.2305,1.2305,1.2305,1.2305,1.2305,1.2305,1.2305,1.2305,1.2305,1.2305,1.2305,1.2305,1.2305,1.2305,1.2305,1.2305,1.2305,1.2305,1.2305,1.2305,1.2305,1.2305,1.2305,1.2305,1.2305,1.2305,1.2305,1.2305,1.2305,1.2305,0.0,1.2305,1.2305,1.2305,1.2305,1.2305,1.2305,1.2378,1.2559,1.2412,1.2458,1.2839,1.3393,1.4116,1.5025,1.6348,1.7438,1.8183,1.8252,1.8164,1.8008,1.8008,1.8008,1.8008,1.8008,1.8008,1.8008,1.8008,1.8008,1.8008,1.8008,1.8008,1.8037,1.8291,1.8398,1.8418,1.8884,1.9314,1.9687,1.9818,2.0232,2.0566,0.9405,1.0096,1.0611,1.0611,1.0611,1.0611,1.0611,1.0611,1.0697,1.1128,1.1123,1.13,1.1649,1.1735,1.1735,1.1735,1.1386,1.1643,1.2766,1.2851,1.251,1.1735,1.2425,1.2851,1.2851,1.3646,1.4088,1.4088,1.4088,1.4088,1.4082,1.3881,1.3734,1.3627,1.3307,1.3233,1.334,1.322,1.3233,1.332,1.3013,1.2909,1.2788,1.2418,1.2305,1.2305,1.2305,1.2305,1.2305,1.2305,1.2305,1.2305,1.2305,1.2305,1.2305,1.2305,1.2305,1.2305,1.2305,1.2305,1.2305,1.2305,1.2305,1.2305,1.2305,1.2305,1.2305,1.2305,1.2305,1.2305,1.2305,1.2305,1.2331,1.2425,1.2365,1.2338,1.2425,1.2365,1.2305,1.2305,1.2305,1.2418,1.2795,1.2559,1.2659,1.3173,1.3334,1.3829,1.4774,1.6113,1.7281,1.8144,1.8076,1.8135,1.8408,1.8144,1.8076,1.8203,1.8076,1.8008,1.8008,1.8008,1.8008,1.8018,1.8144,1.8213,1.8242,1.8662,1.8848,1.8867,1.9275,1.968,1.9925,2.0083,2.034,2.0566,1.0611,1.0611,1.0611,1.0611,1.0611,1.0611,1.0611,1.0611,1.1037,1.2157,1.2328,1.2766,1.4004,1.4088,1.4088,1.4095,1.3033,1.2857,1.4004,1.4088,1.4088,1.4088,1.4088,1.4088,1.4088,1.4088,1.4088,1.4088,1.4088,1.4088,1.4088,1.4088,1.3928,1.3661,1.3955,1.3921,1.3667,1.3961,1.3915,1.3621,1.3327,1.3026,1.2788,1.2418,1.2305,1.2305,1.2305,1.2305,1.2305,1.2305,1.2305,1.2305,1.2305,1.2305,1.2305,1.2311,1.2305,1.2305,1.2305,1.2305,1.2305,1.2305,1.2305,1.2305,1.2305,1.2305,1.2305,1.2305,1.2305,1.2305,1.2305,1.2305,1.2405,1.2775,1.2498,1.2412,1.2788,1.2492,1.2305,1.2305,1.2305,1.2418,1.2795,1.2822,1.2879,1.3193,1.301,1.3508,1.5117,1.6088,1.7265,1.8553,1.8242,1.8428,1.9287,1.8437,1.8223,1.8633,1.8213,1.8008,1.8018,1.8018,1.8018,1.8047,1.8457,1.8643,1.8601,1.9111,1.9287,1.9326,1.9732,1.9871,1.9982,2.0446,2.0566,2.0566,1.1809,1.251,1.3039,1.3039,1.3039,1.3039,1.3039,1.3039,1.3209,1.3555,1.3555,1.3809,1.4283,1.4208,1.4249,1.4669,1.4148,1.403,1.4389,1.4202,1.4088,1.4088,1.4088,1.4088,1.4088,1.4088,1.4088,1.4088,1.4088,1.4088,1.4088,1.4088,1.4041,1.3948,1.3828,1.3841,1.3948,1.3828,1.3728,1.3621,1.3327,1.3026,1.2788,1.2418,1.2305,1.2305,1.2305,1.2305,1.2305,1.2305,1.2305,1.2338,1.2545,1.2472,1.2385,1.2812,1.2639,1.2345,1.2559,1.2458,1.2305,1.2305,1.2305,1.2305,1.2305,1.2305,1.2305,1.2305,1.2305,1.2365,1.2579,1.2612,1.2712,1.3019,1.2999,1.2973,1.306,1.2806,1.2612,1.2612,1.2425,1.2505,1.3019,1.2872,1.3124,1.3768,1.4444,1.5068,1.5584,1.6998,1.8202,1.9029,1.8975,1.917,1.9727,1.8584,1.8223,1.8633,1.8213,1.8164,1.8447,1.8447,1.8613,1.8916,1.9043,1.9092,1.9121,1.9551,1.9727,1.9766,2.0252,2.036,2.0407,2.0566,2.0566,2.0566,1.3163,1.3632,1.4162,1.4396,1.4335,1.4295,1.4416,1.4335,1.4255,1.4255,1.4255,1.4282,1.4342,1.4402,1.4482,1.4603,1.4456,1.4349,1.4349,1.4182,1.4088,1.4088,1.4088,1.4088,1.4088,1.4088,1.4088,1.4088,1.4088,1.4088,1.4088,1.4088,1.4088,1.4082,1.3901,1.3915,1.4075,1.3895,1.3814,1.3781,1.3373,1.3093,1.2886,1.2465,1.2378,1.2458,1.2345,1.2378,1.2458,1.2345,1.2378,1.2512,1.2768,1.2705,1.2732,1.31,1.2946,1.2672,1.2808,1.2612,1.2452,1.2331,1.2392,1.2445,1.2325,1.2392,1.2478,1.2478,1.2478,1.2572,1.2872,1.2926,1.3026,1.3333,1.3287,1.3253,1.3367,1.312,1.2926,1.2926,1.2772,1.2852,1.3333,1.3213,1.3327,1.3868,1.495,1.5659,1.5939,1.7322,1.8554,1.9541,1.9375,1.957,2.0166,1.9072,1.873,1.9141,1.8711,1.8643,1.8896,1.8896,1.9043,1.9297,1.9463,1.9541,1.957,2.0,2.0176,2.0195,2.0469,2.0566,2.0566,2.0566,2.0566,2.0576,1.4469,1.4329,1.4335,1.487,1.4736,1.4649,1.4923,1.471,1.4522,1.4522,1.4496,1.4389,1.4155,1.4583,1.4689,1.4208,1.4142,1.4128,1.4128,1.4102,1.4088,1.4088,1.4088,1.4088,1.4088,1.4088,1.4088,1.4088,1.4088,1.4088,1.4088,1.4088,1.4088,1.4088,1.4055,1.4048,1.4048,1.4021,1.3995,1.3921,1.3387,1.3153,1.3066,1.2512,1.2472,1.2748,1.2398,1.2478,1.2741,1.2425,1.2518,1.2835,1.2889,1.3006,1.322,1.3273,1.3233,1.3113,1.2936,1.2829,1.2721,1.2405,1.2565,1.2782,1.2412,1.2552,1.2829,1.2856,1.2869,1.2879,1.3193,1.3253,1.3347,1.3634,1.346,1.338,1.3647,1.3434,1.3253,1.3253,1.3227,1.3327,1.3532,1.3667,1.3667,1.3722,1.4852,1.574,1.637,1.7548,1.8733,1.9885,1.96,1.9775,2.0557,1.9795,1.957,1.9912,1.9482,1.9307,1.9346,1.9346,1.9365,1.9424,1.9805,1.9971,2.0,2.04,2.0586,2.0625,2.0625,2.0683,2.0654,2.0557,2.0459,2.0333,1.4509,1.4656,1.4816,1.4943,1.491,1.489,1.495,1.471,1.4522,1.4522,1.4322,1.4242,1.4409,1.4335,1.4409,1.4743,1.4556,1.4429,1.4429,1.4215,1.4088,1.4088,1.4088,1.4088,1.4088,1.4088,1.4088,1.4088,1.4088,1.4088,1.4088,1.4088,1.4088,1.4075,1.3841,1.3741,1.3728,1.35,1.326,1.3104,1.2976,1.2705,1.2485,1.2351,1.2345,1.2392,1.2325,1.2345,1.2425,1.2592,1.2768,1.2903,1.33,1.334,1.33,1.3761,1.34,1.2886,1.306,1.2759,1.2438,1.2605,1.2879,1.3026,1.2719,1.2775,1.2889,1.306,1.3113,1.32,1.3494,1.3547,1.3647,1.3941,1.3935,1.3921,1.3981,1.3734,1.3547,1.3547,1.3347,1.3327,1.3532,1.3854,1.4213,1.4838,1.6098,1.7213,1.7929,1.9315,2.0168,2.042,2.0332,2.0381,2.0566,2.0381,2.0166,1.9912,1.9482,1.9463,1.9775,1.9775,1.9971,2.0293,2.0381,2.042,2.043,2.0527,2.0771,2.1094,2.1094,2.1076,2.0966,2.0139,1.9627,1.9178,1.4489,1.4536,1.4636,1.4917,1.4843,1.485,1.513,1.4796,1.4569,1.471,1.4476,1.4302,1.4309,1.4429,1.4569,1.4736,1.4482,1.4315,1.4315,1.4168,1.4088,1.4088,1.4088,1.4088,1.4088,1.4088,1.4088,1.4088,1.4088,1.4088,1.4088,1.4088,1.4088,1.4082,1.3928,1.3774,1.3552,1.348,1.3247,1.2953,1.2882,1.2652,1.2498,1.2358,1.2392,1.2512,1.2512,1.2612,1.2759,1.2913,1.306,1.3233,1.354,1.3634,1.3687,1.3995,1.3754,1.3394,1.3414,1.3186,1.2946,1.2966,1.3093,1.3166,1.3006,1.3073,1.322,1.3387,1.3414,1.3507,1.3801,1.3854,1.3908,1.4062,1.4088,1.4088,1.4088,1.3955,1.3854,1.3854,1.3721,1.3687,1.3841,1.3995,1.4266,1.4667,1.6343,1.7493,1.7935,1.9634,2.0566,2.0566,2.0566,2.0566,2.0566,2.0566,2.0449,2.0225,2.0,2.001,2.0225,2.0225,2.0352,2.0566,2.0566,2.0684,2.0889,2.0889,2.1025,2.123,2.123,2.0738,2.0058,1.9502,1.8514,1.7359,1.4476,1.4369,1.4402,1.4943,1.483,1.485,1.5391,1.5017,1.4743,1.4937,1.475,1.4469,1.4122,1.4522,1.4716,1.4469,1.4269,1.4142,1.4088,1.4135,1.4135,1.4088,1.4088,1.4088,1.4088,1.4088,1.4088,1.4088,1.4088,1.4088,1.4088,1.4088,1.4088,1.4082,1.4035,1.3874,1.3641,1.3587,1.34,1.3113,1.2906,1.2842,1.2728,1.2512,1.2579,1.2829,1.2882,1.2993,1.322,1.3267,1.3447,1.3654,1.3701,1.3888,1.4088,1.4088,1.4048,1.3955,1.3707,1.3607,1.3527,1.3333,1.3287,1.33,1.3347,1.3507,1.3661,1.3707,1.3721,1.3794,1.4041,1.4088,1.4088,1.4088,1.4088,1.4088,1.4088,1.4088,1.4088,1.4088,1.4088,1.4108,1.4155,1.4162,1.426,1.4477,1.6209,1.7327,1.7677,1.9375,2.0479,2.0566,2.0635,2.0684,2.0684,2.0684,2.0713,2.0791,2.0635,2.0566,2.0566,2.0566,2.0566,2.0566,2.0566,2.0781,2.1123,2.1201,2.107,2.0899,2.0976,2.0155,1.8816,1.8531,1.7138,1.5437,1.4509,1.4696,1.495,1.5284,1.5304,1.5391,1.5718,1.5491,1.5204,1.499,1.493,1.4696,1.4148,1.4155,1.4188,1.4148,1.4342,1.4355,1.4108,1.4322,1.4349,1.4095,1.4088,1.4088,1.4088,1.4088,1.4088,1.4088,1.4088,1.4088,1.4088,1.4088,1.4088,1.4075,1.3814,1.3681,1.3546,1.3373,1.3093,1.2903,1.306,1.2832,1.2418,1.2899,1.2946,1.2856,1.3053,1.3173,1.3253,1.35,1.3614,1.3687,1.3948,1.4055,1.4088,1.4088,1.3908,1.3694,1.3572,1.346,1.332,1.3534,1.3587,1.3654,1.3908,1.3801,1.3714,1.3975,1.4028,1.4041,1.4082,1.4088,1.4088,1.4088,1.4088,1.4088,1.4088,1.4088,1.4088,1.4088,1.4088,1.4182,1.4436,1.4462,1.4984,1.6184,1.6548,1.736,1.9062,1.938,1.9882,2.0576,2.0937,2.1143,2.1143,2.1143,2.1338,2.1699,2.0928,2.0566,2.0566,2.0566,2.0566,2.0566,2.0566,2.0596,2.0684,2.1074,2.0638,1.9825,2.0163,1.9472,1.8004,1.6635,1.5367,1.4284,1.4282,1.4516,1.4756,1.4883,1.5044,1.5251,1.5545,1.5344,1.5164,1.5204,1.5064,1.4803,1.4376,1.4182,1.4088,1.4088,1.4202,1.4295,1.4322,1.4449,1.4462,1.4335,1.4329,1.4255,1.4088,1.4088,1.4088,1.4088,1.4088,1.4088,1.4088,1.4088,1.4088,1.4082,1.3948,1.3801,1.3552,1.3507,1.328,1.3019,1.316,1.3053,1.2839,1.3106,1.3126,1.3046,1.3347,1.3561,1.3721,1.3848,1.3895,1.3915,1.4048,1.4088,1.4088,1.4088,1.3995,1.3895,1.3895,1.3794,1.3734,1.3861,1.3895,1.3928,1.4055,1.4108,1.4122,1.4095,1.4088,1.4135,1.4302,1.4329,1.4329,1.4329,1.4329,1.4269,1.4108,1.4229,1.4329,1.4329,1.4329,1.4382,1.4509,1.4669,1.5082,1.5644,1.625,1.6957,1.775,1.823,1.8642,1.9039,1.8994,1.9308,1.9968,2.0192,2.0733,2.1523,2.1367,2.1299,2.1289,2.0791,2.0703,2.0928,2.0674,2.0713,2.0977,2.1416,2.1192,2.0504,2.031,1.8733,1.6557,1.547,1.4615,1.4088]},{"header":{"parameterUnit":"m.s-1","parameterCategory":1,"la1":30.6,"la2":28.766,"lo1":-90.7593,"lo2":-88.6598,"dy":0.0162,"dx":0.0183,"nx":116,"ny":114,"refTime":"2023-09-22T18:00:00:Z","depth":0,"parameterNumber":3,"parameterNumberName":"V-component_of_WINDS"},"data":[0.0,0.0,0.0,0.0,0.0,0.0,0.0,0.0,0.0,0.0,0.0,0.0,0.0,0.0,0.0,0.0,0.0,0.0,0.0,0.0,0.0,0.0,0.0,0.0,0.0,0.0,0.0,0.0,0.0,0.0,0.0,0.0,0.0,0.0,0.0,0.0,0.0,0.0,0.0,0.0,0.0,0.0,0.0,0.0,0.0,0.0,0.0,0.0,0.0,0.0,0.0,0.0,0.0,0.0,0.0,0.0,0.0,0.0,0.0,0.0,0.0,0.0,0.0,0.0,0.0,0.0,0.0,0.0,0.0,0.0,0.0,0.0,0.0,0.0,0.0,0.0,0.0,0.0,0.0,0.0,0.0,0.0,0.0,0.0,0.0,0.0,0.0,0.0,0.0,0.0,0.0,0.0,0.0,0.0,0.0,0.0,0.0,0.0,0.0,0.0,0.0,0.0,0.0,0.0,0.0,0.0,0.0,0.0,0.0,0.0,0.0,0.0,0.0,0.0,0.0,0.0,0.0,0.0,0.0,0.0,0.0,0.0,0.0,0.0,0.0,0.0,0.0,0.0,0.0,0.0,0.0,0.0,0.0,0.0,0.0,0.0,0.0,0.0,0.0,0.0,0.0,0.0,0.0,0.0,0.0,0.0,0.0,0.0,0.0,0.0,0.0,0.0,0.0,0.0,0.0,0.0,0.0,0.0,0.0,0.0,0.0,0.0,0.0,0.0,0.0,0.0,0.0,0.0,0.0,0.0,0.0,0.0,0.0,0.0,0.0,0.0,0.0,0.0,0.0,0.0,0.0,0.0,0.0,0.0,0.0,0.0,0.0,0.0,0.0,0.0,0.0,0.0,0.0,0.0,0.0,0.0,0.0,0.0,0.0,0.0,0.0,0.0,0.0,0.0,0.0,0.0,0.0,0.0,0.0,0.0,0.0,0.0,0.0,0.0,0.0,0.0,0.0,0.0,0.0,0.0,0.0,0.0,0.0,0.0,0.0,0.0,0.0,0.0,0.0,0.0,0.0,0.0,0.0,0.0,0.0,0.0,0.0,0.0,0.0,0.0,0.0,0.0,0.0,0.0,0.0,0.0,0.0,0.0,0.0,0.0,0.0,0.0,0.0,0.0,0.0,0.0,0.0,0.0,0.0,0.0,0.0,0.0,0.0,0.0,0.0,0.0,0.0,0.0,0.0,0.0,0.0,0.0,0.0,0.0,0.0,0.0,0.0,0.0,0.0,0.0,0.0,0.0,0.0,0.0,0.0,0.0,0.0,0.0,0.0,0.0,0.0,0.0,0.0,0.0,0.0,0.0,0.0,0.0,0.0,0.0,0.0,0.0,0.0,0.0,0.0,0.0,0.0,0.0,0.0,0.0,0.0,0.0,0.0,0.0,0.0,0.0,0.0,0.0,0.0,0.0,0.0,0.0,0.0,0.0,0.0,0.0,0.0,0.0,0.0,0.0,0.0,0.0,0.0,0.0,0.0,0.0,0.0,0.0,0.0,0.0,0.0,0.0,0.0,0.0,0.0,0.0,0.0,0.0,0.0,0.0,0.0,0.0,0.0,0.0,0.0,0.0,0.0,0.0,0.0,0.0,0.0,0.0,0.0,0.0,0.0,0.0,0.0,0.0,0.0,0.0,0.0,0.0,0.0,0.0,0.0,0.0,0.0,0.0,0.0,0.0,0.0,0.0,0.0,0.0,0.0,0.0,0.0,0.0,0.0,0.0,0.0,0.0,0.0,0.0,0.0,0.0,0.0,0.0,0.0,0.0,0.0,0.0,0.0,0.0,0.0,0.0,0.0,0.0,0.0,0.0,0.0,0.0,0.0,0.0,0.0,0.0,0.0,0.0,0.0,0.0,0.0,0.0,0.0,0.0,0.0,0.0,0.0,0.0,0.0,0.0,0.0,0.0,0.0,0.0,0.0,0.0,0.0,0.0,0.0,0.0,0.0,0.0,0.0,0.0,0.0,0.0,0.0,0.0,0.0,0.0,0.0,0.0,0.0,0.0,0.0,0.0,0.0,0.0,0.0,0.0,0.0,0.0,0.0,0.0,0.0,0.0,0.0,0.0,0.0,0.0,0.0,0.0,0.0,0.0,0.0,0.0,0.0,0.0,0.0,0.0,0.0,0.0,0.0,0.0,0.0,0.0,0.0,0.0,0.0,0.0,0.0,0.0,0.0,0.0,0.0,0.0,0.0,0.0,0.0,0.0,0.0,0.0,0.0,0.0,0.0,0.0,0.0,0.0,0.0,0.0,0.0,0.0,0.0,0.0,0.0,0.0,0.0,0.0,0.0,0.0,0.0,0.0,0.0,0.0,0.0,0.0,0.0,0.0,0.0,0.0,0.0,0.0,0.0,0.0,0.0,0.0,0.0,0.0,0.0,0.0,0.0,0.0,0.0,0.0,0.0,0.0,0.0,0.0,0.0,0.0,0.0,0.0,0.0,0.0,0.0,0.0,0.0,0.0,0.0,0.0,0.0,0.0,0.0,0.0,0.0,0.0,0.0,0.0,0.0,0.0,0.0,0.0,0.0,0.0,0.0,0.0,0.0,0.0,0.0,0.0,0.0,0.0,0.0,0.0,0.0,0.0,0.0,0.0,0.0,0.0,0.0,0.0,0.0,0.0,0.0,0.0,0.0,0.0,0.0,0.0,0.0,0.0,0.0,0.0,0.0,0.0,0.0,0.0,0.0,0.0,0.0,0.0,0.0,0.0,0.0,0.0,0.0,0.0,0.0,0.0,0.0,0.0,0.0,0.0,0.0,0.0,0.0,0.0,0.0,0.0,0.0,0.0,0.0,0.0,0.0,0.0,0.0,0.0,0.0,0.0,0.0,0.0,0.0,0.0,0.0,0.0,0.0,0.0,0.0,0.0,0.0,0.0,0.0,0.0,0.0,0.0,0.0,0.0,0.0,0.0,0.0,0.0,0.0,0.0,0.0,0.0,0.0,0.0,0.0,0.0,0.0,0.0,0.0,0.0,0.0,0.0,0.0,0.0,0.0,0.0,0.0,0.0,0.0,0.0,0.0,0.0,0.0,0.0,0.0,0.0,0.0,0.0,0.0,0.0,0.0,0.0,0.0,0.0,0.0,0.0,0.0,0.0,0.0,0.0,0.0,0.0,0.0,0.0,0.0,0.0,0.0,0.0,0.0,0.0,0.0,0.0,0.0,0.0,0.0,0.0,0.0,0.0,0.0,0.0,0.0,0.0,0.0,0.0,0.0,0.0,0.0,0.0,0.0,0.0,0.0,0.0,0.0,0.0,0.0,0.0,0.0,0.0,0.0,0.0,0.0,0.0,0.0,0.0,0.0,0.0,0.0,0.0,0.0,0.0,0.0,0.0,0.0,0.0,0.0,0.0,0.0,0.0,0.0,0.0,0.0,0.0,0.0,0.0,0.0,0.0,0.0,0.0,0.0,0.0,0.0,0.0,0.0,0.0,0.0,0.0,0.0,0.0,0.0,0.0,0.0,0.0,0.0,0.0,0.0,0.0,0.0,0.0,0.0,0.0,0.0,0.0,0.0,0.0,0.0,0.0,0.0,0.0,0.0,0.0,0.0,0.0,0.0,0.0,0.0,0.0,0.0,0.0,0.0,0.0,0.0,0.0,0.0,0.0,0.0,0.0,0.0,0.0,0.0,0.0,0.0,0.0,0.0,0.0,0.0,0.0,0.0,0.0,0.0,0.0,0.0,0.0,0.0,0.0,0.0,0.0,0.0,0.0,0.0,0.0,0.0,0.0,0.0,0.0,0.0,0.0,0.0,0.0,0.0,0.0,0.0,0.0,0.0,0.0,0.0,0.0,0.0,0.0,0.0,0.0,0.0,0.0,0.0,0.0,0.0,0.0,0.0,0.0,0.0,0.0,0.0,0.0,0.0,0.0,0.0,0.0,0.0,0.0,0.0,0.0,0.0,0.0,0.0,0.0,0.0,0.0,0.0,0.0,0.0,0.0,0.0,0.0,0.0,0.0,0.0,0.0,0.0,0.0,0.0,0.0,0.0,0.0,0.0,0.0,0.0,0.0,0.0,0.0,0.0,0.0,0.0,0.0,0.0,0.0,0.0,0.0,0.0,0.0,0.0,0.0,0.0,0.0,0.0,0.0,0.0,0.0,0.0,0.0,0.0,0.0,0.0,0.0,0.0,0.0,0.0,0.0,0.0,0.0,0.0,0.0,0.0,0.0,0.0,0.0,0.0,0.0,0.0,0.0,0.0,0.0,0.0,0.0,0.0,0.0,0.0,0.0,0.0,0.0,0.0,0.0,0.0,0.0,0.0,0.0,0.0,0.0,0.0,0.0,0.0,0.0,0.0,0.0,0.0,0.0,0.0,0.0,0.0,0.0,0.0,0.0,0.0,0.0,0.0,0.0,0.0,0.0,0.0,0.0,0.0,0.0,0.0,0.0,0.0,0.0,0.0,0.0,0.0,0.0,0.0,0.0,0.0,0.0,0.0,0.0,0.0,0.0,0.0,0.0,0.0,0.0,0.0,0.0,0.0,0.0,0.0,0.0,0.0,0.0,0.0,0.0,0.0,0.0,0.0,0.0,0.0,0.0,0.0,0.0,0.0,0.0,0.0,0.0,0.0,0.0,0.0,0.0,0.0,0.0,0.0,0.0,0.0,0.0,0.0,0.0,0.0,0.0,0.0,0.0,0.0,0.0,0.0,0.0,0.0,0.0,0.0,0.0,0.0,0.0,0.0,0.0,0.0,0.0,0.0,0.0,0.0,0.0,0.0,0.0,0.0,0.0,0.0,0.0,0.0,0.0,0.0,0.0,0.0,0.0,0.0,0.0,0.0,0.0,0.0,0.0,0.0,0.0,0.0,0.0,0.0,0.0,0.0,0.0,0.0,0.0,0.0,0.0,0.0,0.0,0.0,0.0,0.0,0.0,0.0,0.0,0.0,0.0,0.0,0.0,0.0,0.0,0.0,0.0,0.0,0.0,0.0,0.0,0.0,0.0,0.0,0.0,0.0,0.0,0.0,0.0,0.0,0.0,0.0,0.0,0.0,0.0,0.0,0.0,0.0,0.0,0.0,0.0,0.0,0.0,0.0,0.0,0.0,0.0,0.0,0.0,0.0,0.0,0.0,0.0,0.0,0.0,0.0,0.0,0.0,0.0,0.0,0.0,0.0,0.0,0.0,0.0,0.0,0.0,0.0,0.0,0.0,0.0,0.0,0.0,0.0,0.0,0.0,0.0,0.0,0.0,0.0,0.0,0.0,0.0,0.0,0.0,0.0,0.0,0.0,0.0,0.0,0.0,0.0,0.0,0.0,0.0,0.0,0.0,0.0,0.0,0.0,0.0,0.0,0.0,0.0,0.0,0.0,0.0,0.0,0.0,0.0,0.0,0.0,0.0,0.0,0.0,0.0,0.0,0.0,0.0,0.0,0.0,0.0,0.0,0.0,0.0,0.0,0.0,0.0,0.0,0.0,0.0,0.0,0.0,0.0,0.0,0.0,0.0,0.0,0.0,0.0,0.0,0.0,0.0,0.0,0.0,0.0,0.0,0.0,0.0,0.0,0.0,0.0,0.0,0.0,0.0,0.0,0.0,0.0,0.0,0.0,0.0,0.0,0.0,0.0,0.0,0.0,0.0,0.0,0.0,0.0,0.0,0.0,0.0,0.0,0.0,0.0,0.0,0.0,0.0,0.0,0.0,0.0,0.0,0.0,0.0,0.0,0.0,0.0,0.0,0.0,0.0,0.0,0.0,0.0,0.0,0.0,0.0,0.0,0.0,0.0,0.0,0.0,0.0,0.0,0.0,0.0,0.0,0.0,0.0,0.0,0.0,0.0,0.0,0.0,0.0,0.0,0.0,0.0,0.0,0.0,0.0,0.0,0.0,0.0,0.0,0.0,0.0,0.0,0.0,0.0,0.0,0.0,0.0,0.0,0.0,0.0,0.0,0.0,0.0,0.0,0.0,0.0,0.0,0.0,0.0,0.0,0.0,0.0,0.0,0.0,0.0,0.0,0.0,0.0,0.0,0.0,0.0,0.0,0.0,0.0,0.0,0.0,0.0,0.0,0.0,0.0,0.0,0.0,0.0,0.0,0.0,0.0,0.0,0.0,0.0,0.0,0.0,0.0,0.0,0.0,0.0,1.4784,0.0,0.0,0.0,0.0,0.0,0.0,0.0,0.0,0.0,0.0,0.0,0.0,0.0,0.0,0.0,0.0,0.0,0.0,0.0,0.0,0.0,0.0,0.0,0.0,0.0,0.0,0.0,0.0,0.0,0.0,0.0,0.0,0.0,0.0,0.0,0.0,0.0,0.0,0.0,-0.8024,-0.5506,-0.2264,-0.6458,-1.1964,-1.8523,0.0,0.0,0.0,0.0,0.0,0.0,0.0,0.0,0.0,0.0,0.0,0.0,0.0,0.0,0.0,0.0,0.0,0.0,0.0,0.0,0.0,0.0,0.0,0.0,0.0,0.0,0.0,0.0,0.0,0.0,0.0,0.0,0.0,0.0,0.0,0.0,0.0,0.0,0.0,0.0,0.0,0.0,0.0,0.0,0.0,0.0,0.0,0.0,0.0,0.0,0.0,0.0,0.0,0.0,0.0,0.0,0.0,0.0,0.0,0.0,0.0,0.0,0.0,0.0,0.0,0.0,0.0,0.0,0.0,0.0,0.0,1.4662,0.0,0.0,0.0,0.0,0.0,0.0,0.0,0.0,0.0,0.0,0.0,0.0,0.0,0.0,0.0,0.0,0.0,0.0,0.0,0.0,0.0,0.0,0.0,0.0,-1.1562,-1.0456,-1.0899,0.0,0.0,0.0,0.0,0.0,0.0,0.0,0.0,-0.6729,-0.5387,-0.4291,-0.0353,0.3104,0.5998,0.3678,-0.1928,-1.0439,-1.6214,0.0,0.0,0.0,0.0,0.0,0.0,0.0,0.0,0.0,0.0,0.0,0.0,0.0,0.0,0.0,0.0,0.0,0.0,0.0,0.0,0.0,0.0,0.0,0.0,0.0,0.0,0.0,0.0,0.0,0.0,0.0,0.0,0.0,0.0,0.0,0.0,0.0,0.0,0.0,0.0,0.0,0.0,0.0,0.0,0.0,0.0,0.0,0.0,0.0,0.0,0.0,0.0,0.0,0.0,0.0,0.0,0.0,0.0,0.0,0.0,0.0,0.0,0.0,1.6812,1.6894,1.6838,1.6838,1.784,1.9568,1.7885,1.7362,1.7394,1.3191,0.0,0.0,0.0,0.0,0.0,0.0,0.0,0.0,0.0,0.0,0.0,0.0,0.0,0.0,0.0,0.0,0.0,0.0,0.0,0.0,0.0,-0.5222,-0.5372,-0.8756,-0.7081,-0.5396,0.0,0.0,0.0,0.0,0.0,0.0,-0.1314,-0.1098,0.0323,0.3005,0.8987,1.2418,1.3207,0.9342,0.6217,0.3447,-0.5045,-1.0692,-1.4234,0.0,0.0,0.0,0.0,0.0,0.0,0.0,0.0,0.0,0.0,0.0,0.0,0.0,0.0,0.0,0.0,0.0,0.0,0.0,0.0,0.0,0.0,0.0,0.0,0.0,0.0,0.0,0.0,0.0,0.0,0.0,0.0,0.0,0.0,0.0,0.0,0.0,0.0,0.0,0.0,0.0,2.21,2.0641,0.0,0.0,0.0,0.0,0.0,0.0,0.0,0.0,0.0,0.0,0.0,0.0,0.0,1.5108,1.5761,1.7532,1.8482,1.849,2.0301,2.0904,2.0462,2.0462,2.0493,2.045,2.0188,0.0,1.8124,1.6729,0.0,0.0,0.0,0.0,0.0,0.0,0.0,0.0,0.0,0.0,0.0,0.0,0.0,0.0,0.0,0.0,0.0,0.0,0.0,0.0,0.0,0.2887,0.4001,0.4275,0.5189,0.5901,0.6232,0.0,0.0,0.0,0.0,0.2973,0.2251,0.3128,0.5801,1.0467,1.2573,1.4675,1.6631,1.3652,1.1296,0.9319,0.3158,-0.3558,-1.0585,-1.5375,0.0,0.0,0.0,0.0,0.0,0.0,0.0,0.0,0.0,0.0,0.0,0.0,0.0,0.0,0.0,0.0,0.0,0.0,0.0,0.0,0.0,0.0,0.0,0.0,0.0,0.0,0.0,0.0,0.0,0.0,0.0,0.0,0.0,0.0,0.0,0.0,0.0,0.0,0.0,2.0854,2.0971,1.9759,1.9111,1.7539,0.0,0.0,0.0,0.0,0.0,0.0,0.0,0.0,0.0,1.7212,1.7507,1.8294,1.9635,2.0734,2.1184,2.0969,2.1784,2.2012,2.1592,2.1348,2.1123,2.0918,2.042,1.9811,1.9071,1.7596,1.4591,1.0796,0.0,0.0,0.0,0.0,0.6518,0.8508,0.0,0.0,0.0,0.0,0.0,0.0,0.0,0.0,0.0,0.0,0.0,0.0,0.9448,1.0679,1.2425,1.4523,1.5252,1.5457,1.5119,1.3969,0.0,0.0,0.787,0.6839,0.6245,0.7943,1.107,1.5648,1.499,1.5789,1.7861,1.5528,1.3399,1.1313,0.7367,0.1225,-0.6427,-1.1529,-1.5582,-1.8892,0.0,0.0,0.0,0.0,0.0,0.0,0.0,0.0,0.0,0.0,0.0,0.0,0.0,0.0,0.0,0.0,0.0,0.0,0.0,0.0,0.0,0.0,0.0,0.0,0.0,0.0,0.0,0.0,0.0,0.0,0.0,0.0,0.0,0.0,0.0,0.0,0.0,2.1136,2.1007,1.9404,1.9687,1.8745,0.0,0.0,0.0,0.0,0.0,0.0,1.5803,1.5913,1.6965,1.9389,1.9778,2.0745,2.2353,2.2549,2.249,2.2187,2.207,2.1787,2.1367,2.1045,2.084,2.0703,2.0039,1.9756,1.9597,1.8212,1.5996,1.3358,1.1485,0.8711,0.5984,0.6662,0.8586,1.118,0.0,0.0,0.0,0.0,0.0,0.0,0.0,0.0,0.0,0.0,0.0,1.5326,1.4514,1.7023,1.7835,1.5479,1.8099,1.9386,1.8166,1.7669,1.6722,1.5239,1.2787,1.1682,1.2166,1.4506,1.6053,1.68,1.7669,1.7658,1.6799,1.4016,1.1817,0.9955,0.6022,0.3143,0.0841,-0.603,-1.1819,-1.674,-2.1067,0.0,0.0,0.0,0.0,0.0,0.0,0.0,0.0,0.0,0.0,0.0,0.0,0.0,0.0,0.0,0.0,0.0,0.0,0.0,0.0,0.0,0.0,0.0,0.0,0.0,0.0,0.0,0.0,0.0,0.0,0.0,0.0,0.0,0.0,0.0,0.0,0.0,0.0,2.1077,2.2936,0.0,0.0,0.0,0.0,1.6072,1.5087,1.5451,1.7415,1.7441,1.8608,2.1041,2.1079,2.1393,2.1914,2.1533,2.1318,2.1289,2.0869,2.043,2.001,1.999,1.9766,1.9385,1.9336,1.9316,1.9316,1.9234,1.6721,1.3081,1.4957,1.3002,0.9428,1.1905,1.2299,1.2051,0.0,0.0,0.0,0.0,0.0,0.0,0.0,0.0,0.0,1.8362,1.971,2.0889,2.1949,2.3726,2.4872,2.4942,2.5972,2.5679,2.3486,2.2177,2.0118,1.7043,1.5126,1.4505,1.5216,1.6503,1.7652,1.8632,1.843,1.7508,1.586,1.3639,1.1283,0.8858,0.5624,0.3491,0.1959,-0.403,-0.8937,-1.3161,-1.7137,-2.1592,0.0,0.0,0.0,0.0,0.0,0.0,0.0,0.0,0.0,0.0,0.0,0.0,0.0,0.0,0.0,0.0,0.0,0.0,0.0,0.0,0.0,0.0,0.0,0.0,0.0,0.0,0.0,0.0,0.0,0.0,0.0,0.0,0.0,0.0,0.0,0.0,0.0,2.1678,2.2925,0.0,1.9975,1.9352,1.9083,1.9029,1.8348,1.8424,1.9493,1.9512,1.9906,2.0791,2.0801,2.0879,2.1035,2.0879,2.0664,2.0381,2.0225,1.9922,1.9502,1.9219,1.9014,1.8857,1.8584,1.8467,1.8486,1.876,1.7697,1.5886,1.5823,1.4904,1.3712,1.4057,1.4543,1.5019,0.0,0.0,0.0,0.0,0.0,0.0,0.0,0.0,2.0599,2.2613,2.3947,2.5431,2.7253,2.8234,2.9213,3.032,3.0275,2.922,2.6853,2.5418,2.3151,1.9771,1.8482,1.7965,1.8163,1.8712,1.9312,1.9945,1.894,1.7355,1.5325,1.3802,1.1488,0.8557,0.6093,0.4119,0.2371,-0.2516,-0.7082,-1.1376,-1.5031,-1.932,-2.3756,0.0,0.0,0.0,0.0,0.0,0.0,0.0,0.0,0.0,0.0,0.0,0.0,0.0,0.0,0.0,0.0,0.0,0.0,0.0,0.0,0.0,0.0,0.0,0.0,0.0,0.0,0.0,0.0,0.0,0.0,0.0,0.0,0.0,0.0,2.3527,2.3974,2.1987,2.3015,2.3175,2.1166,2.0973,2.1161,2.1482,2.0679,2.0252,2.0552,2.0355,2.0137,2.0137,2.0137,2.0137,2.0137,1.999,1.9766,1.9482,1.9618,1.9399,1.8848,1.8824,1.8696,1.8408,1.7978,1.7803,1.7803,1.819,1.8007,1.741,1.6968,1.6371,1.5699,1.5161,1.549,1.6055,0.0,0.0,0.0,0.0,0.0,0.0,0.0,2.2483,2.4115,2.6415,2.7618,2.8702,2.9985,3.0339,3.0527,3.0589,3.0346,2.9555,2.8035,2.7181,2.5775,2.3718,2.2948,2.2157,2.1199,2.1546,2.1336,2.0598,1.9377,1.7555,1.5331,1.4517,1.2429,0.9225,0.75,0.5309,0.2641,-0.117,-0.5951,-1.1366,-1.4714,-1.836,-2.1999,0.0,0.0,0.0,0.0,0.0,0.0,0.0,0.0,0.0,0.0,0.0,0.0,0.0,0.0,0.0,0.0,0.0,0.0,0.0,0.0,0.0,0.0,0.0,0.0,0.0,0.0,0.0,0.0,0.0,0.0,0.0,0.0,0.0,2.4614,2.4668,2.4165,2.2145,2.3603,2.403,2.2097,2.2749,2.3278,2.3278,2.1633,2.0663,2.0652,1.9827,1.933,1.9321,1.9311,1.9311,1.9321,1.8828,1.8613,1.8613,1.9049,1.8854,1.8076,1.89,1.8834,1.8027,1.7605,1.7429,1.7455,1.7739,1.7543,1.7258,1.8404,1.7384,1.5205,1.5242,1.5234,1.5101,0.0,0.0,0.0,0.0,0.0,0.0,0.0,2.3912,2.557,2.7335,2.8401,2.9288,3.009,3.038,3.0465,3.0391,3.0275,2.9817,2.8896,2.7674,2.6155,2.4307,2.4092,2.3732,2.3145,2.3641,2.3033,2.1165,2.0384,1.8688,1.6181,1.5879,1.4121,1.1152,0.9833,0.8507,0.6988,0.2099,-0.1351,-0.4096,-1.0467,-1.5303,-1.8945,0.0,0.0,0.0,0.0,0.0,0.0,0.0,0.0,0.0,0.0,0.0,0.0,0.0,0.0,0.0,0.0,0.0,0.0,0.0,0.0,0.0,0.0,0.0,0.0,0.0,0.0,0.0,0.0,0.0,0.0,0.0,2.7106,2.8039,2.6282,2.6312,2.6129,2.5117,2.4884,2.4551,2.403,2.3538,2.3278,2.3278,2.2184,2.141,2.1059,2.0228,1.9875,2.0212,1.9609,1.9609,2.0268,1.9484,1.9096,1.9096,1.9229,1.9177,1.8967,1.8822,1.8977,1.919,1.8124,1.7989,1.8513,1.8555,1.8605,1.8531,1.7496,1.6637,1.5936,1.5451,1.5671,1.6272,0.0,0.0,0.0,0.0,0.0,0.0,0.0,2.4908,2.6618,2.7897,2.8682,2.942,3.0131,3.0257,3.0322,3.0371,3.0345,2.9969,2.9093,2.7844,2.6767,2.5919,2.5924,2.5754,2.5355,2.5458,2.4729,2.3065,2.2119,2.0609,1.8648,1.8203,1.6786,1.4489,1.3543,1.2651,1.1414,0.688,0.4733,0.3925,-0.1669,-0.7728,-1.3599,-1.5052,-1.4521,-1.29,-1.2836,-1.1745,-1.0093,-0.8157,0.0,0.0,0.0,0.0,0.0,0.0,0.0,0.0,0.0,0.0,0.0,0.0,0.0,0.0,0.0,0.0,0.0,0.0,0.0,0.0,0.0,0.0,0.0,0.0,2.9114,2.9795,2.845,2.7934,2.7425,2.6835,2.5468,2.4602,2.4602,2.3753,2.3232,2.3232,2.2367,2.1781,2.1483,2.0676,2.0292,2.0602,2.0139,2.0074,2.059,2.0074,1.9814,1.9814,1.9995,1.9821,1.949,1.9328,1.9282,1.931,1.8414,1.8267,1.8658,1.8793,1.8668,0.0,0.0,0.0,0.0,0.0,1.6299,1.6558,0.0,0.0,0.0,0.0,0.0,0.0,0.0,2.5351,2.7057,2.8004,2.853,2.915,2.9945,2.9918,2.9928,3.0158,3.0193,2.9781,2.8803,2.7972,2.7643,2.7971,2.8049,2.7937,2.7611,2.7081,2.6377,2.5513,2.4153,2.2896,2.1721,2.103,1.9902,1.8464,1.8093,1.7251,1.5835,1.2492,1.1371,1.1652,0.8781,0.2362,-0.5784,-0.7715,-0.7568,-0.6154,-0.4688,-0.3773,-0.2746,0.1405,0.0,0.0,0.0,0.0,0.0,0.0,0.0,0.0,0.0,0.0,0.0,0.0,0.0,0.0,0.0,0.0,0.0,0.0,0.0,0.0,0.0,0.0,0.0,0.0,3.1081,3.1326,3.0511,2.9392,2.8327,2.7567,2.5659,2.4408,2.4408,2.3767,2.3305,2.3245,2.2555,2.2175,2.2175,0.0,0.0,0.0,0.0,2.0782,2.091,2.0726,2.064,2.0628,2.0909,2.0602,1.9901,2.0123,1.9877,1.9308,1.8714,1.851,1.8589,1.8881,1.8638,1.8127,1.8574,1.8848,1.8896,1.767,1.6953,1.6507,0.0,0.0,0.0,0.0,0.0,0.0,0.0,2.4649,2.5952,2.6897,2.7816,2.8571,2.9008,2.8941,2.8679,2.8193,2.8266,2.8335,2.839,2.9013,2.9275,2.9017,2.9532,2.9551,2.8952,2.8819,2.7941,2.6286,2.5509,2.4257,2.2576,2.3055,2.2565,2.1317,2.1712,2.1472,2.0576,1.714,1.5618,1.527,1.2586,0.973,0.6766,0.3868,0.5474,0.9079,0.6973,0.694,0.806,0.8617,0.8489,0.8081,0.8205,0.9604,0.0,0.0,0.0,0.0,0.0,0.0,0.0,0.0,0.0,0.0,0.0,0.0,0.0,0.0,0.0,0.0,0.0,0.0,0.0,3.0335,3.1457,3.1869,3.0591,3.0164,2.9379,2.7643,2.6122,2.5175,2.5175,2.5063,2.4724,2.4118,2.393,2.3813,2.3813,2.247,2.2224,2.3551,2.2347,2.1939,2.2628,2.1498,2.0909,2.0897,0.0,0.0,2.0872,2.057,2.0957,2.1771,2.0152,1.9783,2.0373,2.0917,2.1046,2.0703,1.8666,1.7868,1.7868,1.759,1.7445,1.7181,0.0,0.0,0.0,0.0,0.0,0.0,0.0,2.4702,2.6092,2.6622,2.7537,2.8149,2.8091,2.8164,2.7959,2.7404,2.7937,2.8405,2.8686,2.9608,3.0053,2.9852,3.0171,3.0127,2.9661,2.9651,2.8921,2.7453,2.6755,2.5625,2.4182,2.4856,2.4726,2.4001,2.4791,2.498,2.4533,2.2054,2.0883,2.0602,1.9422,1.8956,1.8336,1.2587,1.2407,1.5306,1.566,1.6125,1.6835,1.8545,1.8401,1.7359,1.6985,1.7406,1.7679,0.0,0.0,0.0,0.0,0.0,0.0,0.0,0.0,0.0,0.0,0.0,0.0,0.0,0.0,3.0117,3.128,0.0,3.1668,3.1866,3.2469,3.2455,3.0991,3.056,2.9865,2.8544,2.7465,2.6858,2.6858,2.6246,2.5685,2.5356,2.5022,2.4851,2.4851,2.4066,2.4008,2.4851,2.4066,2.382,2.4266,2.3236,2.2698,2.2686,2.2176,2.1918,2.1891,2.1603,2.1862,2.2513,2.1534,2.1478,2.2052,2.208,2.2249,2.2343,2.0691,1.9674,1.9113,1.8436,1.837,1.8525,0.0,0.0,0.0,0.0,0.0,0.0,0.0,0.0,2.6195,2.6489,2.7234,2.7581,2.7218,2.7342,2.7224,2.6639,2.7616,2.8392,2.8723,2.9709,3.0286,3.0286,3.0292,3.0209,2.9979,2.996,2.9443,2.8404,2.7752,2.6851,2.5734,2.6232,2.6309,2.6017,2.6898,2.7214,2.6994,2.5636,2.4889,2.4647,2.4851,2.569,2.6099,1.9784,1.8372,2.0095,2.2832,2.3772,2.423,2.7437,2.7624,2.6381,2.558,2.4903,2.3821,2.0606,2.0497,0.0,0.0,0.0,0.0,0.0,0.0,0.0,0.0,3.0455,3.0925,3.26,3.2515,3.2491,3.3893,3.3756,3.3532,3.3853,3.3772,3.3225,3.1859,3.1134,3.0575,3.0084,2.9127,2.8514,2.8514,2.7519,2.6865,2.6696,2.6246,2.5983,2.5983,2.5821,2.5821,2.5929,2.5821,2.5767,2.5767,2.5121,2.4745,2.4783,2.366,2.3116,2.315,2.2946,2.2951,2.3154,2.3094,2.3363,2.3846,2.3195,2.3281,2.3727,2.3167,2.2357,2.1301,1.9927,1.9685,2.0105,0.0,0.0,0.0,0.0,0.0,0.0,0.0,0.0,0.0,2.5864,2.6471,2.6688,2.6365,2.6247,2.5807,2.4882,2.5729,2.665,2.7446,2.8996,2.9877,2.9877,2.9913,2.9911,2.9814,2.9814,2.9363,2.8394,2.8311,2.7673,2.6574,2.6929,2.6934,2.6608,2.7102,2.6929,2.6286,2.5582,2.4629,2.3652,2.3686,2.4175,2.5023,2.5908,2.7905,3.0058,2.8806,2.9062,3.0113,3.0831,3.0965,3.0631,2.9747,2.9664,2.9304,2.614,2.4941,2.4367,2.3412,2.5347,2.813,3.0197,3.1596,3.3495,0.0,3.7584,3.6986,3.7746,3.7802,3.7346,3.6294,3.6423,3.6447,3.5821,3.5116,3.4358,3.3547,3.2773,3.2213,3.2161,3.0434,2.93,2.93,2.9148,2.8763,2.8151,2.7992,2.7959,2.7959,2.7345,2.7295,2.7944,2.7345,2.7015,2.7015,2.6381,2.6102,2.6087,2.5407,2.5087,2.5056,2.4322,2.4508,2.544,2.5179,2.5398,2.5897,2.4965,2.4916,2.5477,2.4786,2.4255,2.3667,2.2509,2.1801,2.152,0.0,0.0,0.0,0.0,0.0,0.0,0.0,0.0,0.0,0.0,2.5948,2.5775,2.5152,2.5049,2.4872,2.4545,2.6097,2.7287,2.7746,2.9009,2.9647,2.9397,2.9427,2.9328,2.9106,2.9106,2.8669,2.7755,2.7439,2.6819,2.5893,2.6071,2.5765,2.509,2.5622,2.5364,2.4479,2.381,2.2592,2.1246,2.2795,2.2867,2.2402,2.5258,2.7231,2.8612,2.9697,3.0524,0.0,3.1737,3.1913,3.1974,3.2306,3.2477,3.2017,2.9319,2.9208,2.9852,2.9601,3.0526,3.2011,3.3834,3.4928,3.6337,3.9101,3.9316,3.9091,3.9668,3.9421,3.8772,3.772,3.7337,3.6962,3.613,3.5332,3.4553,3.3791,3.2995,3.2484,3.2484,3.1738,3.1202,3.1202,3.0864,3.056,3.0218,2.9914,2.9567,2.9283,2.9242,2.927,2.9299,2.9242,2.9248,2.9248,2.8149,2.7599,2.7583,2.6472,2.593,2.593,2.5886,2.6134,2.657,2.6759,2.6822,2.6727,2.6444,2.6593,2.6974,2.651,2.6134,2.5686,2.4194,2.3559,2.3588,0.0,0.0,0.0,0.0,0.0,0.0,0.0,0.0,0.0,0.0,2.5373,2.5129,2.4543,2.4488,2.4505,2.4605,2.6421,2.76,2.7629,2.8616,2.9063,2.8795,2.8772,2.8663,2.8409,2.8257,2.7899,2.7247,2.6694,2.609,2.5425,2.5159,2.4593,2.3808,2.3888,2.3546,2.279,2.19,2.0751,1.9661,2.1518,2.1423,2.0456,2.3504,2.482,2.5456,2.8611,2.9996,3.0448,3.1335,3.1813,3.2243,3.34,3.3727,3.332,3.1426,3.1918,3.3125,3.3508,3.412,3.496,3.6171,3.737,3.8594,3.9828,4.0108,4.017,4.041,4.0019,3.9372,3.8582,3.8111,3.7688,3.7091,3.6132,3.5263,3.4702,3.3732,3.3117,3.3117,3.3117,3.3117,3.3117,3.234,3.1865,3.1865,3.1457,3.1069,3.0695,3.1031,3.1014,3.0695,3.0905,3.0989,3.0989,2.9679,2.9024,2.9024,2.7669,2.7066,2.7141,2.7478,2.7652,2.768,2.8172,2.8198,2.7817,2.7851,2.7993,2.819,2.7957,2.771,2.7373,2.6275,2.5581,2.5245,0.0,0.0,0.0,0.0,0.0,0.0,0.0,0.0,0.0,0.0,0.0,0.0,0.0,2.4961,2.4958,2.4878,2.6016,2.6647,2.6465,2.7409,2.7936,2.7936,2.7936,2.7936,2.7908,2.742,2.7139,2.7122,2.6563,2.6135,2.5768,2.4585,2.3851,2.3488,2.2306,2.1777,2.1635,2.0343,1.9749,1.9698,1.9774,1.9762,1.9965,2.1979,2.2734,2.2995,2.6036,2.7532,2.831,2.9685,3.0807,3.1766,3.2668,3.3163,3.3269,3.2563,3.2246,3.2311,3.3112,3.4926,3.6703,3.7076,3.8968,4.0778,4.1091,4.1171,4.0948,4.0262,4.0048,3.9751,3.8933,3.9183,3.9534,3.9496,3.8101,3.7027,3.699,3.5633,3.4634,3.4634,3.4634,3.4634,3.4634,3.333,3.2466,3.2466,3.2466,3.2433,3.2433,3.2433,3.2433,3.2433,3.1934,3.1667,3.1667,3.0794,3.0335,3.0335,2.9367,2.9023,2.9206,2.9089,2.9035,2.9055,2.9458,2.9642,2.9587,2.9211,2.9055,2.9055,2.9055,2.8852,2.8617,2.9307,2.8154,2.6269,0.0,0.0,0.0,0.0,0.0,0.0,0.0,0.0,0.0,0.0,0.0,0.0,0.0,0.0,0.0,0.0,2.6237,2.6944,2.6866,2.7057,2.7054,2.6768,2.6588,2.6371,2.6094,2.5936,2.5865,2.5865,2.4898,2.4389,2.425,2.2526,2.1732,2.1649,2.0241,1.966,1.9608,1.8174,1.7745,1.8149,1.9209,1.9619,1.9853,2.191,2.2237,2.1704,0.0,2.4321,2.5875,2.6793,2.8194,2.9752,3.0942,3.1969,3.283,3.3363,3.3611,3.3994,3.5374,3.635,3.7411,3.926,4.0326,4.1104,4.1777,4.1943,4.1715,4.0917,4.0739,4.0293,3.8911,3.921,3.9485,3.8896,3.8323,3.7772,3.7165,3.6168,3.5299,3.4751,3.4694,3.4694,3.4694,3.4255,3.3957,3.3957,3.3957,3.382,3.3513,3.3776,3.3536,3.2672,3.2778,3.2548,3.1968,3.1154,3.0756,3.0787,2.9943,2.9547,2.9578,2.9565,2.955,2.9566,2.9746,2.983,2.983,2.9877,2.98,2.9651,2.9832,2.9721,2.949,2.968,2.9314,2.867,0.0,0.0,0.0,0.0,0.0,0.0,0.0,0.0,0.0,0.0,0.0,0.0,0.0,0.0,0.0,0.0,0.0,2.6506,2.6353,2.6166,2.5959,2.5724,2.5468,2.5131,2.4753,2.457,2.4337,2.4087,2.3481,2.3122,2.297,2.1502,2.0849,2.0862,1.9408,1.8707,1.8709,1.7359,1.6974,1.7293,1.8203,1.8661,1.8988,2.074,2.1151,0.0,2.1121,2.2398,2.4013,2.4679,2.6045,2.782,2.9609,3.1411,3.3051,3.4038,3.4432,3.4871,3.6289,3.6989,3.7789,3.9766,4.0536,4.0963,4.1537,4.166,4.1435,4.0653,4.0494,4.0081,3.8733,3.9131,3.9476,3.892,3.8827,3.8637,3.8063,3.7009,3.6109,3.5592,3.5251,3.5174,3.5496,3.5515,3.5291,3.4733,3.4958,3.4877,3.4289,3.4534,3.4314,3.3477,3.3223,3.287,3.2362,3.1238,3.0657,3.06,3.0184,2.996,2.9913,3.0023,3.007,3.0046,3.0094,3.0106,3.0086,3.0263,3.0231,3.0106,3.0263,3.0231,3.0071,3.0025,3.0042,3.0051,0.0,0.0,0.0,0.0,0.0,0.0,0.0,0.0,0.0,0.0,0.0,0.0,0.0,0.0,0.0,0.0,0.0,0.0,2.4902,2.48,2.4753,2.4713,2.4514,2.4199,2.3808,2.3301,2.2671,2.2024,2.2325,2.2274,2.1958,2.131,2.102,2.0964,1.9422,1.8731,1.8731,1.7647,1.7244,1.7264,1.6911,1.7056,1.7543,1.8813,1.9714,2.0332,2.086,2.1689,2.2728,2.3378,2.4579,2.627,2.887,3.1466,3.3753,3.4452,3.4664,3.4891,3.5836,3.686,3.7858,3.8682,3.9635,4.0408,4.0409,4.0389,4.0156,3.9454,3.9328,3.9115,3.841,3.8999,3.9583,3.9583,3.9629,3.9636,3.9597,3.813,3.706,3.7021,3.6236,3.6021,3.6846,3.6982,3.6376,3.4851,3.5493,3.5626,3.4849,3.4774,3.4756,3.4792,3.3432,3.2752,3.2822,3.1204,3.026,3.0009,3.0211,3.0311,3.0322,3.0503,3.0559,3.0506,3.0506,3.0463,3.041,3.041,3.041,3.041,3.041,3.041,3.041,3.041,3.041,3.0367,0.0,0.0,0.0,0.0,0.0,0.0,0.0,0.0,0.0,0.0,0.0,0.0,0.0,0.0,0.0,0.0,0.0,0.0,2.4451,2.4188,2.3991,2.3764,2.3172,2.2698,2.2443,2.1997,2.156,2.1199,2.0785,2.0423,2.0089,1.8845,1.8447,1.8594,1.7121,1.6766,1.7203,1.6408,1.6362,1.6963,1.749,1.827,1.9094,1.9895,2.0511,2.1032,2.1393,2.2027,2.285,2.3694,2.5482,2.7725,3.0076,3.1444,3.2475,3.3734,3.4311,3.4753,3.5647,3.6539,3.7481,3.8377,3.881,3.9032,3.9135,3.8694,3.8277,3.8286,3.8233,3.8213,3.8229,3.8906,3.945,3.9452,3.9995,4.0199,3.9535,3.8591,3.7727,3.7079,3.6236,3.5781,3.6021,3.6618,3.6573,3.5524,3.6241,3.6628,3.6415,3.5804,3.5185,3.4593,3.4221,3.372,3.3096,3.2079,3.1504,3.1382,3.081,3.0498,3.0447,3.0505,3.0525,3.05,3.0554,3.0552,3.0559,3.0559,3.0559,3.0559,3.0559,3.0559,3.0544,3.0484,3.0515,3.0537,0.0,0.0,0.0,0.0,0.0,0.0,0.0,0.0,0.0,0.0,0.0,0.0,0.0,0.0,0.0,0.0,0.0,0.0,0.0,2.348,2.3216,2.3068,2.2374,2.1799,2.1342,2.1169,2.0705,1.9876,1.9921,1.9554,1.886,1.7821,1.7451,1.7431,1.6227,1.5936,1.6246,1.5863,1.6008,0.0,0.0,1.8187,1.9069,2.0059,2.0934,2.1693,2.2226,2.3444,2.4938,2.5579,2.713,2.9026,3.056,3.1482,3.2201,3.3405,3.4168,3.4674,3.4859,3.6171,3.7502,3.7681,3.8092,3.8479,3.8536,3.794,3.7316,3.7145,3.7127,3.7209,3.7392,3.8507,3.9394,3.9404,4.0483,4.1011,4.0131,3.9355,3.869,3.8203,3.703,3.6424,3.6796,3.6931,3.6969,3.6853,3.6933,3.6839,3.645,3.5963,3.5528,3.5134,3.4745,3.3934,3.2682,3.2207,3.1757,3.1326,3.0832,3.0572,3.0543,3.0531,3.0531,3.05,0.0,3.0545,3.0516,3.0516,3.0442,3.0337,3.0337,3.0288,3.0197,3.0163,3.0163,3.0207,0.0,0.0,0.0,0.0,0.0,0.0,0.0,0.0,0.0,0.0,0.0,0.0,0.0,0.0,0.0,0.0,0.0,0.0,0.0,0.0,2.2555,2.2555,2.1949,2.1313,2.061,2.0603,1.9982,1.8614,1.9228,1.9032,1.7948,1.748,1.7089,1.6733,1.601,1.5643,1.567,1.5668,1.5972,1.6437,1.7051,1.7775,1.87,0.0,2.1255,2.2372,2.3289,2.5287,2.7591,2.8011,2.8932,3.0078,3.0802,3.1602,3.2419,3.3328,3.4091,3.4539,3.4053,3.5726,3.7479,3.6864,3.7356,3.8023,3.8066,3.7378,3.6564,3.5951,3.5959,3.6124,3.635,3.7835,3.9102,3.9354,4.0713,4.1516,4.0874,4.0104,3.9599,3.9599,3.8167,3.7428,3.807,3.7442,3.7274,3.7903,3.7245,3.6543,3.5904,3.5768,3.5693,3.5708,3.4986,3.3808,3.2173,3.2002,3.1514,3.0761,3.062,3.0549,3.0549,3.0508,3.0447,3.0385,3.0385,0.0,3.0318,3.0318,3.0169,2.9969,2.9969,2.9861,2.9696,2.9696,2.9696,2.9715,0.0,0.0,0.0,0.0,0.0,0.0,0.0,0.0,0.0,0.0,2.2245,2.2737,0.0,0.0,0.0,0.0,0.0,0.0,0.0,0.0,0.0,2.2278,2.1841,2.1313,2.061,2.0054,1.9389,1.8614,1.8089,1.7423,1.6666,1.6215,1.568,1.5124,1.4937,1.488,1.488,1.512,1.5898,1.7052,1.7841,1.9082,2.056,2.1616,0.0,0.0,2.4697,2.6236,2.7678,2.8545,2.968,3.083,3.1504,3.1792,3.2108,3.3261,3.3697,3.3944,3.4424,3.5383,3.6324,3.662,3.6344,3.6085,3.6347,3.5367,3.4382,3.4381,3.4595,3.5134,3.6131,3.6731,3.7579,3.908,3.963,4.007,4.0641,4.0072,3.9599,3.9599,3.8704,3.7848,3.7272,3.7078,3.6754,3.6197,3.6011,3.6177,3.6742,3.6094,3.5407,3.4759,3.4603,3.4028,3.2995,3.2277,3.1818,3.1662,3.0713,3.0276,3.0246,2.9994,2.9855,2.9842,2.9842,0.0,2.9815,2.9815,2.9799,2.9746,2.9746,2.9731,2.9696,2.9696,2.9696,2.979,0.0,0.0,0.0,0.0,0.0,0.0,0.0,2.1032,2.1896,2.2334,2.2951,2.3236,2.2917,2.3038,0.0,0.0,0.0,0.0,0.0,0.0,0.0,0.0,0.0,0.0,2.0396,1.9772,1.9102,1.8356,0.0,1.7291,1.6331,1.5737,1.5056,1.4336,1.4336,1.444,1.4696,1.546,1.6419,1.753,1.8653,1.9813,2.1019,0.0,0.0,0.0,2.5618,2.6753,2.7951,2.837,2.9464,3.074,3.1585,3.1842,3.2036,3.3248,3.3899,3.4288,3.4606,3.5632,3.6431,3.5864,3.5416,3.5057,3.4846,3.4105,3.3504,3.3579,3.3949,3.4637,3.5732,3.6578,3.7385,3.8309,3.9307,3.9978,3.9978,4.0043,4.006,4.006,3.9325,3.8473,3.7602,3.711,3.651,3.5658,3.56,3.5824,3.6307,3.5924,3.534,3.4529,3.4435,3.3771,3.2477,3.2025,3.1487,3.0895,3.0362,3.0041,2.9942,2.9761,2.9696,2.9696,2.9696,0.0,2.9696,2.9696,2.9625,2.9533,2.9533,2.9456,2.9355,2.9355,2.9355,2.9392,0.0,0.0,0.0,0.0,0.0,0.0,0.0,2.1099,2.2177,2.2888,2.361,2.383,2.31,2.3132,2.3204,0.0,0.0,0.0,0.0,0.0,0.0,0.0,0.0,0.0,0.0,0.0,0.0,1.8354,1.8137,0.0,0.0,0.0,0.0,0.0,1.4389,1.4612,1.5096,1.6166,1.7189,0.0,0.0,2.0426,0.0,0.0,0.0,0.0,0.0,2.7225,2.7963,2.8394,2.9183,3.0234,3.121,3.1651,3.2038,3.3136,3.4034,3.4701,3.4839,3.584,3.6531,3.522,3.4781,3.45,3.3879,3.3444,3.3154,3.3232,3.3689,3.4309,3.5142,3.6203,3.7034,3.7352,3.8824,3.9838,3.9585,4.0085,4.0566,4.0758,4.0046,3.9142,3.8104,3.7392,3.6551,3.5489,3.5369,3.5399,3.5553,3.5562,3.5096,3.405,3.3923,3.3045,3.1369,3.1309,3.0825,2.9939,2.9893,2.978,2.9625,2.957,2.9551,2.957,2.9739,0.0,0.0,2.9681,2.952,2.93,2.9156,2.8943,2.8785,2.8949,2.8913,2.8822,0.0,0.0,0.0,0.0,0.0,0.0,0.0,2.0638,2.2076,2.2492,2.3459,2.395,2.3483,2.3912,2.4255,0.0,0.0,0.0,0.0,0.0,0.0,0.0,0.0,0.0,0.0,0.0,0.0,1.9221,1.8125,0.0,0.0,0.0,0.0,0.0,0.0,1.5925,1.6461,1.6796,0.0,0.0,0.0,0.0,0.0,0.0,0.0,0.0,0.0,2.772,2.7548,2.9275,2.9564,2.9393,3.0309,3.1208,3.2077,3.2883,3.365,3.4358,3.5287,3.562,3.565,3.5336,3.4688,3.4129,3.3915,3.338,3.3014,3.3316,3.3671,3.3998,3.4264,3.472,3.5363,3.6269,3.7379,3.8661,4.0181,4.045,4.0777,4.1585,4.0912,3.9758,3.8161,3.793,3.7126,3.5288,3.4908,3.4889,3.5149,3.5149,3.4304,3.2463,3.2408,3.1595,2.9912,2.9895,2.9841,2.9731,2.9533,2.9454,2.9414,2.9181,2.9067,2.9104,2.9839,2.9948,0.0,2.9598,2.9368,2.8952,2.8287,2.802,2.8081,2.8763,2.8568,2.8205,0.0,0.0,0.0,0.0,0.0,0.0,1.8994,2.0714,2.2197,2.3012,2.4016,2.4709,2.4925,2.5166,2.4906,0.0,0.0,0.0,0.0,0.0,0.0,0.0,0.0,0.0,0.0,0.0,1.9036,1.9066,1.8269,0.0,0.0,0.0,0.0,0.0,0.0,1.6727,1.7765,1.805,0.0,0.0,0.0,0.0,0.0,0.0,0.0,0.0,0.0,0.0,2.8204,2.8982,2.9279,2.9454,2.9694,3.0593,3.1643,3.2243,3.2957,3.3722,3.4699,3.5267,3.5379,3.4413,3.3926,3.3419,3.2493,3.2476,3.2681,3.2844,3.339,3.3895,3.4087,3.4398,3.4978,3.6064,3.7173,3.8354,3.9604,4.0181,4.0623,4.0969,4.07,3.9835,3.8161,3.7843,3.695,3.5003,3.4754,3.4674,3.4555,3.4735,3.4056,3.226,3.2185,3.1638,3.0431,3.0431,3.0358,3.0243,3.0161,2.965,2.879,2.8688,2.8533,2.837,2.8676,2.8721,0.0,2.8566,2.8482,2.8322,2.8003,2.818,2.8594,2.8894,2.9107,2.9306,0.0,0.0,0.0,0.0,0.0,1.8859,1.9253,2.0922,2.2506,2.3382,2.4546,2.5345,2.5598,2.5781,2.5342,2.4035,0.0,0.0,0.0,0.0,0.0,0.0,0.0,0.0,0.0,0.0,1.9042,1.9229,1.8609,1.8725,0.0,0.0,1.788,1.8051,0.0,0.0,0.0,0.0,0.0,0.0,0.0,0.0,0.0,0.0,0.0,0.0,0.0,0.0,0.0,0.0,0.0,2.9499,2.9486,3.0154,3.1145,3.1878,3.2684,3.3506,3.4465,3.5172,3.5267,3.3778,3.3406,3.3017,3.1647,3.1896,3.2484,3.2583,3.3225,3.3807,3.3972,3.4255,3.4833,3.5931,3.7085,3.8265,3.9473,4.0354,4.0969,4.1239,4.1171,4.0353,3.845,3.7259,3.6043,3.4666,3.4464,3.433,3.4074,3.4307,3.3783,3.236,3.2323,3.1911,3.1066,3.0804,3.0679,3.0669,3.0429,2.9814,2.8891,2.8685,2.8566,2.8541,2.857,2.8623,0.0,2.8727,2.8654,2.8512,2.8072,2.8211,2.8669,2.8896,2.9193,2.9493,0.0,0.0,0.0,0.0,0.0,0.0,1.9253,2.134,2.3043,2.3437,2.4922,2.5655,2.505,2.5528,2.564,2.5008,0.0,0.0,0.0,0.0,0.0,0.0,0.0,0.0,0.0,0.0,1.9865,2.01,1.9298,1.9406,2.0398,1.9857,1.9302,1.8818,0.0,0.0,0.0,0.0,0.0,0.0,0.0,0.0,0.0,0.0,0.0,0.0,0.0,0.0,0.0,0.0,0.0,0.0,0.0,3.0033,3.05,3.1987,3.3044,3.3985,3.5027,3.5458,3.5267,3.3778,3.3406,3.3083,3.1846,3.1949,3.2401,3.2809,3.3273,3.3643,3.378,3.4124,3.472,3.575,3.692,3.8353,4.0223,4.1239,4.2104,4.297,4.2718,4.1531,3.9108,3.6066,3.4218,3.42,3.3961,0.0,3.3788,3.3807,3.3421,3.2614,3.2596,3.221,3.1409,3.0595,3.0421,3.0792,2.9999,2.9794,3.0053,2.9336,2.9377,3.0088,3.015,3.0319,0.0,3.063,3.0451,2.9922,2.8399,2.7824,2.7909,2.8723,2.8484,2.8044,0.0,0.0,0.0,0.0,0.0,0.0,0.0,2.1502,2.2842,2.3434,2.4546,2.5359,2.5584,2.5781,2.5809,2.5626,0.0,0.0,0.0,0.0,0.0,0.0,0.0,0.0,0.0,0.0,2.0803,2.0985,2.0344,2.0476,2.125,2.0018,1.9934,2.0745,1.9851,2.0316,0.0,0.0,0.0,0.0,0.0,0.0,2.6736,0.0,0.0,0.0,0.0,0.0,0.0,0.0,0.0,0.0,0.0,0.0,0.0,3.1556,3.2177,3.2687,3.3119,3.3668,3.3905,3.311,3.2935,3.274,3.2029,3.2299,3.2745,3.2872,3.3361,3.3753,3.3788,3.446,3.551,3.7031,3.8164,3.9545,4.1509,4.1863,4.1898,4.1798,4.0036,3.8442,3.7487,3.546,3.4123,3.3935,3.3842,3.3807,3.3807,3.3807,3.344,3.2632,3.2338,3.2073,3.1819,3.1229,3.1023,3.1151,3.0884,3.037,2.9671,2.9428,2.9348,2.9351,2.9386,0.0,0.0,2.9534,2.9442,2.9245,2.823,2.845,2.9347,2.9076,2.9465,3.0192,0.0,0.0,0.0,0.0,0.0,0.0,0.0,2.1901,2.31,2.3807,2.485,2.5604,2.6,2.615,2.615,2.6042,0.0,0.0,0.0,0.0,0.0,0.0,0.0,0.0,0.0,2.1895,2.144,2.1534,2.1148,2.1248,2.1839,2.0883,2.0874,2.158,2.0924,2.1368,0.0,0.0,0.0,0.0,0.0,0.0,2.7408,0.0,0.0,0.0,0.0,0.0,0.0,0.0,0.0,0.0,0.0,0.0,0.0,0.0,3.1729,3.2089,3.2444,3.3034,3.341,3.2943,3.2907,3.285,3.2301,3.2616,3.2996,3.2996,3.3419,3.3807,3.3807,3.4448,3.5529,3.7287,3.8461,3.9819,4.1661,4.2309,4.2403,4.1863,3.9486,3.766,3.7042,3.5217,3.3986,3.3815,3.3807,3.3807,3.3807,3.3652,3.3359,3.2839,3.2578,3.2355,3.2187,3.1586,3.1361,3.1477,3.1179,3.0715,3.0122,2.9848,2.9756,2.9803,2.9533,0.0,0.0,2.982,2.982,2.9736,2.8975,2.9262,3.004,2.9583,2.9989,3.0818,0.0,0.0,0.0,0.0,0.0,0.0,0.0,2.2451,2.3756,2.4419,2.5549,2.6293,2.6375,2.6563,2.6616,2.639,0.0,0.0,0.0,0.0,0.0,0.0,0.0,0.0,2.3834,2.2681,2.2055,2.2009,2.1761,2.1849,2.2309,2.2273,2.2056,2.1607,2.2441,2.263,0.0,0.0,0.0,0.0,0.0,0.0,0.0,0.0,0.0,0.0,0.0,0.0,0.0,0.0,0.0,0.0,0.0,0.0,0.0,0.0,0.0,0.0,0.0,3.3328,3.3562,3.3107,3.3174,3.3231,3.2694,3.2921,0.0,3.3214,3.3522,3.3844,3.3954,3.4266,3.5138,3.693,3.8215,3.9482,4.1013,4.2507,4.3246,4.2752,4.0505,3.8581,3.7518,3.522,3.3807,3.3807,3.3807,3.3807,3.3762,3.339,3.3184,3.3105,3.3105,3.2872,3.2451,3.1694,3.1461,3.1752,3.0991,3.0842,3.1173,3.0497,3.0548,0.0,0.0,0.0,0.0,3.119,3.119,3.1067,3.0302,3.0049,3.0044,2.9993,3.001,3.0162,0.0,0.0,0.0,0.0,0.0,0.0,0.0,0.0,0.0,0.0,2.5358,2.6199,2.6997,2.6864,2.6826,0.0,0.0,0.0,0.0,0.0,0.0,0.0,0.0,0.0,2.4844,2.4195,2.3909,2.3851,2.378,2.367,2.3564,2.3232,2.3193,2.3405,2.3269,2.3808,0.0,0.0,0.0,0.0,0.0,0.0,0.0,0.0,0.0,0.0,2.9589,3.007,0.0,0.0,0.0,0.0,0.0,0.0,0.0,0.0,3.2231,3.2438,3.2564,0.0,3.2669,3.2736,3.2918,3.3059,0.0,3.3357,3.3502,3.3502,3.3652,3.4192,3.5477,3.5781,3.6648,3.9125,4.0114,4.1053,4.2438,4.2202,4.1805,4.1525,3.8822,3.6877,3.6626,3.489,3.3807,3.3807,3.3807,3.368,3.3361,3.3243,3.2872,3.2161,3.2127,3.2109,3.2056,3.1485,3.1278,3.1351,3.1142,3.1121,3.119,3.1021,3.1038,3.119,0.0,0.0,3.119,3.119,3.0918,3.0452,2.9722,2.9469,2.9497,2.8945,2.9091,2.9594,0.0,0.0,0.0,0.0,0.0,0.0,0.0,0.0,0.0,0.0,0.0,0.0,0.0,0.0,0.0,0.0,0.0,0.0,0.0,0.0,0.0,0.0,0.0,2.5591,2.5591,2.5133,2.4894,2.4894,2.4894,2.4838,2.4641,2.4206,2.4219,2.4641,2.4598,2.5244,0.0,0.0,0.0,0.0,2.8027,0.0,0.0,0.0,0.0,0.0,3.0156,3.051,0.0,3.1134,3.1334,3.1507,0.0,0.0,0.0,0.0,3.2749,3.2925,3.2925,3.2749,3.2616,3.2876,3.3063,3.3273,3.353,3.3643,3.3698,3.3698,3.3753,3.4192,3.5477,3.6094,3.7137,3.9333,4.0648,4.1871,4.3282,4.2502,4.1641,4.1148,3.8597,3.6707,3.634,3.478,3.3807,3.3807,3.3625,3.3419,3.3214,3.2809,3.2315,3.1825,3.164,3.1545,3.1579,3.1346,3.119,3.119,3.119,3.119,3.119,3.119,3.119,0.0,0.0,0.0,3.119,3.119,3.1015,3.0666,3.0249,2.9988,2.9756,2.9367,2.9291,2.9406,0.0,0.0,0.0,0.0,0.0,0.0,0.0,0.0,0.0,0.0,0.0,0.0,0.0,0.0,0.0,0.0,0.0,0.0,0.0,0.0,0.0,0.0,0.0,2.6176,2.6176,2.5783,2.5618,2.5618,2.5618,2.5618,2.5563,2.5315,2.5315,2.5618,2.6068,2.6616,0.0,0.0,0.0,0.0,2.8701,0.0,0.0,0.0,0.0,0.0,0.0,0.0,0.0,3.1562,3.1787,3.1951,3.2299,0.0,0.0,0.0,0.0,0.0,3.3452,3.3322,3.3219,3.3232,3.3455,3.3643,3.378,3.3807,3.3807,3.3807,3.3899,3.4321,3.5357,3.6261,3.7433,3.9276,4.0867,4.2329,4.3643,4.2824,4.1864,4.1185,3.8854,3.7037,3.6358,3.478,3.3762,3.3707,3.339,3.3154,3.3014,3.223,3.1789,3.1733,3.1389,3.119,3.119,3.119,3.119,3.119,3.119,3.119,3.119,3.119,3.119,3.119,0.0,0.0,3.119,3.1095,3.1015,3.0918,3.0821,3.0435,2.9892,2.9892,2.9569,2.9134,0.0,0.0,0.0,0.0,0.0,0.0,0.0,0.0,0.0,0.0,0.0,0.0,0.0,0.0,0.0,0.0,0.0,0.0,0.0,0.0,0.0,2.84,2.7261,2.6616,2.6616,2.6563,2.651,2.651,2.651,2.651,2.651,2.6443,2.6443,2.651,2.6841,2.7255,2.7645,0.0,0.0,0.0,2.9303,0.0,0.0,0.0,0.0,0.0,0.0,0.0,0.0,3.2056,3.2299,3.2451,3.2713,0.0,0.0,0.0,0.0,0.0,3.3753,3.4192,3.4483,3.3723,3.3671,3.378,3.3807,3.3807,3.3807,3.3807,3.4357,3.5514,3.7734,3.826,3.9209,4.1813,4.2448,4.286,4.3487,4.2264,4.1258,4.113,3.8377,3.6431,3.6303,3.478,3.3652,3.3302,3.3243,3.284,3.2057,3.1897,3.1623,3.1291,3.123,3.119,3.119,3.119,3.119,3.119,3.119,3.119,3.119,3.119,3.119,3.119,0.0,3.119,3.1151,3.0658,3.0123,2.9629,2.9088,2.8543,2.8027,2.8027,2.7944,2.7894,0.0,0.0,0.0,0.0,0.0,0.0,0.0,0.0,0.0,0.0,0.0,0.0,0.0,0.0,0.0,0.0,0.0,0.0,0.0,0.0,2.8889,2.8919,2.8352,2.7815,2.7509,2.7306,2.7203,2.7203,2.7408,2.7408,2.7203,2.7203,2.7291,2.7449,2.778,2.8174,2.867,2.9012,2.9348,0.0,0.0,0.0,0.0,0.0,0.0,0.0,0.0,0.0,0.0,0.0,3.2763,3.2921,3.3184,0.0,0.0,0.0,0.0,0.0,3.4302,3.4559,3.4857,3.4828,3.4984,3.5037,3.4559,3.4816,3.5018,3.4559,3.5128,3.6321,3.834,3.9056,4.0184,4.2738,4.3176,4.324,4.3477,4.2121,4.1111,4.1111,3.8267,3.6303,3.6303,3.4593,3.3408,3.3214,3.2727,3.2264,3.1808,3.1603,3.1372,3.119,3.119,3.119,3.119,3.119,3.119,3.119,3.119,3.119,3.119,3.119,3.119,3.119,0.0,3.119,3.119,3.0878,3.0435,2.9848,2.9585,2.8904,2.8042,2.771,2.7814,2.8128,0.0,0.0,0.0,0.0,0.0,0.0,0.0,0.0,0.0,0.0,0.0,0.0,0.0,0.0,0.0,0.0,0.0,0.0,0.0,0.0,2.9512,2.9438,2.9257,2.8889,2.8301,2.8008,2.7769,2.7633,2.8079,2.8204,2.7944,2.7944,2.811,2.8401,2.8638,2.9012,2.9556,2.9881,3.0097,0.0,0.0,0.0,0.0,0.0,0.0,0.0,0.0,0.0,0.0,0.0,0.0,0.0,0.0,0.0,0.0,3.4334,3.4508,3.4694,3.4694,3.4845,3.5128,3.5752,3.5923,3.5908,3.5843,3.6176,3.6416,3.6165,3.6565,3.7403,3.884,3.9834,4.1056,4.291,4.3369,4.3424,4.324,4.2011,4.0965,4.0598,3.8028,3.6211,3.6028,3.4291,3.3136,3.3045,3.2264,3.1752,3.166,3.1389,3.119,3.119,3.119,3.119,3.119,3.119,3.119,3.119,3.119,3.119,3.119,3.119,3.119,3.119,3.1055,3.1015,3.0975,3.0699,3.0309,2.9848,2.9717,2.9183,2.8483,2.8001,2.8248,2.8831,0.0,0.0,0.0,0.0,0.0,0.0,0.0,0.0,0.0,0.0,0.0,0.0,0.0,0.0,0.0,0.0,0.0,0.0,0.0,0.0,3.0113,3.0384,2.9733,2.9134,2.8685,2.8638,2.8295,2.7689,2.8342,2.8795,2.8982,2.8982,2.9104,2.9316,2.9316,2.9556,2.9968,2.9984,3.0477,3.1218,3.138,0.0,0.0,0.0,0.0,0.0,0.0,0.0,0.0,0.0,0.0,0.0,0.0,0.0,3.4674,3.4674,3.4674,3.4694,3.4694,3.526,3.5824,3.588,3.535,3.5426,3.7713,3.7656,3.7543,3.9037,3.9158,3.9256,4.0123,4.1305,4.2176,4.2359,4.3002,4.3222,4.2488,4.1644,4.0561,3.9056,3.7349,3.5973,3.5155,3.3946,3.3014,3.2583,3.2092,3.164,3.1252,3.123,3.119,3.119,3.119,3.119,3.119,3.119,3.119,3.119,3.119,3.119,3.119,3.119,3.119,3.1151,3.0617,3.0335,3.0293,2.9134,2.8654,2.8559,2.8027,2.8101,2.8584,2.8517,2.8951,2.9505,0.0,0.0,0.0,0.0,0.0,0.0,0.0,0.0,0.0,0.0,0.0,0.0,0.0,0.0,0.0,0.0,0.0,0.0,0.0,3.0814,3.0757,3.0733,3.0493,3.0182,2.9837,2.893,2.8313,2.806,2.8313,2.8857,2.9661,2.9422,2.9556,2.9995,3.0117,3.051,3.0988,3.1304,3.1642,3.1914,3.2057,0.0,0.0,0.0,0.0,0.0,0.0,0.0,0.0,0.0,3.4147,3.4401,3.4467,3.4715,3.4944,3.4944,3.507,3.5207,3.5207,3.5763,3.6528,3.708,3.6984,3.6915,3.7499,3.8606,3.9532,3.9668,4.0234,4.0728,4.0806,4.1632,4.2304,4.2304,4.2561,4.247,4.168,4.0432,3.9203,3.8083,3.6279,3.4981,3.4673,3.3223,3.2264,3.2057,3.1677,3.1351,3.119,3.119,3.119,3.119,3.119,3.119,3.119,3.119,3.119,3.119,3.119,3.119,3.119,3.119,3.119,3.119,3.0975,3.0878,3.0821,3.0393,2.9717,2.8997,2.8414,2.8368,2.8652,2.9056,2.9609,3.0163,0.0,0.0,0.0,0.0,0.0,0.0,0.0,0.0,0.0,0.0,0.0,0.0,0.0,0.0,0.0,0.0,0.0,0.0,3.16,3.16,3.1524,3.1372,3.1334,3.124,3.1067,2.9842,2.9018,2.8682,2.8682,2.9209,3.0284,3.0064,3.0302,3.0794,3.1077,3.1456,3.1913,3.2231,3.2401,3.2502,3.2648,3.2777,0.0,0.0,0.0,0.0,0.0,0.0,0.0,0.0,3.4467,3.4695,3.4793,3.4999,3.5223,3.5223,3.5354,3.5493,3.5493,3.6103,3.6853,3.745,3.8007,3.8297,3.789,3.9353,4.0739,4.0634,4.0942,4.1043,4.0441,4.1001,4.1534,4.1534,4.1534,4.1258,4.0469,3.9184,3.7918,3.6835,3.5447,3.4437,3.4063,3.2818,3.1951,3.1825,3.1411,3.119,3.119,3.119,3.119,3.119,3.119,3.119,3.119,3.119,3.1095,3.0918,3.0918,3.1015,3.119,3.1015,3.0918,3.0878,3.0518,3.0351,3.0335,3.0149,2.9569,2.8842,2.8667,2.8727,2.8981,2.9624,3.0283,3.0836,0.0,0.0,0.0,0.0,0.0,0.0,0.0,0.0,0.0,0.0,0.0,0.0,0.0,0.0,0.0,0.0,0.0,0.0,3.2484,3.2484,3.2417,3.2317,3.2317,3.2317,3.2317,3.1579,3.0681,2.9523,2.9523,3.0009,3.0912,3.1196,3.149,3.1825,3.2162,3.2368,3.2517,3.2517,3.2681,3.2934,3.3136,3.3379,3.3615,0.0,0.0,0.0,0.0,0.0,0.0,0.0,3.4774,3.5105,3.5105,3.5289,3.5512,3.5493,3.5526,3.5512,3.5493,3.6103,3.6719,3.6719,3.8027,3.9296,3.9315,3.9931,4.0921,4.2316,4.141,4.0039,3.8927,3.935,3.99,3.9882,3.9882,3.9588,3.8799,3.7973,3.6853,3.5174,3.4972,3.4501,3.3286,3.2745,3.2298,3.1825,3.1411,3.119,3.119,3.119,3.119,3.119,3.119,3.119,3.119,3.119,3.0878,3.0293,3.0293,3.0617,3.1151,3.0559,3.0293,3.0208,2.9012,2.8511,2.8463,2.786,2.7625,2.77,2.8338,2.9011,2.9654,3.0283,3.0941,3.1482,0.0,0.0,0.0,0.0,0.0,0.0,0.0,0.0,0.0,0.0,0.0,0.0,0.0,0.0,0.0,0.0,0.0,0.0,3.2484,3.2484,3.2484,3.2451,3.2417,3.2417,3.2417,3.2239,3.1667,3.0854,3.0854,3.1237,3.2039,3.2109,3.2213,3.2298,3.2598,3.2745,3.2809,3.3124,3.339,3.3616,3.3802,3.4049,3.426,0.0,0.0,0.0,0.0,0.0,0.0,0.0,0.0,0.0,3.5335,3.5816,3.6238,3.568,3.5911,3.6219,3.5661,3.6526,3.7603,3.7603,3.8892,4.0092,3.9905,4.0663,4.1564,4.2139,4.1255,4.0225,3.9663,3.9735,3.9698,3.9148,3.9056,3.8579,3.7202,3.6285,3.5235,3.388,3.3448,3.2962,3.2282,3.1842,3.1524,3.1389,3.1252,3.119,3.119,3.119,3.119,3.119,3.119,3.119,3.119,3.119,3.1112,3.0918,3.0918,3.0559,2.9951,2.9761,2.9673,2.9629,2.9271,2.9134,2.9088,2.8496,2.8238,2.8296,2.9041,2.94,2.9714,3.0821,3.1302,3.1482,0.0,0.0,0.0,0.0,0.0,0.0,0.0,0.0,0.0,0.0,3.3029,0.0,0.0,0.0,0.0,0.0,0.0,0.0,0.0,3.3128,3.3128,3.2754,3.3073,3.3255,3.3255,3.333,3.3149,3.273,3.2102,3.2057,3.2517,3.2616,3.2727,3.2898,3.3201,3.3413,3.3579,3.3899,3.4111,3.4232,3.4353,3.4467,3.4572,0.0,0.0,0.0,0.0,0.0,0.0,0.0,0.0,0.0,3.546,3.6065,3.6546,3.5738,3.6315,3.7046,3.6199,3.7219,3.8527,3.8527,3.9508,4.0457,4.0304,4.0502,4.0796,4.1043,4.0379,3.9653,3.9467,3.9148,3.8781,3.8303,3.7661,3.6909,3.5917,3.4914,3.4011,3.3298,3.2795,3.2316,3.1861,3.1565,3.1389,3.123,3.119,3.119,3.119,3.119,3.119,3.119,3.119,3.119,3.119,3.119,3.0975,3.0477,3.0477,2.9848,2.8717,2.9451,2.9629,2.9361,2.8904,2.867,2.867,2.8271,2.814,2.8229,2.9215,2.9579,2.9744,3.1046,3.1482,3.1482,0.0,0.0,0.0,0.0,0.0,0.0,0.0,0.0,0.0,0.0,3.322,3.3817,0.0,0.0,0.0,0.0,0.0,0.0,0.0,0.0,3.4132,3.3287,3.4001,3.4414,3.4414,3.4595,3.4694,3.4694,3.3358,3.2709,3.2709,3.296,3.3259,3.3625,3.3931,3.4223,3.4529,3.4653,3.4694,3.4714,3.4734,3.4734,3.4754,3.4754,0.0,0.0,0.0,0.0,0.0,0.0,0.0,0.0,3.5699,3.6276,3.6776,3.5968,3.6873,3.793,3.7065,3.8027,3.9296,3.9296,3.9877,4.0473,4.0473,3.9759,3.9205,3.9529,3.9127,3.8707,3.8707,3.8028,3.7489,3.7386,3.6046,3.4954,3.4899,3.392,3.3184,3.3154,3.2713,3.223,3.1789,3.1752,3.1603,3.123,3.119,3.119,3.119,3.119,3.119,3.119,3.119,3.119,3.119,3.119,3.0658,2.9585,2.9585,2.8996,2.7993,2.939,2.9761,2.918,2.8076,2.7625,2.7625,2.7625,2.7625,2.7745,2.9056,2.9579,2.9744,3.1046,3.1482,3.1482,0.0,0.0,0.0,0.0,0.0,0.0,0.0,0.0,0.0,0.0,0.0,0.0,0.0,0.0,0.0,0.0,0.0,0.0,0.0,0.0,3.4559,3.4352,3.454,3.4634,3.4634,3.4674,3.4694,3.4694,3.4364,3.4232,3.4232,3.4297,3.436,3.4445,3.4529,3.4593,3.4653,3.4674,3.4774,3.487,3.4981,3.5069,3.5168,3.5289,3.5339,0.0,0.0,0.0,0.0,0.0,0.0,0.0,3.7257,3.8046,3.8565,3.7719,3.82,3.8834,3.7969,3.8488,3.9296,3.9296,3.9744,4.0177,4.0177,3.9603,3.9205,3.9529,3.9127,3.8707,3.8707,3.8028,3.7276,3.6652,3.5679,3.477,3.4156,3.3556,3.3075,3.2681,3.223,3.1806,3.1389,3.1312,3.1291,3.119,3.119,3.119,3.119,3.119,3.119,3.119,3.119,3.119,3.119,3.119,3.1055,0.0,3.0797,3.0699,3.0377,2.8888,2.8125,2.7978,2.771,2.7625,2.7625,2.7625,2.7625,2.7745,2.9056,2.9579,2.9744,3.1046,3.1482,3.1482,0.0,0.0,0.0,0.0,0.0,0.0,0.0,0.0,0.0,0.0,0.0,0.0,0.0,0.0,0.0,0.0,0.0,0.0,0.0,0.0,3.5127,3.513,3.5102,3.5088,3.5088,3.5088,3.5088,3.5088,3.5088,3.4944,3.4694,3.4694,3.4734,3.4813,3.4851,3.4944,3.498,3.507,3.5122,3.5187,3.5254,3.5335,3.5412,3.546,3.5493,3.5493,3.5493,0.0,0.0,0.0,0.0,0.0,0.0,0.0,3.9123,3.8257,3.8892,3.9681,3.8854,3.9238,3.9838,3.9725,3.9757,3.9859,3.9859,3.9481,3.9133,3.9314,3.9008,3.8579,3.8193,3.7459,3.6652,3.5807,3.4981,3.4284,3.3862,3.3255,3.2777,3.2517,3.1914,3.1449,3.123,3.119,3.119,3.119,3.119,3.119,3.119,3.119,3.119,3.119,3.119,3.119,3.119,3.119,3.1055,3.074,3.017,2.9502,2.8884,2.8513,2.8355,2.8339,2.8031,2.8138,2.8448,2.8448,2.8448,2.8541,2.9593,2.996,3.0079,3.1113,3.1656,3.1944,0.0,0.0,0.0,0.0,0.0,0.0,0.0,0.0,0.0,0.0,0.0,0.0,0.0,0.0,0.0,0.0,0.0,0.0,0.0,0.0,0.0,3.5623,3.556,3.5528,3.5515,3.5528,3.5515,3.5493,3.5501,3.5285,3.4851,3.4851,3.4889,3.5015,3.5122,3.5239,3.533,3.5474,3.5515,3.5515,3.5528,3.5528,3.5515,3.5515,3.552,3.5493,3.5493,3.5493,3.5532,3.5834,0.0,0.0,0.0,0.0,3.9373,3.8642,3.9411,4.0335,3.9681,3.9973,4.0372,4.0081,3.9797,3.9599,3.9529,3.9289,3.9099,3.9036,3.8855,3.845,3.7643,3.6835,3.6009,3.5137,3.4266,3.3707,3.3707,3.2934,3.2384,3.2384,3.1694,3.119,3.119,3.119,3.119,3.119,3.119,3.119,3.119,3.119,3.119,3.119,3.1112,3.1055,3.1055,3.0918,3.0658,3.0107,2.8963,2.7703,2.6427,2.8003,2.8837,2.9026,2.8522,2.8706,2.9406,2.9271,2.9225,2.9289,2.9864,3.0085,3.0179,3.083,3.1514,3.2037,0.0,0.0,0.0,0.0,0.0,0.0,0.0,0.0,0.0,0.0,3.4167,3.4216,0.0,0.0,0.0,0.0,0.0,0.0,3.5527,0.0,0.0,3.5689,3.5679,3.5637,3.5589,3.5637,3.5623,3.5493,3.556,3.5515,3.5383,3.5383,3.5398,3.5432,3.5446,3.5446,3.5474,3.554,3.5589,3.5589,3.5648,3.5637,3.5589,3.5589,3.5547,3.5493,3.5493,3.5493,3.5718,3.718,3.7738,0.0,0.0,0.0,4.0315,4.02,4.0315,4.0469,4.0354,4.0262,4.0062,3.9754,3.9622,3.951,3.9238,3.9133,3.9036,3.8803,3.8719,3.845,3.7643,3.6835,3.6009,3.5137,3.4022,3.3273,3.3273,3.2466,3.188,3.188,3.147,3.119,3.119,3.119,3.119,3.119,3.119,3.119,3.119,3.119,3.119,3.119,3.0699,3.0435,3.0435,2.9892,2.9585,2.9524,2.8746,2.7662,2.6302,2.6559,2.7306,2.8421,2.8334,2.8706,2.9361,2.8826,2.8606,2.8621,2.8804,2.8837,2.8927,2.9576,3.0132,3.0503,0.0,0.0,0.0,0.0,0.0,0.0,0.0,0.0,0.0,0.0,0.0,3.4153,0.0,0.0,0.0,3.5295,3.5646,3.586,3.5875,3.5825,3.5814,3.582,3.5741,3.5688,3.566,3.5669,3.5679,3.5599,3.5631,3.565,3.5611,3.5611,3.5566,3.5507,3.5554,3.556,3.556,3.5635,3.5658,3.5658,3.5689,3.5658,3.5601,3.5601,3.556,3.5493,3.5493,3.5493,3.568,3.6873,3.7603,3.8123,3.8873,0.0,0.0,0.0,4.0142,4.0473,4.0321,3.9924,3.9486,3.9339,3.9197,3.9064,3.8913,3.8884,3.8844,3.8719,3.8707,3.8322,3.7055,3.6339,3.5496,3.4193,3.334,3.2809,3.2809,3.223,3.1789,3.1789,3.1449,3.119,3.119,3.119,3.119,3.119,3.119,3.119,3.119,3.119,3.119,3.119,3.0918,3.0658,3.0293,3.0038,2.9182,2.7769,2.7076,2.6392,2.5686,2.5686,2.6246,2.7182,2.7582,2.8158,2.8874,2.8976,2.8996,2.8997,2.9028,2.9233,2.958,2.9918,3.0694,3.1564,0.0,0.0,0.0,0.0,0.0,0.0,0.0,0.0,0.0,0.0,0.0,0.0,0.0,0.0,0.0,0.0,3.597,3.5971,3.5971,3.5921,3.591,3.5896,3.5791,3.5749,3.576,3.5774,3.5748,3.5698,3.5723,3.5736,3.5703,3.5703,3.5638,3.5558,3.5588,3.562,3.563,3.5726,3.5743,3.5735,3.5735,3.5679,3.5654,3.5825,3.5868,3.5834,3.6065,3.6142,3.6257,3.7084,3.7796,3.8334,3.8334,3.9335,0.0,0.0,0.0,3.9962,3.9886,3.9312,3.8811,3.8952,3.8844,3.8707,3.8707,3.8707,3.8707,3.8707,3.8578,3.8076,3.6668,3.5981,3.5097,3.3566,3.274,3.2316,3.2316,3.1933,3.166,3.166,3.1372,3.119,3.119,3.119,3.119,3.119,3.119,3.119,3.119,3.119,3.119,3.119,3.1055,3.0757,3.0293,2.9969,2.8646,2.6432,2.5915,2.551,2.5221,2.5221,2.5509,2.6054,2.7001,2.7973,2.8851,2.9216,2.9468,2.9629,2.9451,2.9673,3.0103,3.0135,3.0862,3.172,0.0,0.0,0.0,0.0,0.0,0.0,0.0,0.0,0.0,0.0,0.0,0.0,3.5971,3.5891,3.5859,3.5898,3.5909,3.5918,3.5918,3.5901,3.5893,3.5896,3.5895,0.0,3.5885,3.5955,3.5884,3.5703,3.583,3.583,3.5703,3.5703,3.5703,3.5689,3.5696,3.5696,3.5696,3.5825,3.585,3.5781,3.5781,3.5745,3.5766,3.6466,3.6698,3.6757,3.7565,3.7873,3.8007,3.8873,3.9181,3.9219,3.9219,3.9815,4.0284,0.0,0.0,0.0,3.9032,3.8574,3.8069,3.8589,3.8689,3.8707,3.8707,3.8707,3.8707,3.8707,3.83,3.7693,3.6829,3.6103,3.5163,3.3789,3.2599,3.1861,3.1861,3.1487,3.123,3.123,3.123,3.119,3.119,3.119,3.119,3.119,3.119,3.119,3.119,3.119,3.119,3.119,3.0658,3.0335,3.0293,2.9038,2.7652,2.6213,2.6165,2.5847,2.5221,2.5221,2.5237,2.5339,2.7042,2.8612,2.9977,2.9433,2.9626,3.0208,2.9629,2.9406,2.9451,2.9438,2.9494,2.9405,0.0,0.0,0.0,0.0,0.0,0.0,0.0,0.0,0.0,0.0,0.0,0.0,0.0,3.5914,3.5899,3.5893,3.5903,3.59,3.59,3.59,3.5913,3.5954,3.5917,3.5917,3.5957,3.5984,3.596,3.5887,3.5942,3.5947,3.5882,3.5882,3.5882,3.5899,3.5856,3.583,3.583,3.5927,3.5955,3.5966,3.6448,3.6596,3.6609,3.7336,3.7591,3.7584,3.7892,3.8007,3.8123,3.9008,3.9296,3.9296,3.9296,3.972,4.0119,3.9501,3.91,3.8777,3.8425,3.7988,3.7561,3.7232,3.7551,3.7918,3.7918,3.8322,3.8596,3.8267,3.8013,3.763,3.6688,3.5537,3.4392,3.3366,3.2214,3.1411,3.1411,3.1291,3.119,3.119,3.119,3.119,3.119,3.119,3.119,3.119,3.119,3.119,3.119,3.119,3.119,3.119,3.1015,3.0466,2.9601,2.7498,2.6351,2.619,2.539,2.5282,2.5726,2.5726,2.5872,2.621,2.6825,2.7551,2.8306,2.854,2.907,2.9717,2.9496,2.9629,2.9978,2.9837,3.0098,3.0479,0.0,0.0,0.0,0.0,0.0,0.0,0.0,0.0,0.0,3.5968,0.0,0.0,0.0,0.0,3.5885,3.5869,3.5869,3.5869,3.5869,3.5869,3.5895,3.5955,3.5925,3.5934,3.5994,3.5994,3.5994,3.5994,3.5996,3.5996,3.5996,3.5996,3.584,3.5566,3.5825,3.5926,3.5949,3.5982,3.6003,3.6055,3.6785,3.7058,3.7148,3.8136,3.8497,3.8507,3.8753,3.8834,3.8931,3.9508,3.97,3.9604,3.8946,3.865,3.858,3.8625,3.8196,3.7747,3.7765,3.722,3.667,3.6688,3.6842,3.6966,3.6888,3.7447,3.7834,3.7359,3.7345,3.7193,3.6522,3.5272,3.4048,3.3252,3.2258,3.1461,3.1224,3.141,3.1562,3.1562,3.1782,3.1833,3.1579,3.1562,3.1461,3.1207,3.119,0.0,3.119,3.119,3.119,3.119,3.0954,3.0292,2.9154,2.7194,2.6246,2.6368,2.5545,2.5561,2.6227,2.6227,2.6401,2.6691,2.6691,2.6981,2.7515,2.8249,2.8983,2.9668,2.9897,3.0251,3.0601,3.046,3.0758,3.1215,0.0,0.0,0.0,0.0,0.0,0.0,0.0,0.0,3.5897,3.5897,0.0,0.0,0.0,0.0,0.0,3.5799,3.5799,3.5799,3.5799,3.5799,3.5833,3.5903,3.5908,3.5932,3.5996,3.5996,3.5996,3.5996,3.5996,3.5996,3.5996,3.5976,3.5508,3.4746,3.5566,3.5918,3.5937,3.5976,3.5995,3.6026,3.674,3.7085,3.7306,3.8775,3.9389,3.9528,4.0246,4.0489,4.0489,4.0489,4.0489,4.015,3.8226,3.6699,3.5746,3.6472,3.5935,3.543,0.0,0.0,0.0,3.7,3.668,3.5915,3.5625,3.6044,3.6344,3.6024,3.6151,3.6305,3.6305,3.5318,3.4218,3.3491,3.2763,3.2019,3.1292,3.1799,3.2256,3.2313,3.2933,3.3085,3.2374,3.229,3.1985,3.1275,3.1207,3.119,3.119,3.119,3.119,3.119,3.0463,2.9719,2.9028,2.8161,2.7384,2.6691,2.6691,2.6691,2.6691,2.6691,2.6691,2.6691,2.6691,2.7114,2.7806,2.8653,2.9414,3.0142,3.0903,3.1173,3.1157,3.119,3.119,3.1202,0.0,0.0,0.0,0.0,0.0,0.0,3.5915,3.5901,3.5907,0.0,0.0,0.0,3.5903,3.5859,3.5815,3.5799,3.5799,3.5799,3.5799,3.5799,3.583,3.5903,3.5895,3.5926,3.6009,3.5995,3.5996,3.5996,3.5996,3.5996,3.5996,3.5351,3.4922,3.4687,3.4297,3.4121,3.4199,3.5469,3.5644,3.5232,3.7155,3.7946,3.8124,3.9612,4.0192,4.0207,4.0427,4.0489,4.0489,4.0489,4.0489,4.023,3.8669,3.8141,3.7873,3.674,3.7014,3.7404,3.6064,0.0,0.0,0.0,0.0,0.0,3.4449,3.4796,3.5226,3.4786,3.4749,3.4668,3.4277,3.3914,3.3457,3.2713,3.2408,3.2019,3.1292,3.1376,3.1681,3.2222,3.2459,3.273,3.3068,3.2594,3.2246,0.0,3.1495,3.119,3.119,3.119,3.119,3.119,2.9956,2.9194,2.9011,2.7336,2.6584,2.6691,2.6367,2.6367,2.6691,2.6691,2.6691,2.6691,2.6691,2.681,2.7114,2.8433,2.911,2.9414,3.07,3.0746,3.02,3.0937,3.119,3.1185,0.0,0.0,0.0,0.0,0.0,3.5906,3.5907,3.5903,3.5904,0.0,0.0,0.0,3.5852,3.5823,3.5799,3.5799,3.5799,3.5799,3.5799,3.5799,3.5823,3.5905,3.5909,3.5923,3.6003,3.5995,3.5996,3.5996,3.5996,3.5996,3.5996,3.5488,3.5059,3.4687,3.4551,3.4082,3.3516,3.5254,3.5508,3.4902,3.7331,3.8323,3.8498,3.9953,4.0519,4.0583,4.0519,4.0489,4.0489,4.0489,4.0106,3.9433,3.826,3.7903,3.759,3.58,3.6156,3.6927,3.5844,3.5991,3.6179,3.4956,0.0,0.0,3.3635,3.3704,3.3873,3.3485,3.3625,3.3785,3.3448,3.3406,3.3169,3.2408,3.2313,3.2019,3.1292,3.1732,3.2273,3.2696,3.3288,3.3711,3.3846,3.3186,3.2611,3.2347,3.1613,3.119,3.119,3.119,3.119,3.119,2.9753,2.9011,2.9011,2.7207,2.6436,2.6691,2.6401,2.6453,2.6691,2.6691,2.6691,2.6691,2.6691,2.6691,2.6776,2.7994,2.8687,2.9146,3.0277,3.056,3.0425,3.0987,3.119,3.1202,0.0,0.0,3.4862,3.5757,3.5907,3.59,3.5899,3.5883,3.5898,0.0,3.583,3.5799,3.5799,3.5799,3.5799,3.5799,3.5799,3.5799,3.5799,3.5799,3.5823,3.5898,3.5904,3.5919,3.5982,3.5995,3.5996,3.5996,3.5996,3.5996,3.5996,3.5898,3.5449,3.4726,3.541,3.4844,3.3516,3.5156,3.5469,3.5037,3.7272,3.8247,3.8514,3.9863,4.0487,4.0673,4.0534,4.0489,4.0489,4.0473,3.9604,3.8395,3.7546,3.6895,3.6119,3.4541,3.4651,3.5422,3.6009,3.576,3.5506,3.6179,3.5229,0.0,3.3078,3.2724,3.2457,3.2235,3.2696,3.3169,3.3169,3.3169,3.2933,3.2256,3.2195,3.1935,3.1275,3.2408,3.3322,3.3389,3.4573,3.5148,3.4556,3.3761,3.3,3.2364,3.1613,3.119,3.119,3.119,3.119,3.119,2.9753,2.9011,2.9011,2.7469,2.6691,2.6691,2.6691,2.6691,2.6691,2.6691,2.6691,2.6691,2.6691,2.6691,2.6742,2.7418,2.8095,2.8822,2.9719,3.0429,3.097,3.114,3.119,3.1202,0.0,3.4478,3.4878,3.5744,3.5908,3.5872,3.5818,3.5823,3.5815,3.5815,3.5807,3.5799,3.5799,3.5799,3.5799,3.5799,3.5799,3.5799,3.5799,3.5799,3.5799,3.5815,3.5869,3.5912,3.5916,3.5972,3.5996,3.5996,3.5996,3.5996,3.5976,3.5273,3.4863,3.4687,3.4141,3.3711,3.3476,3.4512,3.523,3.577,3.6879,3.7702,3.8343,3.927,4.0,4.0539,4.0504,4.0489,4.0473,4.025,3.9808,3.9199,3.8091,3.7543,3.7055,3.6101,3.6376,3.6743,3.5587,3.6255,3.6829,3.4725,3.4199,0.0,3.2713,3.1936,3.1472,3.145,3.1529,3.163,3.163,3.163,3.1579,3.1427,3.141,3.136,3.1207,3.1952,3.273,3.3339,3.366,3.4015,3.4455,3.3288,3.2442,3.229,3.1613,3.119,3.119,3.119,3.119,3.119,2.9753,2.9011,2.9011,2.7469,2.6691,2.6691,2.6691,2.6691,2.6691,2.6691,2.6691,2.6691,2.6691,2.6691,2.6708,2.686,2.6996,2.7317,2.9087,2.9648,2.955,3.0751,3.119,3.1185,3.3797,3.4647,3.5373,3.5781,3.5845,3.583,3.5799,3.5799,3.5799,3.5799,3.5799,3.5799,3.5799,3.5799,3.5799,3.5799,3.5799,3.5799,3.5799,3.5799,3.5799,3.5799,3.5864,3.5908,3.5908,3.5971,3.5996,3.5996,3.5996,3.5996,3.5996,3.5547,3.5331,3.5284,3.488,3.4684,3.4679,3.5149,3.5572,3.6056,3.7233,3.8136,3.8886,3.965,4.0169,4.0489,4.0489,4.0489,4.0457,4.0195,3.9596,3.8874,3.8128,3.7701,3.7239,3.6028,3.6523,3.7129,3.5373,3.5799,3.6332,3.4535,3.3876,0.0,0.0,3.1715,3.119,3.119,3.119,3.119,3.119,3.119,3.119,3.119,3.119,3.1151,3.1072,3.1776,3.2425,3.2797,3.3186,3.3558,3.3914,3.2933,3.2138,3.1765,3.1393,3.119,3.119,3.119,3.119,3.119,2.9753,2.9011,2.9011,2.7469,2.6691,2.6691,2.6691,2.6691,2.6691,2.6691,2.6691,2.6691,2.6691,2.6691,2.6691,2.6691,2.6691,2.686,2.8359,2.9411,3.017,3.0925,3.119,3.1185,3.3498,3.4666,3.5664,3.5788,3.5799,3.5799,3.5799,3.5799,3.5799,3.5799,3.5943,3.6048,3.6048,3.6219,3.6324,3.6324,3.6324,3.6239,3.6048,3.6064,3.6064,3.6048,3.5977,3.5994,3.615,3.605,3.5996,3.5996,3.5996,3.5996,3.5996,3.5996,3.5972,3.5926,3.6118,3.6096,3.5923,3.6121,3.629,3.6528,3.7773,3.8558,3.9027,3.9791,4.0164,4.0308,4.0446,4.0489,4.0419,3.9967,3.9197,3.8309,3.7779,3.7452,3.7,3.5661,3.6211,3.6897,3.525,3.5108,3.5247,0.0,0.0,3.2831,0.0,0.0,0.0,3.119,3.119,3.119,3.119,3.119,3.119,3.119,3.1309,3.132,3.1009,3.1736,3.2273,3.2191,3.2773,3.3144,3.3144,3.251,3.1833,3.1241,3.119,3.119,3.119,3.119,3.119,3.119,2.9905,2.9127,2.9011,2.7604,2.6843,2.6691,2.6691,2.6691,2.6691,2.6691,2.6691,2.6691,2.6691,2.6691,2.6691,2.6691,2.6691,2.6793,2.7599,2.9073,3.0806,3.1121,3.1196,3.1185,3.4221,3.4532,3.4894,3.5663,3.5799,3.5799,3.5799,3.5799,3.5799,3.5799,3.6475,3.6956,3.6956,3.7692,3.8185,3.8185,3.8185,3.7839,3.7014,3.701,3.7016,3.6956,3.6329,3.6313,3.7036,3.6366,3.5996,3.5996,3.5996,3.5996,3.5992,3.5996,3.5993,3.603,3.6684,3.6609,3.603,3.6684,3.7352,3.7964,3.814,3.7868,3.7441,3.8179,3.8914,3.9617,4.0284,4.0489,4.0342,0.0,3.866,3.8215,3.7017,3.6574,3.6395,3.6211,3.6285,3.6201,3.5104,3.4853,0.0,0.0,3.2959,0.0,3.2313,0.0,3.119,3.119,0.0,3.119,3.119,0.0,0.0,3.119,3.1732,3.1935,3.1235,3.1816,3.215,3.1715,3.2135,3.2326,3.2194,3.1645,3.1275,3.1207,3.119,3.119,3.119,3.119,3.119,3.119,3.0395,2.9651,2.9028,2.8129,2.7351,2.6691,2.6691,2.6691,2.6691,2.6691,2.6691,2.6691,2.6691,2.6691,2.6691,2.6691,2.6691,2.6725,2.684,2.7851,2.942,3.0721,3.121,3.1185,3.374,3.4595,3.5371,3.5741,3.5799,3.5799,3.5799,3.6226,3.6556,3.6556,3.6872,3.7284,3.7809,3.7753,3.7897,3.8389,3.8433,3.8266,3.7877,3.7917,3.7922,3.7858,3.7113,3.6845,3.7196,3.6405,3.5996,3.5996,3.5995,3.5993,3.5991,3.6009,3.5955,3.5909,3.6737,3.6916,3.6625,3.7413,3.7669,3.7607,3.8025,3.7753,3.7275,3.8902,3.9725,4.001,3.985,4.0085,4.0307,0.0,3.8159,0.0,0.0,3.5993,3.5569,3.5569,3.5899,3.5904,3.4184,0.0,0.0,0.0,0.0,0.0,3.171,0.0,3.119,0.0,0.0,0.0,0.0,0.0,0.0,0.0,3.1444,3.1506,3.1083,3.1381,3.1607,3.1388,3.1527,0.0,3.1544,3.1725,3.1647,3.1224,3.1596,3.1647,3.1207,3.119,3.119,3.119,3.048,2.9753,2.9028,2.8213,2.7435,2.6691,2.6691,2.6691,2.6691,2.6691,2.6691,2.6691,2.6691,2.6691,2.6691,2.6691,2.6691,2.6708,2.6691,2.7091,2.7942,3.0328,3.1218,3.1207,3.3623,3.4614,3.5527,3.576,3.5799,3.5877,3.6129,3.6692,3.7197,3.743,3.7661,3.8047,3.8688,3.8427,3.8442,3.9082,3.9151,3.9058,3.8795,3.8846,3.885,3.8795,3.8004,3.7572,3.7572,3.6776,3.623,3.5996,3.5994,3.601,3.6007,3.5996,3.5931,3.5852,3.6722,3.7078,3.7072,3.787,3.8026,3.7789,3.8315,3.8332,3.8199,3.9642,4.0327,4.0392,3.9585,3.9681,3.9941,3.8345,3.7362,0.0,3.5951,3.5358,3.4954,3.4734,3.5293,3.5491,3.3435,0.0,0.0,0.0,0.0,0.0,0.0,0.0,0.0,0.0,0.0,0.0,0.0,0.0,3.119,3.119,0.0,3.1388,3.1009,3.128,3.1371,3.1049,3.1257,0.0,0.0,3.2273,3.229,3.1546,3.1985,3.1968,3.1241,3.119,3.119,3.119,3.0683,2.9956,2.8991,2.8416,2.7655,2.6691,2.6691,2.6691,2.6691,2.6691,2.6691,2.6691,2.6691,2.6691,2.6691,2.6691,2.6691,2.6691,2.6691,2.6703,2.7088,3.0108,3.1184,3.1207,3.4459,3.4497,3.4808,3.5643,3.5799,3.609,3.6925,3.7081,3.7392,3.8246,3.9081,3.9623,3.9662,4.0442,4.098,4.1019,4.1071,4.0721,3.9813,3.9822,3.9823,3.9754,3.8983,3.8555,3.8555,3.7695,3.6855,3.5996,3.5994,3.6005,3.5994,3.5994,3.5955,3.5928,3.6742,3.7104,3.7156,3.7899,3.8628,3.9329,3.9354,3.9764,4.0327,0.0,3.9885,4.0392,3.9585,0.0,0.0,3.6955,3.6121,0.0,0.0,0.0,0.0,0.0,0.0,0.0,0.0,0.0,0.0,3.1748,0.0,0.0,0.0,0.0,3.119,0.0,0.0,0.0,0.0,3.119,3.119,3.119,3.1782,0.0,0.0,3.1799,3.1847,3.0651,3.1366,3.2312,0.0,3.3355,3.3051,3.2307,3.2313,3.1968,3.1241,3.119,3.119,3.119,3.1173,3.0463,2.8991,2.8958,2.818,2.6691,2.6691,2.6691,2.6691,2.6691,2.6691,2.6691,2.6691,2.6691,2.6691,2.6691,2.6691,2.6708,2.6705,2.6678,2.7092,3.008,3.1192,3.1185,3.5352,3.5352,3.5449,3.576,3.5799,3.6284,3.7741,3.8441,3.9138,4.0003,3.9889,3.9909,4.0505,4.0379,4.048,4.1058,4.1123,4.1008,4.0672,4.0721,4.0722,4.0652,3.9881,3.9453,3.9453,3.8613,3.8027,3.7712,3.7138,3.6833,3.6774,3.6196,3.5924,3.5947,3.6735,3.7361,3.788,3.8667,3.9148,3.9412,3.9412,3.9532,3.9677,0.0,3.948,3.9569,3.8539,3.8284,0.0,3.6362,3.5819,3.5668,3.4321,3.4044,3.4156,3.388,3.399,0.0,0.0,0.0,3.2777,3.195,0.0,0.0,0.0,0.0,0.0,0.0,0.0,0.0,0.0,3.119,3.119,3.119,3.1393,3.1478,0.0,3.141,3.1607,3.1664,3.2015,3.2124,3.1968,0.0,3.2357,3.1613,3.1562,3.1444,3.1207,3.119,3.119,3.119,3.119,3.0717,2.9736,2.9228,2.8467,2.7435,2.6928,2.6691,2.6691,2.6691,2.6691,2.6691,2.6691,2.6691,2.6691,2.6691,2.6691,2.6708,2.6722,2.6695,2.7072,3.0105,3.1181,3.1207,3.5799,3.6051,3.6168,3.5857,3.6304,3.7294,3.9023,3.9761,4.0449,4.1349,4.0694,4.0383,4.0935,4.0563,4.0499,4.1058,4.1123,4.1125,4.1099,4.115,4.117,4.1099,4.0623,4.0215,3.9902,3.9355,3.8769,3.8139,3.7582,3.7116,3.6723,3.6153,3.5908,3.5928,3.6437,3.7245,3.8227,3.8752,3.929,3.9783,3.9783,3.976,3.97,0.0,3.9104,3.8704,0.0,3.725,3.7149,3.5562,3.5146,3.512,3.412,3.3807,3.3807,3.3807,3.3807,3.3707,3.3302,3.3075,0.0,3.1986,3.1696,0.0,3.1252,0.0,3.119,0.0,0.0,0.0,0.0,3.119,3.119,3.119,3.119,3.119,0.0,3.119,3.1376,3.1833,3.2121,3.2205,3.2002,3.2408,3.2374,3.1647,3.1579,3.1461,3.1207,0.0,3.119,3.119,3.119,3.0852,3.0125,2.9364,2.8602,2.7772,2.7046,2.6691,2.6691,2.6691,2.6691,2.6691,2.6691,2.6691,2.6691,2.6691,2.6691,2.6708,2.6722,2.7052,2.7805,3.0289,3.1193,3.119,3.5791,3.6595,3.7042,3.6246,3.7411,3.9043,4.0771,4.0966,4.1265,4.2245,4.1578,4.1013,4.1018,4.1069,4.1099,4.1099,4.115,4.1171,4.1101,4.1151,4.1171,4.1101,4.117,4.0801,3.998,3.9961,3.916,3.7494,3.7407,3.6902,3.602,3.5938,3.5908,3.5908,3.5908,3.6759,3.8199,3.8199,3.9083,4.0489,4.0489,4.0469,4.0335,3.9527,3.8681,3.7786,3.6678,3.6268,3.6025,3.4667,3.4176,3.4147,3.3876,3.3807,3.3807,3.3807,3.3807,3.3707,3.3332,3.2872,3.2417,3.1986,0.0,0.0,0.0,0.0,3.119,0.0,0.0,0.0,0.0,0.0,3.119,3.119,3.119,3.119,3.119,3.119,3.119,3.119,3.1782,3.2459,3.322,3.3271,3.2966,3.2313,3.2195,3.185,3.1224,0.0,3.119,3.119,3.119,3.0869,3.0176,2.9414,2.8653,2.784,2.7114,2.6725,2.6691,2.6691,2.6691,2.6691,2.6691,2.6691,2.6691,2.6691,2.6691,2.6708,2.6687,2.7681,2.9282,3.0687,3.121,3.119,3.581,3.8033,4.0062,4.048,3.9897,4.015,4.2481,4.1769,4.1532,4.3078,4.1978,4.1091,4.1147,4.1151,4.1171,4.1171,4.1191,4.1191,4.1171,4.1191,4.1191,4.1171,4.1191,4.1094,4.0879,4.0879,4.0623,4.0118,3.8827,3.8065,3.7809,3.6518,3.5908,3.5908,3.5908,3.6759,3.8199,3.8199,3.9083,4.0489,4.0489,4.0142,3.9508,0.0,3.7796,3.6944,3.6235,3.5742,3.5247,3.4245,3.4043,3.4147,3.3876,3.3807,3.3807,3.3807,3.3807,3.378,3.3662,3.3332,3.2983,3.2872,3.223,3.166,0.0,0.0,0.0,0.0,0.0,0.0,0.0,0.0,0.0,3.119,3.119,3.119,3.119,3.119,3.119,3.119,3.0886,3.0954,3.1681,3.1275,3.1106,3.1444,3.0446,3.0226,3.114,0.0,0.0,3.119,3.119,3.1106,3.092,3.0192,2.9431,2.867,2.7892,2.7232,2.6691,2.6691,2.6691,2.6691,2.6691,2.6691,2.6691,2.6691,2.6691,2.6691,2.6681,2.831,3.0666,3.1043,3.1196,3.119,3.5909,3.8956,4.2005,4.3141,4.2276,4.1885,4.3285,4.3022,4.2887,4.3518,4.2455,4.1657,4.1714,4.1406,4.1191,4.1191,4.1191,4.1191,4.1169,4.1171,4.1191,4.1169,4.1171,4.1191,4.1191,4.1149,4.0926,4.0525,3.9138,3.8273,3.7896,3.6514,3.5859,3.5859,3.5833,3.6462,3.7641,3.8368,3.9179,4.0008,4.0354,4.0008,0.0,3.8334,3.739,3.6419,3.5647,3.5172,3.4813,3.4062,3.3902,3.4012,3.3842,3.3807,3.3807,3.3807,3.3807,3.3807,3.3807,3.3494,3.3214,3.3214,3.2631,3.2057,3.1861,3.1623,3.1411,0.0,0.0,0.0,0.0,0.0,0.0,3.119,3.119,3.119,3.119,3.119,3.119,3.119,3.1123,3.1089,3.119,3.0243,3.0057,3.1106,3.0429,3.0311,0.0,0.0,0.0,3.1207,3.119,3.119,3.119,3.048,2.9888,2.9465,2.8349,2.7588,2.7182,2.6843,2.6691,2.6691,2.6691,2.6691,2.6691,2.6691,2.6691,2.6793,2.7461,2.913,3.1206,3.1213,3.119,3.119,3.7298,4.0335,4.3462,4.4734,4.4295,4.3693,4.3545,4.407,4.4234,4.3529,4.268,4.2171,4.2232,4.1619,4.1191,4.1191,4.1191,4.1171,4.1123,4.117,4.1112,4.0947,4.0994,4.0976,4.0839,4.0723,4.0375,3.9793,3.8745,3.7936,3.7319,3.6287,3.5791,3.5784,3.5736,3.6162,3.7076,3.8628,3.9354,3.9508,4.0085,3.9912,3.9181,3.817,3.7159,3.6155,3.5038,3.4632,3.4569,3.3979,3.3807,3.3807,3.3807,3.3807,3.3807,3.3807,3.3807,3.3807,3.3807,3.355,3.3273,3.3273,3.2952,3.2484,3.2092,3.1915,3.1789,3.1466,3.1351,3.1351,0.0,0.0,0.0,3.1291,3.1291,3.1291,0.0,3.123,3.119,3.119,3.1749,0.0,3.1258,3.0023,2.9803,3.1089,3.1106,3.1089,0.0,0.0,0.0,3.1207,3.119,3.119,3.119,0.0,3.0209,3.0091,2.8755,2.8026,2.7943,2.7182,2.6843,2.6843,2.6742,2.6691,2.6691,2.6691,2.6691,2.6826,2.8193,2.9722,3.1181,3.1218,3.119,3.119,4.3986,4.4861,4.5482,4.5744,4.5122,4.437,4.3688,4.3153,4.276,4.2633,4.1906,4.1405,4.1406,4.1289,4.1191,4.1191,4.1191,0.0,4.1171,4.1191,0.0,4.0136,4.0117,3.9744,3.8905,3.8876,3.915,0.0,0.0,3.7611,3.8148,3.6538,3.5768,3.5727,3.5708,3.651,3.7932,3.8878,0.0,4.0239,3.9719,3.9431,3.9089,3.7283,3.6472,3.6119,3.4773,3.4288,3.4242,3.3902,3.3807,3.3807,3.3807,3.3807,3.3807,3.3807,3.3807,3.3807,3.3807,3.3734,3.3707,3.3707,3.339,3.3045,3.2965,3.2648,3.235,3.2282,3.2282,3.2282,3.2282,0.0,0.0,0.0,0.0,0.0,0.0,3.1411,3.119,3.119,3.1309,3.1326,3.1207,3.0954,3.092,3.1173,3.0632,0.0,0.0,0.0,0.0,0.0,3.119,0.0,0.0,0.0,3.07,3.0108,2.9837,2.9381,2.8755,2.7977,2.7621,2.7553,2.6962,2.6691,2.6691,2.6691,2.6706,2.6723,2.7024,2.8765,3.1196,3.1173,3.119,3.119,4.5959,4.6096,4.6096,4.6096,4.5436,4.4612,0.0,4.2937,4.2397,4.2407,4.2062,4.1655,4.1206,4.078,4.0332,3.9883,3.9844,3.9844,3.9844,3.9844,3.9668,3.9238,3.9157,3.8891,3.8404,3.8318,3.8753,3.9689,0.0,3.7922,3.8366,3.7042,3.6154,3.5667,3.6057,3.6646,3.7462,0.0,0.0,3.9835,3.945,3.8962,3.8254,3.6835,3.5856,3.5124,3.4446,3.4099,3.3986,3.3842,3.3807,3.3807,3.3807,3.3807,3.3807,3.3807,3.3807,3.3807,3.3807,3.3807,3.3807,3.3807,3.3634,3.3465,3.3243,3.3014,3.2777,3.255,3.2484,3.2484,3.2484,3.2451,0.0,0.0,0.0,0.0,0.0,0.0,3.1603,3.186,3.1943,3.1854,3.1542,3.1939,3.1794,3.0722,3.0649,0.0,0.0,0.0,0.0,0.0,0.0,0.0,0.0,0.0,0.0,3.0666,3.0294,2.9922,2.9533,2.8772,2.8416,2.8399,2.8044,2.7875,2.7875,2.7875,2.7891,2.7902,2.7873,2.9269,3.1189,3.1196,3.1219,3.119,4.6201,4.6206,4.6147,4.5952,4.5258,4.4438,4.3557,4.2692,4.2148,4.214,4.1982,4.1611,4.0926,4.0116,3.9355,3.8652,3.8594,3.8594,3.8594,3.8594,3.8515,3.8319,3.8205,3.8042,3.7805,3.7702,3.8123,0.0,0.0,0.0,0.0,3.7579,3.6721,3.5874,0.0,0.0,0.0,0.0,3.9392,3.9527,3.9112,3.8405,3.7468,3.6311,3.5164,3.4176,3.4147,3.3986,3.3807,3.3807,3.3807,3.3807,3.3807,3.3807,3.3807,3.3807,3.3807,3.3807,3.3807,3.3807,3.3807,3.3807,3.3807,3.3707,3.339,3.3332,3.3225,3.284,3.2777,3.2745,3.2681,3.2616,0.0,0.0,0.0,0.0,0.0,0.0,3.2109,3.2451,3.2804,3.2624,3.165,3.2585,3.2328,3.016,3.0798,0.0,3.0378,0.0,0.0,0.0,0.0,3.119,3.119,0.0,3.119,3.119,3.0615,3.0345,3.0311,2.9567,2.9211,2.9211,2.9096,2.9011,2.8991,2.9161,2.9183,2.9189,2.9387,3.0188,3.1215,3.119,3.1223,3.1271,4.6206,4.6206,4.5952,4.5153,4.436,4.3537,4.2659,4.1832,4.1308,4.1308,4.0625,4.0097,4.0019,3.9238,3.8691,3.8613,3.8594,3.8594,3.8594,3.8594,3.822,3.7377,3.7312,3.6869,3.5883,3.5853,3.6278,0.0,0.0,3.7344,0.0,0.0,0.0,0.0,0.0,0.0,0.0,3.8892,3.9719,4.0223,3.847,3.7714,3.7375,3.5208,3.4302,3.4171,3.391,3.3815,3.3807,3.3807,3.3807,3.3807,3.3807,3.3807,3.3807,3.3807,3.3807,3.3807,3.3807,3.3807,3.3807,3.3807,3.3807,3.3788,3.3734,3.3734,3.3734,3.3707,3.368,3.3578,3.3196,3.3419,3.355,0.0,0.0,0.0,0.0,0.0,3.2451,3.2484,3.3365,3.3156,3.1028,3.2376,3.2327,2.9834,3.0848,0.0,0.0,0.0,0.0,3.119,0.0,3.119,3.119,3.119,3.119,3.119,3.1123,3.1089,3.1072,3.0328,3.0006,2.9973,2.9279,2.9011,2.9025,2.9719,2.985,2.9728,3.0644,3.1072,3.119,3.1217,3.1204,3.1564,4.5456,0.0,0.0,0.0,0.0,0.0,0.0,4.1182,4.0291,4.0246,4.0049,3.9707,3.918,3.834,3.7617,3.709,3.7031,3.7031,3.7031,3.7007,3.6819,3.643,3.63,3.6043,3.5611,3.5562,3.6002,0.0,0.0,0.0,0.0,0.0,0.0,0.0,0.0,3.8661,3.8529,3.9407,3.9833,3.9812,3.802,3.7194,3.6851,3.4927,3.4099,3.3935,3.3842,3.3807,3.3807,3.3807,3.3807,3.3807,3.3807,3.3807,3.3715,3.322,3.3091,3.2981,3.2485,3.2706,3.3091,3.3091,3.344,3.3807,3.3807,3.3807,3.3807,3.3807,3.3807,3.3734,3.3578,3.3625,3.3671,0.0,0.0,0.0,0.0,0.0,3.2834,3.2575,3.2602,3.215,3.0894,3.2343,3.263,0.0,0.0,0.0,0.0,0.0,0.0,3.251,0.0,3.141,3.185,3.141,3.119,3.119,3.119,3.119,3.119,3.0886,3.0768,3.0734,3.0446,3.0057,2.9719,3.0463,3.0184,2.9429,3.0712,3.119,3.1207,3.1196,3.2313,3.4014,4.4354,0.0,4.3366,0.0,4.2678,4.2144,4.191,4.0618,3.9647,3.9609,3.9286,3.8817,3.8192,3.7352,3.6571,3.5964,3.5906,3.5906,3.5906,3.5861,3.5831,3.5811,3.5685,0.0,3.5913,3.5868,3.6298,3.7225,3.8054,0.0,0.0,0.0,0.0,0.0,3.8927,3.9272,3.8861,3.9621,3.9819,3.9448,3.7679,3.686,3.6509,3.4754,3.3961,3.3807,3.3807,3.3807,3.3807,3.3807,3.3807,3.3807,3.3807,3.3807,3.3642,3.2852,3.2614,3.2485,3.1916,3.2173,3.2669,3.2908,3.3385,3.3807,3.3807,3.3807,3.3807,3.3807,3.3807,3.3807,3.3807,3.3726,3.3698,3.378,0.0,0.0,0.0,3.355,0.0,3.2991,3.2669,3.2152,3.1261,3.2553,3.2885,0.0,0.0,0.0,0.0,0.0,0.0,0.0,0.0,0.0,0.0,3.1444,3.119,3.119,3.119,3.119,3.119,3.119,3.119,3.119,3.119,3.0903,3.0463,3.0987,3.0588,2.9748,3.0796,3.119,3.119,3.1219,3.25,3.444,4.2971,4.2727,4.2588,4.219,4.2113,4.1801,4.0957,4.0128,3.9602,3.9609,3.8091,3.7021,3.7021,3.6236,3.573,3.571,3.571,3.571,3.571,3.571,3.5659,0.0,0.0,3.5941,3.6661,3.6699,3.7103,3.7988,0.0,0.0,3.9296,0.0,4.0042,3.9296,3.9831,3.9624,3.8842,3.9394,3.9599,3.9425,3.748,3.6702,3.6484,3.4537,3.3788,3.3807,3.3807,3.3807,3.3807,3.3807,3.3807,3.3807,3.3807,3.3807,3.3642,3.2852,3.2614,3.2614,3.2596,3.2596,3.2797,3.3587,3.3788,3.3807,3.3807,3.3807,3.3807,3.3807,3.3807,3.3807,3.3807,3.3807,3.3807,3.3807,0.0,0.0,0.0,3.3807,0.0,3.3788,3.408,3.3695,3.2231,3.3009,3.2995,0.0,0.0,0.0,0.0,0.0,0.0,3.1241,3.1207,0.0,3.1207,3.119,3.119,3.119,3.119,3.119,3.119,3.119,3.119,3.119,3.119,3.119,3.119,3.119,3.119,3.1173,3.119,3.119,3.1224,3.1194,3.1232,3.1641,4.237,4.1804,4.1365,4.1249,4.1189,4.1042,4.077,4.0003,3.9234,3.8593,3.7596,3.6687,3.6049,3.5812,3.5703,0.0,3.5703,3.5703,0.0,3.5663,3.5611,3.5591,3.557,3.5637,3.5892,3.643,3.6853,3.7123,0.0,0.0,0.0,4.0123,3.9948,3.899,3.9776,3.9688,3.8976,3.8596,3.835,3.8016,3.6251,3.5532,3.5422,3.4246,3.3807,3.3807,3.3807,3.3807,3.3807,3.3807,3.3807,3.3807,3.3807,3.3807,3.3642,3.2852,3.2614,3.2485,3.1935,3.2192,3.2669,3.2926,3.3385,3.3807,3.3807,3.3807,3.3807,3.3807,3.3807,3.3807,3.3807,3.3807,3.3807,3.3807,3.3807,0.0,3.3807,0.0,3.3605,3.3054,3.3067,3.2739,3.1707,3.2911,0.0,0.0,0.0,0.0,0.0,0.0,0.0,0.0,3.1715,0.0,3.1935,3.1444,3.119,3.119,3.119,3.119,3.119,3.119,3.119,3.119,3.119,3.119,3.119,3.119,3.119,3.119,3.119,3.1196,3.12,3.1213,3.1199,3.1629,4.1519,4.1072,4.0682,4.0682,4.066,4.0623,4.0623,3.9908,3.9025,3.8118,3.7315,3.6491,3.5603,3.5577,0.0,3.5621,3.5621,3.5621,3.5621,3.5599,3.5562,3.5562,3.5811,3.5949,3.5949,3.7084,0.0,3.768,3.9065,3.9738,3.9758,4.0159,3.9962,3.93,3.929,3.9034,3.8596,3.7681,3.7193,3.6927,3.5569,3.499,3.4899,3.4119,3.3807,3.3807,3.3807,3.3807,3.3807,3.3807,3.3807,3.3807,3.3807,3.3807,3.3642,3.2852,3.2614,3.2504,3.199,3.2228,3.2687,3.2981,3.344,3.3807,3.3807,3.3807,3.3807,3.3807,3.3807,3.3807,3.3807,3.3807,3.3807,3.3807,3.3807,3.3807,3.3807,0.0,3.3605,0.0,0.0,0.0,0.0,3.3201,3.3533,0.0,0.0,0.0,0.0,0.0,0.0,3.2577,3.1935,0.0,3.1867,3.1427,3.119,3.119,3.119,3.119,3.119,3.119,3.119,3.119,3.119,3.119,3.119,3.119,3.119,3.1207,3.1196,3.12,3.1345,3.2439,3.2127,3.1626,4.0525,4.0491,4.0489,0.0,4.0489,0.0,4.0489,3.9854,3.9065,3.82,3.7334,3.6507,3.5757,3.5584,3.5512,3.5584,0.0,0.0,0.0,3.5493,3.5493,3.5493,3.6276,3.668,3.6622,3.8373,3.9315,3.9373,4.0123,4.0489,4.0489,4.0232,4.0101,4.0003,3.8625,3.797,3.7798,3.6749,3.6266,3.6138,3.5275,3.4917,3.4825,3.41,3.3807,3.3807,3.3807,3.3807,3.3807,3.3807,3.3807,3.3807,3.3807,3.3807,3.3642,3.2908,3.2687,3.2687,3.2687,3.2687,3.2871,3.3605,3.3807,3.3807,3.3807,3.3807,3.3807,3.3807,3.3807,3.3807,3.3807,3.3807,3.3807,3.3807,3.3807,3.3807,3.3807,0.0,3.3807,0.0,0.0,0.0,0.0,3.3807,3.3634,0.0,0.0,0.0,0.0,0.0,3.3257,3.1348,3.1918,3.1935,3.1207,3.119,3.119,3.119,3.119,3.119,3.119,3.119,3.119,3.119,3.119,3.119,3.119,3.119,3.119,3.1207,3.1194,3.1271,3.1705,3.4541,3.388,3.1901,0.0,0.0,4.0489,4.0489,4.0489,4.0489,4.0489,4.0335,3.9912,3.9104,3.8238,3.7623,3.743,3.6276,3.5757,3.6372,3.5853,3.5493,3.5493,3.5493,3.5493,3.5493,3.6276,3.6411,3.5815,3.8084,3.9604,4.0219,4.0412,4.0489,4.0489,4.0441,4.0176,3.9712,3.9345,3.8588,3.7532,3.6673,3.5917,3.5229,3.4412,3.4082,3.4064,3.3862,3.3807,3.3807,3.3807,3.3807,3.3807,3.3807,3.3807,3.3807,3.3807,3.3807,3.3752,3.3568,3.3532,3.3532,3.3532,3.3532,3.3568,3.3752,3.3807,3.3807,3.3807,3.3807,3.3807,3.3807,3.3807,3.3807,3.3807,3.3807,3.3807,3.3807,3.3807,3.3807,3.3807,3.3807,0.0,0.0,3.3807,3.3807,3.3807,3.3807,3.3762,0.0,0.0,0.0,0.0,3.4145,3.3775,3.2076,3.2188,3.1935,3.1207,3.119,3.119,3.119,3.119,3.119,3.119,3.119,3.119,3.119,3.119,3.119,3.119,3.119,3.119,3.1207,3.1194,3.1907,3.3119,3.4924,3.5163,3.465,4.0489,4.0489,4.0489,4.0489,4.0489,4.0489,4.0489,4.0489,4.02,3.9411,3.8892,3.8296,3.7488,3.6949,3.6661,3.6699,3.5968,3.5493,3.5493,3.5493,3.5661,3.6045,3.6469,3.6507,3.6065,3.7796,3.9104,3.995,4.0315,4.0246,3.9763,3.9985,3.9634,3.882,3.8689,3.8006,3.689,3.6064,3.522,3.4412,3.3972,3.3807,3.3807,3.3807,3.3807,3.3807,3.3807,3.3807,3.3807,3.3807,3.3807,3.3807,3.3807,3.3807,3.3807,3.3807,3.3807,3.3807,3.3807,3.3807,3.3807,3.3807,3.3807,3.3807,3.3807,3.3807,3.3807,3.3807,3.3807,3.3807,3.3807,3.3807,3.3807,3.3807,3.3807,3.3807,3.3807,3.3807,0.0,3.3807,3.3807,3.3807,3.3807,3.3807,3.3807,3.3807,3.3953,0.0,3.4093,3.4635,3.4112,3.2347,3.2611,3.2273,3.1207,3.119,3.119,3.119,3.119,3.119,3.119,3.119,3.119,3.119,3.119,3.119,3.119,3.119,3.119,3.1258,3.1705,3.2521,3.3558,3.5061,3.5613,3.5605,4.0489,4.0489,4.0489,4.0489,4.0489,4.0489,4.0489,4.0489,4.0239,3.9565,3.9373,3.8777,3.743,3.7719,3.7757,3.7161,3.6353,3.5892,3.5892,3.5757,3.6045,3.6873,3.6776,3.6699,3.6699,3.7497,3.8424,3.9423,4.0044,3.9904,3.9014,3.9413,3.9057,3.8074,3.7738,3.7077,3.6229,3.5385,3.4559,3.3807,3.3807,3.3807,3.3807,3.3807,3.3807,3.3807,3.3807,3.3807,3.3807,3.3807,3.3807,3.3807,3.3807,3.3807,3.3807,3.3807,3.3807,3.3807,3.3807,3.3807,3.3807,3.3807,3.3807,3.3807,3.3807,3.3807,3.3807,3.3807,3.3807,3.3807,3.3807,3.3807,3.3807,3.3807,3.3807,3.3807,3.3807,0.0,3.3807,3.3807,3.3807,3.3807,3.3807,3.3807,3.3807,3.3807,3.3996,3.43,3.4659,3.4913,3.4301,3.2686,3.3119,3.2696,3.1207,3.119,3.119,3.119,3.119,3.119,3.119,3.119,3.119,3.119,3.119,3.119,3.119,3.119,3.119,3.1292,3.215,3.2841,3.3592,3.5047,3.5588,3.5622,4.0489,4.0489,4.0489,4.0489,4.0489,4.0489,4.0489,4.0489,4.045,4.0315,3.9719,3.945,3.9873,3.8777,3.8238,3.8834,3.8104,3.7603,3.7603,3.693,3.6911,3.7757,3.7084,3.6699,3.6699,3.7283,3.8382,3.9986,3.9825,3.9637,3.9479,3.9566,3.9357,3.8875,3.8152,3.7276,3.6229,3.5385,3.4559,3.3807,3.3807,3.3807,3.3807,3.3807,3.3807,3.3807,3.3807,3.3807,3.3807,3.3807,3.3807,3.3807,3.3807,3.3807,3.3807,3.3807,3.3807,3.3807,3.3807,3.3807,3.3807,3.3807,3.3807,3.3807,3.3807,3.3807,3.3807,3.3807,3.3807,3.3807,3.3807,3.3807,3.3807,3.3807,3.3807,3.3807,3.3807,0.0,3.3807,3.3807,3.3807,3.3807,3.3807,3.3807,3.3807,3.3807,3.3546,3.3759,3.4641,3.4408,3.4249,3.4176,3.3677,3.2696,3.1207,3.119,3.119,3.119,3.119,3.119,3.119,3.119,3.119,3.119,3.119,3.119,3.119,3.119,3.119,3.1224,3.1385,3.2227,3.3575,3.5052,3.5603,3.5622,4.0489,4.0489,4.0489,4.0489,4.0489,4.0489,4.0489,4.0489,4.0489,4.0489,4.0181,3.9912,3.9854,3.9546,3.9335,3.9296,3.9335,3.9288,3.9138,3.8043,3.7796,3.8661,3.7873,3.7314,3.7146,3.7662,3.8319,3.9136,3.946,3.9303,3.8683,3.8683,3.8301,3.7581,3.7211,3.6491,3.5587,3.5155,3.4559,3.3807,3.3807,3.3807,3.3807,3.3807,3.3807,3.3807,3.3807,3.3807,3.3807,3.3807,3.3807,3.3807,3.3807,3.3807,3.3807,3.3807,3.3807,3.3807,3.3807,3.3807,3.3807,3.3807,3.3807,3.3807,3.3807,3.3807,3.3807,3.3807,3.3807,3.3807,3.3807,3.3807,3.3807,3.3807,3.3807,0.0,0.0,3.3807,3.3807,3.3807,3.3807,3.3807,3.3807,3.3807,3.3807,3.3807,3.3437,3.3486,3.4076,3.3731,3.363,3.388,3.3186,3.229,3.1207,3.119,3.119,3.119,3.119,3.119,3.119,3.119,3.119,3.119,3.119,3.119,3.119,3.119,3.119,3.1241,3.1635,3.195,3.2496,3.4754,3.5586,3.5622,4.0489,4.0489,4.0489,4.0489,4.0489,4.0489,4.0489,4.0489,4.0473,4.0425,4.0406,4.0123,3.944,3.9919,4.0034,3.9421,4.0008,4.0285,4.0002,3.9063,3.8761,3.9344,3.8523,3.794,3.768,3.8037,3.831,3.8479,3.9089,3.8957,3.8098,3.8098,3.7544,3.6578,3.6578,3.6101,3.5312,3.5312,3.4835,3.4082,3.4082,3.3972,3.3807,3.3807,3.3807,3.3807,3.3807,3.3807,3.3807,3.3807,3.3807,3.3807,3.3807,3.3807,3.3807,3.3807,3.3807,3.3807,3.3807,3.3807,3.3807,3.3807,3.3807,3.3807,3.3807,3.3807,3.3807,3.3807,3.3807,3.3807,3.3807,3.3807,3.3807,3.3807,0.0,0.0,0.0,3.3807,3.3807,3.3807,3.3807,3.3807,3.3807,3.3807,3.3807,3.3807,3.3437,3.3324,3.358,3.3227,3.3029,3.3119,3.2594,3.1935,3.1207,3.119,3.119,3.119,3.119,3.119,3.119,3.119,3.119,3.119,3.119,3.119,3.119,3.119,3.119,3.1258,3.181,3.1707,3.1558,3.4524,3.5586,3.5622,4.0489,4.0489,4.0489,4.0489,4.0489,4.0489,4.0489,4.0489,4.0406,4.0158,4.012,4.0003,3.9615,3.963,3.963,3.9573,3.9905,4.0002,3.9645,3.9829,3.985,3.9596,3.8738,3.8263,3.8241,3.8047,3.8279,3.9059,3.8865,3.8713,3.8628,3.8628,3.8205,3.7404,3.7404,3.6945,3.6193,3.6193,3.5697,3.4899,3.4899,3.4486,3.3807,3.3807,3.3807,3.3807,3.3807,3.3807,3.3807,3.3807,3.3807,3.3807,3.3807,3.3807,3.3807,3.3807,3.3807,3.3807,3.3807,3.3807,3.3807,3.3807,3.3807,3.3807,3.3807,3.3807,3.3807,3.3807,3.3807,3.3807,3.3807,3.3807,3.3807,3.3807,0.0,0.0,3.3807,3.3807,3.3807,3.3807,3.3807,3.3807,3.3807,3.3807,3.3807,3.3807,3.3437,3.3324,3.358,3.3227,3.2827,3.2398,3.2307,3.1935,3.1207,3.119,3.119,3.119,3.119,3.119,3.119,3.119,3.119,3.119,3.119,3.119,3.119,3.119,3.119,3.1224,3.1268,3.1266,3.1558,3.4524,3.5586,3.5622,4.025,4.0082,3.9925,3.9925,3.9925,3.9925,3.9925,3.9925,3.9924,3.9797,3.9797,3.9754,3.9622,3.9599,3.9599,3.9599,3.9731,3.9645,3.9314,3.9414,3.9529,3.9599,3.9089,3.8796,3.8796,3.8544,3.8549,3.8855,3.8732,3.8707,3.8689,3.8193,3.7771,3.7441,3.6413,3.6083,3.6266,3.5734,3.5624,3.5771,3.521,3.4807,3.4504,3.399,3.3807,3.3807,3.3807,3.3807,3.3807,3.3807,3.3807,3.3807,3.3807,3.3807,3.3807,3.3807,3.3807,3.3807,3.3807,3.3807,3.3807,3.3807,3.3807,3.3807,3.3807,3.3807,3.3807,3.3807,3.3807,3.3807,3.3807,3.3807,3.3807,3.3807,0.0,3.3807,3.3807,3.3807,3.3807,3.3807,3.3807,3.4009,3.4504,3.41,3.4229,3.5275,3.4,3.3664,3.4763,3.3705,3.2624,3.1653,3.1613,3.1461,3.119,3.119,3.119,3.119,3.119,3.119,3.119,3.119,3.119,3.119,3.119,3.119,3.1241,3.1681,3.1867,3.1901,3.2059,3.2303,3.2603,3.282,3.4007,3.5622,3.9943,3.9754,3.9599,3.9599,3.9599,3.9599,3.9599,3.9599,3.9576,3.9457,3.9438,3.9408,3.9327,3.9301,3.9301,3.9301,3.9383,3.9308,3.8999,3.8971,3.9082,3.9301,3.9109,3.8971,3.8971,3.8803,3.8707,3.8707,3.8707,3.8707,3.8689,3.8138,3.7734,3.7441,3.656,3.6358,3.6652,3.6321,3.6358,3.6597,3.5752,3.5229,3.4899,3.4119,3.3807,3.3807,3.3807,3.3807,3.3807,3.3807,3.3807,3.3807,3.3807,3.3807,3.3807,3.3807,3.3807,3.3807,3.3807,3.3807,3.3807,3.3807,3.3807,3.3807,3.3807,3.3807,3.3807,3.3807,3.3807,3.3807,3.3807,3.3807,3.388,3.4137,3.3972,3.3899,3.4137,3.3972,3.3807,3.3807,3.3807,3.4119,3.4917,3.4504,3.478,3.6193,3.4736,3.4015,3.4595,3.3407,3.2331,3.1585,3.1309,3.141,3.1884,3.1427,3.1309,3.1529,3.1309,3.119,3.119,3.119,3.119,3.1207,3.1427,3.1546,3.1596,3.2324,3.2645,3.2679,3.3052,3.3244,3.3326,3.2773,3.3851,3.5622,3.9599,3.9599,3.9599,3.9599,3.9599,3.9599,3.9599,3.9599,3.9462,3.9152,3.9099,3.8999,3.8738,3.8707,3.8707,3.8726,3.8952,3.899,3.8738,3.8707,3.8707,3.8707,3.8707,3.8707,3.8707,3.8707,3.8707,3.8707,3.8707,3.8707,3.8707,3.8707,3.8267,3.7533,3.834,3.8248,3.7551,3.8358,3.823,3.7422,3.6615,3.5789,3.4899,3.4119,3.3807,3.3807,3.3807,3.3807,3.3807,3.3807,3.3807,3.3807,3.3807,3.3807,3.3807,3.3825,3.3807,3.3807,3.3807,3.3807,3.3807,3.3807,3.3807,3.3807,3.3807,3.3807,3.3807,3.3807,3.3807,3.3807,3.3807,3.3807,3.4082,3.4862,3.4339,3.41,3.4899,3.4321,3.3807,3.3807,3.3807,3.4119,3.4917,3.499,3.5385,3.6248,3.5504,3.4291,3.2603,3.2092,3.1963,3.2297,3.1596,3.1918,3.3406,3.1935,3.1562,3.2273,3.1546,3.119,3.1207,3.1207,3.1207,3.1258,3.1968,3.229,3.2381,3.3102,3.3406,3.3474,3.4006,3.3903,3.3587,3.5059,3.5622,3.5622,3.9238,3.9082,3.897,3.897,3.897,3.897,3.897,3.897,3.8913,3.8815,3.8815,3.8994,3.9509,3.9038,3.9148,4.0304,3.9952,3.962,3.9533,3.9019,3.8707,3.8707,3.8707,3.8707,3.8707,3.8707,3.8707,3.8707,3.8707,3.8707,3.8707,3.8707,3.8579,3.8322,3.7991,3.8028,3.8322,3.7991,3.7716,3.7422,3.6615,3.5789,3.4899,3.4119,3.3807,3.3807,3.3807,3.3807,3.3807,3.3807,3.3807,3.3899,3.4468,3.4266,3.4027,3.5202,3.4724,3.3917,3.4504,3.4229,3.3807,3.3807,3.3807,3.3807,3.3807,3.3807,3.3807,3.3807,3.3807,3.3972,3.4559,3.4651,3.4926,3.5771,3.5716,3.5642,3.5881,3.5183,3.4651,3.4651,3.4137,3.4357,3.5771,3.5367,3.5816,3.7826,3.7385,3.5933,3.342,3.3907,3.3876,3.3126,3.2865,3.3203,3.4167,3.2188,3.1562,3.2273,3.1546,3.1461,3.1952,3.1952,3.2239,3.2763,3.2983,3.3068,3.3119,3.3863,3.4167,3.4235,3.4901,3.5087,3.4992,3.5442,3.5622,3.5622,3.9341,3.9036,3.8909,3.9551,3.9386,3.9276,3.9606,3.9386,3.9166,3.9166,3.9166,3.9239,3.9405,3.957,3.979,4.012,3.9717,3.9423,3.9423,3.8964,3.8707,3.8707,3.8707,3.8707,3.8707,3.8707,3.8707,3.8707,3.8707,3.8707,3.8707,3.8707,3.8707,3.8689,3.8193,3.823,3.867,3.8175,3.7955,3.7863,3.6743,3.5973,3.5404,3.4247,3.4009,3.4229,3.3917,3.4009,3.4229,3.3917,3.4009,3.4376,3.4844,3.4908,3.4981,3.5991,3.5569,3.4816,3.4954,3.4651,3.4211,3.388,3.4045,3.4192,3.3862,3.4045,3.4284,3.4284,3.4284,3.4541,3.5367,3.5514,3.5789,3.6633,3.6505,3.6413,3.6725,3.6046,3.5514,3.5514,3.5092,3.5312,3.6633,3.6303,3.6615,3.8102,3.7711,3.6446,3.4181,3.4554,3.453,3.3846,3.3558,3.3897,3.4928,3.3034,3.2442,3.3152,3.2408,3.229,3.273,3.273,3.2983,3.3423,3.3711,3.3846,3.3897,3.4641,3.4945,3.4979,3.5453,3.5622,3.5622,3.5622,3.5622,3.5639,3.9753,3.9368,3.9386,4.0855,4.0487,4.0249,4.1001,4.0414,3.99,3.99,3.9827,3.9533,3.8891,4.0065,4.0359,3.9038,3.8854,3.8817,3.8817,3.8744,3.8707,3.8707,3.8707,3.8707,3.8707,3.8707,3.8707,3.8707,3.8707,3.8707,3.8707,3.8707,3.8707,3.8707,3.8615,3.8597,3.8597,3.8524,3.845,3.8248,3.678,3.6138,3.5899,3.4376,3.4266,3.4789,3.4064,3.4284,3.477,3.4137,3.4394,3.5027,3.5174,3.5734,3.6321,3.6468,3.6358,3.6028,3.5302,3.5009,3.4715,3.4082,3.4523,3.488,3.41,3.4486,3.5009,3.5082,3.5119,3.5385,3.6248,3.6413,3.667,3.7459,3.6982,3.6762,3.7496,3.6909,3.6413,3.6413,3.634,3.6615,3.7434,3.7551,3.7551,3.7448,3.6993,3.6199,3.4907,3.4439,3.4322,3.4617,3.3947,3.4252,3.5605,3.4286,3.3897,3.4489,3.3744,3.344,3.3508,3.3508,3.3541,3.3643,3.4303,3.459,3.4641,3.5334,3.5656,3.5723,3.5723,3.5645,3.5594,3.5605,3.5616,3.5756,3.9863,4.0267,4.0708,4.1056,4.0965,4.091,4.1075,4.0414,3.99,3.99,3.935,3.9129,3.9588,3.9386,3.9588,4.0506,3.9992,3.9643,3.9643,3.9056,3.8707,3.8707,3.8707,3.8707,3.8707,3.8707,3.8707,3.8707,3.8707,3.8707,3.8707,3.8707,3.8707,3.867,3.8028,3.7753,3.7716,3.7092,3.6431,3.576,3.5412,3.4908,3.4302,3.3935,3.3917,3.4045,3.3862,3.3917,3.4137,3.4596,3.4844,3.521,3.6541,3.6652,3.6541,3.7808,3.6817,3.5404,3.5881,3.5055,3.4174,3.4633,3.5385,3.5789,3.4945,3.4862,3.5174,3.5881,3.6028,3.6266,3.7074,3.7221,3.7496,3.8303,3.8285,3.8248,3.8414,3.7734,3.7221,3.7221,3.667,3.6615,3.7434,3.8065,3.8016,3.6957,3.7023,3.6496,3.5188,3.5206,3.5287,3.5368,3.5216,3.5301,3.5622,3.5301,3.4928,3.4489,3.3744,3.3711,3.4252,3.4252,3.459,3.5148,3.5301,3.5368,3.5385,3.5554,3.5977,3.6535,3.6535,3.6139,3.5593,3.5596,3.5591,3.588,3.9808,3.9937,4.0212,4.0983,4.0781,4.0799,4.157,4.0653,4.0029,4.0414,3.9772,3.9294,3.9313,3.9643,4.0029,4.0487,3.979,3.9331,3.9331,3.8927,3.8707,3.8707,3.8707,3.8707,3.8707,3.8707,3.8707,3.8707,3.8707,3.8707,3.8707,3.8707,3.8707,3.8689,3.8267,3.7845,3.7489,3.7037,3.6395,3.5587,3.5155,3.4761,3.4339,3.3954,3.4045,3.4376,3.4376,3.4651,3.5055,3.5477,3.5881,3.6358,3.7202,3.7459,3.7606,3.845,3.779,3.6798,3.6853,3.6229,3.5569,3.5624,3.5973,3.6174,3.5734,3.5917,3.6321,3.678,3.6853,3.711,3.7918,3.8065,3.8212,3.8634,3.8707,3.8707,3.8707,3.834,3.8065,3.8065,3.7698,3.7606,3.8028,3.845,3.8413,3.7717,3.7363,3.6882,3.6169,3.5788,3.5622,3.5622,3.5622,3.5622,3.5622,3.5622,3.5419,3.503,3.4641,3.4658,3.503,3.503,3.525,3.5622,3.5622,3.5825,3.618,3.618,3.6417,3.6772,3.6772,3.6469,3.6,3.6105,3.6533,3.7226,3.9772,3.9478,3.957,4.1056,4.0744,4.0799,4.2286,4.1258,4.0506,4.1038,4.0524,3.9753,3.8799,3.99,4.0432,3.9753,3.9203,3.8854,3.8707,3.8836,3.8836,3.8707,3.8707,3.8707,3.8707,3.8707,3.8707,3.8707,3.8707,3.8707,3.8707,3.8707,3.8707,3.8689,3.856,3.812,3.7477,3.7331,3.6817,3.6028,3.5459,3.5045,3.4734,3.4376,3.4559,3.5009,3.5155,3.5697,3.6321,3.645,3.6945,3.7514,3.7643,3.8157,3.8707,3.8707,3.8597,3.834,3.7661,3.7386,3.7165,3.6633,3.6505,3.6541,3.667,3.711,3.7533,3.7661,3.7698,3.79,3.8579,3.8707,3.8707,3.8707,3.8707,3.8707,3.8707,3.8707,3.8707,3.8707,3.8707,3.8762,3.8891,3.8909,3.8915,3.898,3.8186,3.7585,3.727,3.6439,3.583,3.5622,3.574,3.5825,3.5825,3.5825,3.5876,3.6011,3.574,3.5622,3.5622,3.5622,3.5622,3.5622,3.5622,3.5994,3.6586,3.6721,3.6864,3.6939,3.7075,3.6928,3.673,3.6766,3.7607,3.8694,3.9863,4.0377,4.1075,4.1992,4.2047,4.2286,4.3185,4.2561,4.1772,4.1185,4.102,4.0377,3.8872,3.8891,3.8982,3.8872,3.9405,3.9441,3.8762,3.935,3.9423,3.8726,3.8707,3.8707,3.8707,3.8707,3.8707,3.8707,3.8707,3.8707,3.8707,3.8707,3.8707,3.867,3.7955,3.7588,3.747,3.6743,3.5973,3.521,3.5881,3.5257,3.4119,3.544,3.5569,3.5082,3.5862,3.6193,3.6413,3.7092,3.7404,3.7606,3.8322,3.8615,3.8707,3.8707,3.8212,3.7624,3.7544,3.6982,3.6597,3.7184,3.7331,3.7514,3.8212,3.7918,3.7679,3.8395,3.8542,3.8579,3.8689,3.8707,3.8707,3.8707,3.8707,3.8707,3.8707,3.8707,3.8707,3.8707,3.8707,3.8964,3.9662,3.9735,3.9812,4.0057,3.995,3.922,3.7614,3.7428,3.681,3.5639,3.6265,3.662,3.662,3.662,3.6958,3.7584,3.6248,3.5622,3.5622,3.5622,3.5622,3.5622,3.5622,3.5673,3.5825,3.6502,3.7041,3.7482,3.8121,3.8216,3.7958,3.7362,3.7796,3.8719,3.9239,3.9882,4.0543,4.0891,4.1332,4.1901,4.2708,4.2158,4.1662,4.1772,4.1387,4.0671,3.9496,3.8964,3.8707,3.8707,3.9019,3.9276,3.935,3.9698,3.9735,3.9386,3.9368,3.9166,3.8707,3.8707,3.8707,3.8707,3.8707,3.8707,3.8707,3.8707,3.8707,3.8689,3.8322,3.7918,3.7489,3.711,3.6486,3.5771,3.6156,3.5862,3.5275,3.6009,3.6064,3.5844,3.667,3.7257,3.7698,3.8046,3.8175,3.823,3.8597,3.8707,3.8707,3.8707,3.845,3.8175,3.8175,3.79,3.7734,3.8083,3.8175,3.8267,3.8615,3.8762,3.8799,3.8726,3.8707,3.8836,3.9294,3.9368,3.9368,3.9368,3.9368,3.9203,3.8762,3.9093,3.9368,3.9368,3.9368,3.9515,3.9863,4.0304,4.061,4.0753,4.0473,3.9948,3.9174,3.8435,3.7802,3.7165,3.7078,3.6894,3.6585,3.6997,3.7212,3.728,3.7009,3.6891,3.6874,3.6011,3.5859,3.6248,3.5808,3.5876,3.6332,3.7094,3.7267,3.7182,3.8198,3.8409,3.8079,3.805,3.8323,3.8707]}]]